<?xml version="1.0" encoding="UTF-8" standalone="no" ?>
<gpx xmlns="http://www.topografix.com/GPX/1/1" xmlns:xsi="http://www.w3.org/2001/XMLSchema-instance" xsi:schemaLocation="http://www.topografix.com/GPX/1/1 http://www.topografix.com/GPX/1/1/gpx.xsd" version="1.1" creator="VisuGPX - https://www.visugpx.com">
  <metadata>
    <name>Réseau Vert etape 2 : Minerve - Lacan</name>
    <desc><![CDATA[Réseau Vert - Étape 2 - Minerve Lacan]]></desc>
  </metadata>
  <trk>
    <name><![CDATA[Réseau Vert etape 2 : Minerve - Lacan_1]]></name>
    <trkseg>
      <trkpt lat="43.35493" lon="2.74474">
        <ele>152</ele>
        <time>2016-12-27T12:28:42.000Z</time>
      </trkpt>
      <trkpt lat="43.35492" lon="2.74474">
        <ele>152</ele>
        <time>2016-12-27T12:28:43.000Z</time>
      </trkpt>
      <trkpt lat="43.35489" lon="2.74459">
        <ele>151</ele>
        <time>2016-12-27T12:28:51.000Z</time>
      </trkpt>
      <trkpt lat="43.35489" lon="2.74459">
        <ele>151</ele>
        <time>2016-12-27T12:28:55.000Z</time>
      </trkpt>
      <trkpt lat="43.35489" lon="2.74459">
        <ele>151</ele>
        <time>2016-12-27T12:28:57.000Z</time>
      </trkpt>
      <trkpt lat="43.35489" lon="2.74459">
        <ele>151</ele>
        <time>2016-12-27T12:28:59.000Z</time>
      </trkpt>
      <trkpt lat="43.35489" lon="2.74459">
        <ele>151</ele>
        <time>2016-12-27T12:29:01.000Z</time>
      </trkpt>
      <trkpt lat="43.3549" lon="2.74442">
        <ele>152</ele>
        <time>2016-12-27T12:29:15.000Z</time>
      </trkpt>
      <trkpt lat="43.35488" lon="2.74428">
        <ele>152</ele>
        <time>2016-12-27T12:29:21.000Z</time>
      </trkpt>
      <trkpt lat="43.35488" lon="2.7441">
        <ele>152</ele>
        <time>2016-12-27T12:29:27.000Z</time>
      </trkpt>
      <trkpt lat="43.35484" lon="2.74395">
        <ele>153</ele>
        <time>2016-12-27T12:29:31.000Z</time>
      </trkpt>
      <trkpt lat="43.35478" lon="2.74383">
        <ele>155</ele>
        <time>2016-12-27T12:29:35.000Z</time>
      </trkpt>
      <trkpt lat="43.35471" lon="2.74372">
        <ele>159</ele>
        <time>2016-12-27T12:29:39.000Z</time>
      </trkpt>
      <trkpt lat="43.35464" lon="2.74362">
        <ele>162</ele>
        <time>2016-12-27T12:29:43.000Z</time>
      </trkpt>
      <trkpt lat="43.35464" lon="2.74362">
        <ele>162</ele>
        <time>2016-12-27T12:29:45.000Z</time>
      </trkpt>
      <trkpt lat="43.35457" lon="2.7435">
        <ele>164</ele>
        <time>2016-12-27T12:29:47.000Z</time>
      </trkpt>
      <trkpt lat="43.35448" lon="2.74341">
        <ele>164</ele>
        <time>2016-12-27T12:29:51.000Z</time>
      </trkpt>
      <trkpt lat="43.35437" lon="2.74332">
        <ele>165</ele>
        <time>2016-12-27T12:29:55.000Z</time>
      </trkpt>
      <trkpt lat="43.35437" lon="2.74332">
        <ele>165</ele>
        <time>2016-12-27T12:29:57.000Z</time>
      </trkpt>
      <trkpt lat="43.35427" lon="2.74323">
        <ele>167</ele>
        <time>2016-12-27T12:29:59.000Z</time>
      </trkpt>
      <trkpt lat="43.35427" lon="2.74323">
        <ele>167</ele>
        <time>2016-12-27T12:30:01.000Z</time>
      </trkpt>
      <trkpt lat="43.35427" lon="2.74323">
        <ele>167</ele>
        <time>2016-12-27T12:30:03.000Z</time>
      </trkpt>
      <trkpt lat="43.35427" lon="2.74323">
        <ele>167</ele>
        <time>2016-12-27T12:30:05.000Z</time>
      </trkpt>
      <trkpt lat="43.35412" lon="2.74307">
        <ele>170</ele>
        <time>2016-12-27T12:30:09.000Z</time>
      </trkpt>
      <trkpt lat="43.35412" lon="2.74307">
        <ele>170</ele>
        <time>2016-12-27T12:30:11.000Z</time>
      </trkpt>
      <trkpt lat="43.35412" lon="2.74307">
        <ele>170</ele>
        <time>2016-12-27T12:30:13.000Z</time>
      </trkpt>
      <trkpt lat="43.35412" lon="2.74307">
        <ele>170</ele>
        <time>2016-12-27T12:30:15.000Z</time>
      </trkpt>
      <trkpt lat="43.35412" lon="2.74307">
        <ele>170</ele>
        <time>2016-12-27T12:30:17.000Z</time>
      </trkpt>
      <trkpt lat="43.35412" lon="2.74307">
        <ele>170</ele>
        <time>2016-12-27T12:30:19.000Z</time>
      </trkpt>
      <trkpt lat="43.35412" lon="2.74307">
        <ele>170</ele>
        <time>2016-12-27T12:30:21.000Z</time>
      </trkpt>
      <trkpt lat="43.35407" lon="2.74328">
        <ele>172</ele>
        <time>2016-12-27T12:30:27.000Z</time>
      </trkpt>
      <trkpt lat="43.35403" lon="2.74336">
        <ele>171</ele>
        <time>2016-12-27T12:30:29.000Z</time>
      </trkpt>
      <trkpt lat="43.35403" lon="2.74328">
        <ele>170</ele>
        <time>2016-12-27T12:30:35.000Z</time>
      </trkpt>
      <trkpt lat="43.35403" lon="2.74319">
        <ele>170</ele>
        <time>2016-12-27T12:30:37.000Z</time>
      </trkpt>
      <trkpt lat="43.35404" lon="2.7431">
        <ele>171</ele>
        <time>2016-12-27T12:30:39.000Z</time>
      </trkpt>
      <trkpt lat="43.35405" lon="2.74302">
        <ele>171</ele>
        <time>2016-12-27T12:30:41.000Z</time>
      </trkpt>
      <trkpt lat="43.35405" lon="2.74293">
        <ele>171</ele>
        <time>2016-12-27T12:30:43.000Z</time>
      </trkpt>
      <trkpt lat="43.35406" lon="2.74274">
        <ele>170</ele>
        <time>2016-12-27T12:30:45.000Z</time>
      </trkpt>
      <trkpt lat="43.35408" lon="2.74257">
        <ele>169</ele>
        <time>2016-12-27T12:30:49.000Z</time>
      </trkpt>
      <trkpt lat="43.35408" lon="2.74239">
        <ele>170</ele>
        <time>2016-12-27T12:30:53.000Z</time>
      </trkpt>
      <trkpt lat="43.35408" lon="2.74239">
        <ele>170</ele>
        <time>2016-12-27T12:30:55.000Z</time>
      </trkpt>
      <trkpt lat="43.35402" lon="2.74224">
        <ele>171</ele>
        <time>2016-12-27T12:30:57.000Z</time>
      </trkpt>
      <trkpt lat="43.35388" lon="2.74215">
        <ele>172</ele>
        <time>2016-12-27T12:31:01.000Z</time>
      </trkpt>
      <trkpt lat="43.35373" lon="2.74207">
        <ele>173</ele>
        <time>2016-12-27T12:31:05.000Z</time>
      </trkpt>
      <trkpt lat="43.35359" lon="2.74197">
        <ele>173</ele>
        <time>2016-12-27T12:31:09.000Z</time>
      </trkpt>
      <trkpt lat="43.35346" lon="2.74184">
        <ele>176</ele>
        <time>2016-12-27T12:31:13.000Z</time>
      </trkpt>
      <trkpt lat="43.35333" lon="2.74168">
        <ele>178</ele>
        <time>2016-12-27T12:31:17.000Z</time>
      </trkpt>
      <trkpt lat="43.35321" lon="2.74152">
        <ele>181</ele>
        <time>2016-12-27T12:31:21.000Z</time>
      </trkpt>
      <trkpt lat="43.35309" lon="2.74137">
        <ele>183</ele>
        <time>2016-12-27T12:31:25.000Z</time>
      </trkpt>
      <trkpt lat="43.35309" lon="2.74137">
        <ele>183</ele>
        <time>2016-12-27T12:31:27.000Z</time>
      </trkpt>
      <trkpt lat="43.35309" lon="2.74137">
        <ele>183</ele>
        <time>2016-12-27T12:31:29.000Z</time>
      </trkpt>
      <trkpt lat="43.35278" lon="2.74123">
        <ele>186</ele>
        <time>2016-12-27T12:31:33.000Z</time>
      </trkpt>
      <trkpt lat="43.35263" lon="2.74135">
        <ele>186</ele>
        <time>2016-12-27T12:31:37.000Z</time>
      </trkpt>
      <trkpt lat="43.35263" lon="2.74135">
        <ele>186</ele>
        <time>2016-12-27T12:31:39.000Z</time>
      </trkpt>
      <trkpt lat="43.35251" lon="2.74152">
        <ele>187</ele>
        <time>2016-12-27T12:31:41.000Z</time>
      </trkpt>
      <trkpt lat="43.35244" lon="2.74163">
        <ele>187</ele>
        <time>2016-12-27T12:31:43.000Z</time>
      </trkpt>
      <trkpt lat="43.35237" lon="2.74174">
        <ele>187</ele>
        <time>2016-12-27T12:31:45.000Z</time>
      </trkpt>
      <trkpt lat="43.35228" lon="2.74187">
        <ele>187</ele>
        <time>2016-12-27T12:31:47.000Z</time>
      </trkpt>
      <trkpt lat="43.35217" lon="2.74197">
        <ele>188</ele>
        <time>2016-12-27T12:31:49.000Z</time>
      </trkpt>
      <trkpt lat="43.35204" lon="2.74204">
        <ele>188</ele>
        <time>2016-12-27T12:31:51.000Z</time>
      </trkpt>
      <trkpt lat="43.35189" lon="2.74205">
        <ele>188</ele>
        <time>2016-12-27T12:31:53.000Z</time>
      </trkpt>
      <trkpt lat="43.35174" lon="2.742">
        <ele>187</ele>
        <time>2016-12-27T12:31:55.000Z</time>
      </trkpt>
      <trkpt lat="43.35159" lon="2.74192">
        <ele>187</ele>
        <time>2016-12-27T12:31:57.000Z</time>
      </trkpt>
      <trkpt lat="43.35147" lon="2.74179">
        <ele>186</ele>
        <time>2016-12-27T12:31:59.000Z</time>
      </trkpt>
      <trkpt lat="43.35139" lon="2.74163">
        <ele>185</ele>
        <time>2016-12-27T12:32:01.000Z</time>
      </trkpt>
      <trkpt lat="43.35134" lon="2.74145">
        <ele>185</ele>
        <time>2016-12-27T12:32:03.000Z</time>
      </trkpt>
      <trkpt lat="43.35131" lon="2.74129">
        <ele>184</ele>
        <time>2016-12-27T12:32:05.000Z</time>
      </trkpt>
      <trkpt lat="43.3513" lon="2.74112">
        <ele>183</ele>
        <time>2016-12-27T12:32:07.000Z</time>
      </trkpt>
      <trkpt lat="43.35129" lon="2.74097">
        <ele>182</ele>
        <time>2016-12-27T12:32:09.000Z</time>
      </trkpt>
      <trkpt lat="43.35129" lon="2.74083">
        <ele>181</ele>
        <time>2016-12-27T12:32:11.000Z</time>
      </trkpt>
      <trkpt lat="43.35129" lon="2.74083">
        <ele>181</ele>
        <time>2016-12-27T12:32:13.000Z</time>
      </trkpt>
      <trkpt lat="43.35129" lon="2.74083">
        <ele>181</ele>
        <time>2016-12-27T12:32:15.000Z</time>
      </trkpt>
      <trkpt lat="43.35129" lon="2.74083">
        <ele>181</ele>
        <time>2016-12-27T12:32:17.000Z</time>
      </trkpt>
      <trkpt lat="43.35177" lon="2.74057">
        <ele>178</ele>
        <time>2016-12-27T12:32:23.000Z</time>
      </trkpt>
      <trkpt lat="43.35186" lon="2.74054">
        <ele>178</ele>
        <time>2016-12-27T12:32:25.000Z</time>
      </trkpt>
      <trkpt lat="43.35194" lon="2.74049">
        <ele>177</ele>
        <time>2016-12-27T12:32:27.000Z</time>
      </trkpt>
      <trkpt lat="43.35194" lon="2.74049">
        <ele>177</ele>
        <time>2016-12-27T12:32:29.000Z</time>
      </trkpt>
      <trkpt lat="43.35194" lon="2.74049">
        <ele>177</ele>
        <time>2016-12-27T12:32:31.000Z</time>
      </trkpt>
      <trkpt lat="43.35194" lon="2.74049">
        <ele>177</ele>
        <time>2016-12-27T12:32:33.000Z</time>
      </trkpt>
      <trkpt lat="43.35194" lon="2.74049">
        <ele>177</ele>
        <time>2016-12-27T12:32:35.000Z</time>
      </trkpt>
      <trkpt lat="43.35194" lon="2.74049">
        <ele>177</ele>
        <time>2016-12-27T12:32:37.000Z</time>
      </trkpt>
      <trkpt lat="43.35194" lon="2.74049">
        <ele>177</ele>
        <time>2016-12-27T12:32:39.000Z</time>
      </trkpt>
      <trkpt lat="43.35194" lon="2.74049">
        <ele>177</ele>
        <time>2016-12-27T12:32:41.000Z</time>
      </trkpt>
      <trkpt lat="43.35194" lon="2.74049">
        <ele>177</ele>
        <time>2016-12-27T12:32:43.000Z</time>
      </trkpt>
      <trkpt lat="43.35194" lon="2.74049">
        <ele>177</ele>
        <time>2016-12-27T12:32:45.000Z</time>
      </trkpt>
      <trkpt lat="43.35194" lon="2.74049">
        <ele>177</ele>
        <time>2016-12-27T12:32:47.000Z</time>
      </trkpt>
      <trkpt lat="43.35194" lon="2.74049">
        <ele>177</ele>
        <time>2016-12-27T12:32:49.000Z</time>
      </trkpt>
      <trkpt lat="43.35194" lon="2.74049">
        <ele>177</ele>
        <time>2016-12-27T12:32:55.000Z</time>
      </trkpt>
      <trkpt lat="43.35194" lon="2.74049">
        <ele>177</ele>
        <time>2016-12-27T12:32:57.000Z</time>
      </trkpt>
      <trkpt lat="43.35231" lon="2.73987">
        <ele>180</ele>
        <time>2016-12-27T12:33:01.000Z</time>
      </trkpt>
      <trkpt lat="43.35252" lon="2.73954">
        <ele>181</ele>
        <time>2016-12-27T12:33:03.000Z</time>
      </trkpt>
      <trkpt lat="43.35266" lon="2.73935">
        <ele>182</ele>
        <time>2016-12-27T12:33:05.000Z</time>
      </trkpt>
      <trkpt lat="43.35266" lon="2.73935">
        <ele>182</ele>
        <time>2016-12-27T12:33:07.000Z</time>
      </trkpt>
      <trkpt lat="43.35266" lon="2.73935">
        <ele>182</ele>
        <time>2016-12-27T12:33:09.000Z</time>
      </trkpt>
      <trkpt lat="43.35266" lon="2.73935">
        <ele>182</ele>
        <time>2016-12-27T12:33:11.000Z</time>
      </trkpt>
      <trkpt lat="43.35266" lon="2.73935">
        <ele>182</ele>
        <time>2016-12-27T12:33:13.000Z</time>
      </trkpt>
      <trkpt lat="43.35291" lon="2.73915">
        <ele>187</ele>
        <time>2016-12-27T12:33:19.000Z</time>
      </trkpt>
      <trkpt lat="43.35306" lon="2.73905">
        <ele>188</ele>
        <time>2016-12-27T12:33:21.000Z</time>
      </trkpt>
      <trkpt lat="43.35317" lon="2.73898">
        <ele>189</ele>
        <time>2016-12-27T12:33:23.000Z</time>
      </trkpt>
      <trkpt lat="43.35325" lon="2.73894">
        <ele>190</ele>
        <time>2016-12-27T12:33:25.000Z</time>
      </trkpt>
      <trkpt lat="43.35325" lon="2.73894">
        <ele>190</ele>
        <time>2016-12-27T12:33:27.000Z</time>
      </trkpt>
      <trkpt lat="43.35335" lon="2.73889">
        <ele>191</ele>
        <time>2016-12-27T12:33:29.000Z</time>
      </trkpt>
      <trkpt lat="43.35343" lon="2.73887">
        <ele>191</ele>
        <time>2016-12-27T12:33:31.000Z</time>
      </trkpt>
      <trkpt lat="43.35343" lon="2.73887">
        <ele>191</ele>
        <time>2016-12-27T12:33:33.000Z</time>
      </trkpt>
      <trkpt lat="43.35343" lon="2.73887">
        <ele>191</ele>
        <time>2016-12-27T12:33:35.000Z</time>
      </trkpt>
      <trkpt lat="43.35343" lon="2.73887">
        <ele>191</ele>
        <time>2016-12-27T12:33:37.000Z</time>
      </trkpt>
      <trkpt lat="43.35343" lon="2.73887">
        <ele>191</ele>
        <time>2016-12-27T12:33:43.000Z</time>
      </trkpt>
      <trkpt lat="43.35343" lon="2.73887">
        <ele>191</ele>
        <time>2016-12-27T12:33:45.000Z</time>
      </trkpt>
      <trkpt lat="43.35343" lon="2.73887">
        <ele>191</ele>
        <time>2016-12-27T12:33:47.000Z</time>
      </trkpt>
      <trkpt lat="43.35367" lon="2.73914">
        <ele>200</ele>
        <time>2016-12-27T12:33:51.000Z</time>
      </trkpt>
      <trkpt lat="43.35381" lon="2.7393">
        <ele>201</ele>
        <time>2016-12-27T12:33:53.000Z</time>
      </trkpt>
      <trkpt lat="43.3539" lon="2.73942">
        <ele>202</ele>
        <time>2016-12-27T12:33:55.000Z</time>
      </trkpt>
      <trkpt lat="43.35396" lon="2.73952">
        <ele>202</ele>
        <time>2016-12-27T12:33:57.000Z</time>
      </trkpt>
      <trkpt lat="43.354" lon="2.7396">
        <ele>203</ele>
        <time>2016-12-27T12:33:59.000Z</time>
      </trkpt>
      <trkpt lat="43.35408" lon="2.73977">
        <ele>204</ele>
        <time>2016-12-27T12:34:01.000Z</time>
      </trkpt>
      <trkpt lat="43.35414" lon="2.73994">
        <ele>205</ele>
        <time>2016-12-27T12:34:05.000Z</time>
      </trkpt>
      <trkpt lat="43.35422" lon="2.7401">
        <ele>205</ele>
        <time>2016-12-27T12:34:09.000Z</time>
      </trkpt>
      <trkpt lat="43.35432" lon="2.74027">
        <ele>206</ele>
        <time>2016-12-27T12:34:13.000Z</time>
      </trkpt>
      <trkpt lat="43.35444" lon="2.74045">
        <ele>206</ele>
        <time>2016-12-27T12:34:17.000Z</time>
      </trkpt>
      <trkpt lat="43.35458" lon="2.7406">
        <ele>206</ele>
        <time>2016-12-27T12:34:21.000Z</time>
      </trkpt>
      <trkpt lat="43.35458" lon="2.7406">
        <ele>206</ele>
        <time>2016-12-27T12:34:23.000Z</time>
      </trkpt>
      <trkpt lat="43.35474" lon="2.7407">
        <ele>207</ele>
        <time>2016-12-27T12:34:25.000Z</time>
      </trkpt>
      <trkpt lat="43.35474" lon="2.7407">
        <ele>207</ele>
        <time>2016-12-27T12:34:29.000Z</time>
      </trkpt>
      <trkpt lat="43.35474" lon="2.7407">
        <ele>207</ele>
        <time>2016-12-27T12:34:31.000Z</time>
      </trkpt>
      <trkpt lat="43.35474" lon="2.7407">
        <ele>207</ele>
        <time>2016-12-27T12:34:33.000Z</time>
      </trkpt>
      <trkpt lat="43.35474" lon="2.7407">
        <ele>207</ele>
        <time>2016-12-27T12:34:35.000Z</time>
      </trkpt>
      <trkpt lat="43.35474" lon="2.7407">
        <ele>207</ele>
        <time>2016-12-27T12:34:41.000Z</time>
      </trkpt>
      <trkpt lat="43.35474" lon="2.7407">
        <ele>207</ele>
        <time>2016-12-27T12:34:43.000Z</time>
      </trkpt>
      <trkpt lat="43.35474" lon="2.7407">
        <ele>207</ele>
        <time>2016-12-27T12:34:45.000Z</time>
      </trkpt>
      <trkpt lat="43.35474" lon="2.7407">
        <ele>207</ele>
        <time>2016-12-27T12:34:47.000Z</time>
      </trkpt>
      <trkpt lat="43.35474" lon="2.7407">
        <ele>207</ele>
        <time>2016-12-27T12:34:49.000Z</time>
      </trkpt>
      <trkpt lat="43.35474" lon="2.7407">
        <ele>207</ele>
        <time>2016-12-27T12:34:51.000Z</time>
      </trkpt>
      <trkpt lat="43.35548" lon="2.74084">
        <ele>213</ele>
        <time>2016-12-27T12:34:55.000Z</time>
      </trkpt>
      <trkpt lat="43.35548" lon="2.74084">
        <ele>213</ele>
        <time>2016-12-27T12:34:57.000Z</time>
      </trkpt>
      <trkpt lat="43.35548" lon="2.74084">
        <ele>213</ele>
        <time>2016-12-27T12:34:59.000Z</time>
      </trkpt>
      <trkpt lat="43.35548" lon="2.74084">
        <ele>213</ele>
        <time>2016-12-27T12:35:01.000Z</time>
      </trkpt>
      <trkpt lat="43.35537" lon="2.74036">
        <ele>216</ele>
        <time>2016-12-27T12:35:07.000Z</time>
      </trkpt>
      <trkpt lat="43.35534" lon="2.74019">
        <ele>216</ele>
        <time>2016-12-27T12:35:11.000Z</time>
      </trkpt>
      <trkpt lat="43.35536" lon="2.73998">
        <ele>217</ele>
        <time>2016-12-27T12:35:15.000Z</time>
      </trkpt>
      <trkpt lat="43.35541" lon="2.73978">
        <ele>218</ele>
        <time>2016-12-27T12:35:19.000Z</time>
      </trkpt>
      <trkpt lat="43.35541" lon="2.73978">
        <ele>218</ele>
        <time>2016-12-27T12:35:21.000Z</time>
      </trkpt>
      <trkpt lat="43.35541" lon="2.73978">
        <ele>218</ele>
        <time>2016-12-27T12:35:23.000Z</time>
      </trkpt>
      <trkpt lat="43.35542" lon="2.73952">
        <ele>222</ele>
        <time>2016-12-27T12:35:29.000Z</time>
      </trkpt>
      <trkpt lat="43.35543" lon="2.73935">
        <ele>222</ele>
        <time>2016-12-27T12:35:31.000Z</time>
      </trkpt>
      <trkpt lat="43.35544" lon="2.73921">
        <ele>223</ele>
        <time>2016-12-27T12:35:33.000Z</time>
      </trkpt>
      <trkpt lat="43.35543" lon="2.73909">
        <ele>224</ele>
        <time>2016-12-27T12:35:35.000Z</time>
      </trkpt>
      <trkpt lat="43.35543" lon="2.73909">
        <ele>224</ele>
        <time>2016-12-27T12:35:37.000Z</time>
      </trkpt>
      <trkpt lat="43.35543" lon="2.73909">
        <ele>224</ele>
        <time>2016-12-27T12:35:39.000Z</time>
      </trkpt>
      <trkpt lat="43.35543" lon="2.73909">
        <ele>224</ele>
        <time>2016-12-27T12:35:43.000Z</time>
      </trkpt>
      <trkpt lat="43.35543" lon="2.73909">
        <ele>224</ele>
        <time>2016-12-27T12:35:45.000Z</time>
      </trkpt>
      <trkpt lat="43.35543" lon="2.73909">
        <ele>224</ele>
        <time>2016-12-27T12:35:47.000Z</time>
      </trkpt>
      <trkpt lat="43.35543" lon="2.73865">
        <ele>233</ele>
        <time>2016-12-27T12:35:51.000Z</time>
      </trkpt>
      <trkpt lat="43.35541" lon="2.73838">
        <ele>233</ele>
        <time>2016-12-27T12:35:53.000Z</time>
      </trkpt>
      <trkpt lat="43.35539" lon="2.7382">
        <ele>234</ele>
        <time>2016-12-27T12:35:55.000Z</time>
      </trkpt>
      <trkpt lat="43.35538" lon="2.73805">
        <ele>234</ele>
        <time>2016-12-27T12:35:57.000Z</time>
      </trkpt>
      <trkpt lat="43.35538" lon="2.73793">
        <ele>235</ele>
        <time>2016-12-27T12:35:59.000Z</time>
      </trkpt>
      <trkpt lat="43.35541" lon="2.7377">
        <ele>235</ele>
        <time>2016-12-27T12:36:01.000Z</time>
      </trkpt>
      <trkpt lat="43.35546" lon="2.73749">
        <ele>236</ele>
        <time>2016-12-27T12:36:05.000Z</time>
      </trkpt>
      <trkpt lat="43.35554" lon="2.73729">
        <ele>237</ele>
        <time>2016-12-27T12:36:09.000Z</time>
      </trkpt>
      <trkpt lat="43.35563" lon="2.73711">
        <ele>237</ele>
        <time>2016-12-27T12:36:13.000Z</time>
      </trkpt>
      <trkpt lat="43.35563" lon="2.73711">
        <ele>237</ele>
        <time>2016-12-27T12:36:17.000Z</time>
      </trkpt>
      <trkpt lat="43.35563" lon="2.73711">
        <ele>237</ele>
        <time>2016-12-27T12:36:19.000Z</time>
      </trkpt>
      <trkpt lat="43.35563" lon="2.73711">
        <ele>237</ele>
        <time>2016-12-27T12:36:21.000Z</time>
      </trkpt>
      <trkpt lat="43.35563" lon="2.73711">
        <ele>237</ele>
        <time>2016-12-27T12:36:23.000Z</time>
      </trkpt>
      <trkpt lat="43.35563" lon="2.73711">
        <ele>237</ele>
        <time>2016-12-27T12:36:25.000Z</time>
      </trkpt>
      <trkpt lat="43.35563" lon="2.73711">
        <ele>237</ele>
        <time>2016-12-27T12:36:27.000Z</time>
      </trkpt>
      <trkpt lat="43.35563" lon="2.73711">
        <ele>237</ele>
        <time>2016-12-27T12:36:29.000Z</time>
      </trkpt>
      <trkpt lat="43.35563" lon="2.73711">
        <ele>237</ele>
        <time>2016-12-27T12:36:31.000Z</time>
      </trkpt>
      <trkpt lat="43.35563" lon="2.73711">
        <ele>237</ele>
        <time>2016-12-27T12:36:33.000Z</time>
      </trkpt>
      <trkpt lat="43.35584" lon="2.73608">
        <ele>240</ele>
        <time>2016-12-27T12:36:37.000Z</time>
      </trkpt>
      <trkpt lat="43.35584" lon="2.73608">
        <ele>240</ele>
        <time>2016-12-27T12:36:39.000Z</time>
      </trkpt>
      <trkpt lat="43.35579" lon="2.73591">
        <ele>241</ele>
        <time>2016-12-27T12:36:41.000Z</time>
      </trkpt>
      <trkpt lat="43.35575" lon="2.73572">
        <ele>241</ele>
        <time>2016-12-27T12:36:45.000Z</time>
      </trkpt>
      <trkpt lat="43.35577" lon="2.73553">
        <ele>242</ele>
        <time>2016-12-27T12:36:49.000Z</time>
      </trkpt>
      <trkpt lat="43.35577" lon="2.73553">
        <ele>242</ele>
        <time>2016-12-27T12:36:51.000Z</time>
      </trkpt>
      <trkpt lat="43.35577" lon="2.73553">
        <ele>242</ele>
        <time>2016-12-27T12:36:53.000Z</time>
      </trkpt>
      <trkpt lat="43.35577" lon="2.73553">
        <ele>242</ele>
        <time>2016-12-27T12:36:55.000Z</time>
      </trkpt>
      <trkpt lat="43.35577" lon="2.73553">
        <ele>242</ele>
        <time>2016-12-27T12:36:57.000Z</time>
      </trkpt>
      <trkpt lat="43.35584" lon="2.73497">
        <ele>245</ele>
        <time>2016-12-27T12:37:01.000Z</time>
      </trkpt>
      <trkpt lat="43.35589" lon="2.7348">
        <ele>246</ele>
        <time>2016-12-27T12:37:05.000Z</time>
      </trkpt>
      <trkpt lat="43.35589" lon="2.7348">
        <ele>246</ele>
        <time>2016-12-27T12:37:07.000Z</time>
      </trkpt>
      <trkpt lat="43.35589" lon="2.7348">
        <ele>246</ele>
        <time>2016-12-27T12:37:09.000Z</time>
      </trkpt>
      <trkpt lat="43.35589" lon="2.7348">
        <ele>246</ele>
        <time>2016-12-27T12:37:11.000Z</time>
      </trkpt>
      <trkpt lat="43.35589" lon="2.7348">
        <ele>246</ele>
        <time>2016-12-27T12:37:13.000Z</time>
      </trkpt>
      <trkpt lat="43.35614" lon="2.73425">
        <ele>246</ele>
        <time>2016-12-27T12:37:19.000Z</time>
      </trkpt>
      <trkpt lat="43.35619" lon="2.73416">
        <ele>246</ele>
        <time>2016-12-27T12:37:23.000Z</time>
      </trkpt>
      <trkpt lat="43.35623" lon="2.73407">
        <ele>245</ele>
        <time>2016-12-27T12:37:25.000Z</time>
      </trkpt>
      <trkpt lat="43.35626" lon="2.73398">
        <ele>245</ele>
        <time>2016-12-27T12:37:27.000Z</time>
      </trkpt>
      <trkpt lat="43.35626" lon="2.73398">
        <ele>245</ele>
        <time>2016-12-27T12:37:29.000Z</time>
      </trkpt>
      <trkpt lat="43.35626" lon="2.73398">
        <ele>245</ele>
        <time>2016-12-27T12:37:31.000Z</time>
      </trkpt>
      <trkpt lat="43.35635" lon="2.7337">
        <ele>244</ele>
        <time>2016-12-27T12:37:37.000Z</time>
      </trkpt>
      <trkpt lat="43.35641" lon="2.7335">
        <ele>244</ele>
        <time>2016-12-27T12:37:39.000Z</time>
      </trkpt>
      <trkpt lat="43.35643" lon="2.73333">
        <ele>245</ele>
        <time>2016-12-27T12:37:41.000Z</time>
      </trkpt>
      <trkpt lat="43.35645" lon="2.73319">
        <ele>246</ele>
        <time>2016-12-27T12:37:43.000Z</time>
      </trkpt>
      <trkpt lat="43.35647" lon="2.73306">
        <ele>246</ele>
        <time>2016-12-27T12:37:45.000Z</time>
      </trkpt>
      <trkpt lat="43.35652" lon="2.73283">
        <ele>247</ele>
        <time>2016-12-27T12:37:47.000Z</time>
      </trkpt>
      <trkpt lat="43.35652" lon="2.73283">
        <ele>247</ele>
        <time>2016-12-27T12:37:49.000Z</time>
      </trkpt>
      <trkpt lat="43.35652" lon="2.73283">
        <ele>247</ele>
        <time>2016-12-27T12:37:51.000Z</time>
      </trkpt>
      <trkpt lat="43.35652" lon="2.73283">
        <ele>247</ele>
        <time>2016-12-27T12:37:53.000Z</time>
      </trkpt>
      <trkpt lat="43.35652" lon="2.73283">
        <ele>247</ele>
        <time>2016-12-27T12:37:55.000Z</time>
      </trkpt>
      <trkpt lat="43.35652" lon="2.73283">
        <ele>247</ele>
        <time>2016-12-27T12:37:57.000Z</time>
      </trkpt>
      <trkpt lat="43.35689" lon="2.73228">
        <ele>250</ele>
        <time>2016-12-27T12:38:03.000Z</time>
      </trkpt>
      <trkpt lat="43.35689" lon="2.73228">
        <ele>250</ele>
        <time>2016-12-27T12:38:05.000Z</time>
      </trkpt>
      <trkpt lat="43.35696" lon="2.73211">
        <ele>251</ele>
        <time>2016-12-27T12:38:07.000Z</time>
      </trkpt>
      <trkpt lat="43.357" lon="2.73188">
        <ele>251</ele>
        <time>2016-12-27T12:38:11.000Z</time>
      </trkpt>
      <trkpt lat="43.35703" lon="2.73176">
        <ele>251</ele>
        <time>2016-12-27T12:38:13.000Z</time>
      </trkpt>
      <trkpt lat="43.35706" lon="2.73163">
        <ele>250</ele>
        <time>2016-12-27T12:38:15.000Z</time>
      </trkpt>
      <trkpt lat="43.35705" lon="2.73149">
        <ele>250</ele>
        <time>2016-12-27T12:38:17.000Z</time>
      </trkpt>
      <trkpt lat="43.35698" lon="2.73142">
        <ele>250</ele>
        <time>2016-12-27T12:38:19.000Z</time>
      </trkpt>
      <trkpt lat="43.35698" lon="2.73142">
        <ele>250</ele>
        <time>2016-12-27T12:38:21.000Z</time>
      </trkpt>
      <trkpt lat="43.35698" lon="2.73142">
        <ele>250</ele>
        <time>2016-12-27T12:38:23.000Z</time>
      </trkpt>
      <trkpt lat="43.35698" lon="2.73142">
        <ele>250</ele>
        <time>2016-12-27T12:38:25.000Z</time>
      </trkpt>
      <trkpt lat="43.35641" lon="2.73148">
        <ele>251</ele>
        <time>2016-12-27T12:38:33.000Z</time>
      </trkpt>
      <trkpt lat="43.35641" lon="2.73148">
        <ele>251</ele>
        <time>2016-12-27T12:38:35.000Z</time>
      </trkpt>
      <trkpt lat="43.35641" lon="2.73148">
        <ele>251</ele>
        <time>2016-12-27T12:38:37.000Z</time>
      </trkpt>
      <trkpt lat="43.35641" lon="2.73148">
        <ele>251</ele>
        <time>2016-12-27T12:38:39.000Z</time>
      </trkpt>
      <trkpt lat="43.35641" lon="2.73148">
        <ele>251</ele>
        <time>2016-12-27T12:38:41.000Z</time>
      </trkpt>
      <trkpt lat="43.35641" lon="2.73148">
        <ele>251</ele>
        <time>2016-12-27T12:38:43.000Z</time>
      </trkpt>
      <trkpt lat="43.35641" lon="2.73148">
        <ele>251</ele>
        <time>2016-12-27T12:38:45.000Z</time>
      </trkpt>
      <trkpt lat="43.35653" lon="2.7309">
        <ele>258</ele>
        <time>2016-12-27T12:38:51.000Z</time>
      </trkpt>
      <trkpt lat="43.35662" lon="2.73079">
        <ele>258</ele>
        <time>2016-12-27T12:38:55.000Z</time>
      </trkpt>
      <trkpt lat="43.35662" lon="2.73079">
        <ele>258</ele>
        <time>2016-12-27T12:38:57.000Z</time>
      </trkpt>
      <trkpt lat="43.35672" lon="2.73069">
        <ele>260</ele>
        <time>2016-12-27T12:38:59.000Z</time>
      </trkpt>
      <trkpt lat="43.35683" lon="2.73058">
        <ele>261</ele>
        <time>2016-12-27T12:39:03.000Z</time>
      </trkpt>
      <trkpt lat="43.35693" lon="2.73046">
        <ele>263</ele>
        <time>2016-12-27T12:39:07.000Z</time>
      </trkpt>
      <trkpt lat="43.35693" lon="2.73046">
        <ele>263</ele>
        <time>2016-12-27T12:39:09.000Z</time>
      </trkpt>
      <trkpt lat="43.35693" lon="2.73046">
        <ele>263</ele>
        <time>2016-12-27T12:39:11.000Z</time>
      </trkpt>
      <trkpt lat="43.35701" lon="2.73032">
        <ele>267</ele>
        <time>2016-12-27T12:39:15.000Z</time>
      </trkpt>
      <trkpt lat="43.35706" lon="2.73022">
        <ele>268</ele>
        <time>2016-12-27T12:39:17.000Z</time>
      </trkpt>
      <trkpt lat="43.35706" lon="2.73022">
        <ele>268</ele>
        <time>2016-12-27T12:39:19.000Z</time>
      </trkpt>
      <trkpt lat="43.35706" lon="2.73022">
        <ele>268</ele>
        <time>2016-12-27T12:39:21.000Z</time>
      </trkpt>
      <trkpt lat="43.35706" lon="2.73022">
        <ele>268</ele>
        <time>2016-12-27T12:39:23.000Z</time>
      </trkpt>
      <trkpt lat="43.35723" lon="2.73">
        <ele>270</ele>
        <time>2016-12-27T12:39:29.000Z</time>
      </trkpt>
      <trkpt lat="43.35733" lon="2.72987">
        <ele>272</ele>
        <time>2016-12-27T12:39:31.000Z</time>
      </trkpt>
      <trkpt lat="43.35741" lon="2.72978">
        <ele>273</ele>
        <time>2016-12-27T12:39:33.000Z</time>
      </trkpt>
      <trkpt lat="43.35748" lon="2.72971">
        <ele>274</ele>
        <time>2016-12-27T12:39:35.000Z</time>
      </trkpt>
      <trkpt lat="43.35754" lon="2.72965">
        <ele>274</ele>
        <time>2016-12-27T12:39:37.000Z</time>
      </trkpt>
      <trkpt lat="43.35766" lon="2.72951">
        <ele>275</ele>
        <time>2016-12-27T12:39:39.000Z</time>
      </trkpt>
      <trkpt lat="43.35766" lon="2.72951">
        <ele>275</ele>
        <time>2016-12-27T12:39:43.000Z</time>
      </trkpt>
      <trkpt lat="43.35766" lon="2.72951">
        <ele>275</ele>
        <time>2016-12-27T12:39:45.000Z</time>
      </trkpt>
      <trkpt lat="43.35766" lon="2.72951">
        <ele>275</ele>
        <time>2016-12-27T12:39:53.000Z</time>
      </trkpt>
      <trkpt lat="43.35766" lon="2.72951">
        <ele>275</ele>
        <time>2016-12-27T12:39:55.000Z</time>
      </trkpt>
      <trkpt lat="43.35812" lon="2.72884">
        <ele>283</ele>
        <time>2016-12-27T12:39:59.000Z</time>
      </trkpt>
      <trkpt lat="43.3582" lon="2.72868">
        <ele>285</ele>
        <time>2016-12-27T12:40:03.000Z</time>
      </trkpt>
      <trkpt lat="43.3582" lon="2.72868">
        <ele>285</ele>
        <time>2016-12-27T12:40:05.000Z</time>
      </trkpt>
      <trkpt lat="43.35828" lon="2.72852">
        <ele>285</ele>
        <time>2016-12-27T12:40:07.000Z</time>
      </trkpt>
      <trkpt lat="43.35828" lon="2.72852">
        <ele>285</ele>
        <time>2016-12-27T12:40:09.000Z</time>
      </trkpt>
      <trkpt lat="43.35828" lon="2.72852">
        <ele>285</ele>
        <time>2016-12-27T12:40:11.000Z</time>
      </trkpt>
      <trkpt lat="43.35828" lon="2.72852">
        <ele>285</ele>
        <time>2016-12-27T12:40:13.000Z</time>
      </trkpt>
      <trkpt lat="43.35828" lon="2.72852">
        <ele>285</ele>
        <time>2016-12-27T12:40:15.000Z</time>
      </trkpt>
      <trkpt lat="43.35828" lon="2.72852">
        <ele>285</ele>
        <time>2016-12-27T12:40:17.000Z</time>
      </trkpt>
      <trkpt lat="43.35839" lon="2.72794">
        <ele>289</ele>
        <time>2016-12-27T12:40:21.000Z</time>
      </trkpt>
      <trkpt lat="43.35833" lon="2.72774">
        <ele>288</ele>
        <time>2016-12-27T12:40:25.000Z</time>
      </trkpt>
      <trkpt lat="43.3583" lon="2.72754">
        <ele>288</ele>
        <time>2016-12-27T12:40:29.000Z</time>
      </trkpt>
      <trkpt lat="43.3583" lon="2.72754">
        <ele>288</ele>
        <time>2016-12-27T12:40:31.000Z</time>
      </trkpt>
      <trkpt lat="43.3583" lon="2.72754">
        <ele>288</ele>
        <time>2016-12-27T12:40:33.000Z</time>
      </trkpt>
      <trkpt lat="43.35817" lon="2.72709">
        <ele>290</ele>
        <time>2016-12-27T12:40:40.000Z</time>
      </trkpt>
      <trkpt lat="43.35812" lon="2.72689">
        <ele>290</ele>
        <time>2016-12-27T12:40:44.000Z</time>
      </trkpt>
      <trkpt lat="43.35811" lon="2.72669">
        <ele>291</ele>
        <time>2016-12-27T12:40:48.000Z</time>
      </trkpt>
      <trkpt lat="43.35811" lon="2.72669">
        <ele>291</ele>
        <time>2016-12-27T12:40:50.000Z</time>
      </trkpt>
      <trkpt lat="43.35811" lon="2.72669">
        <ele>291</ele>
        <time>2016-12-27T12:40:52.000Z</time>
      </trkpt>
      <trkpt lat="43.35811" lon="2.72669">
        <ele>291</ele>
        <time>2016-12-27T12:40:54.000Z</time>
      </trkpt>
      <trkpt lat="43.35811" lon="2.72669">
        <ele>291</ele>
        <time>2016-12-27T12:40:56.000Z</time>
      </trkpt>
      <trkpt lat="43.35811" lon="2.72669">
        <ele>291</ele>
        <time>2016-12-27T12:40:58.000Z</time>
      </trkpt>
      <trkpt lat="43.35811" lon="2.72669">
        <ele>291</ele>
        <time>2016-12-27T12:41:00.000Z</time>
      </trkpt>
      <trkpt lat="43.35811" lon="2.72669">
        <ele>291</ele>
        <time>2016-12-27T12:41:02.000Z</time>
      </trkpt>
      <trkpt lat="43.35831" lon="2.72651">
        <ele>296</ele>
        <time>2016-12-27T12:41:08.000Z</time>
      </trkpt>
      <trkpt lat="43.35844" lon="2.72641">
        <ele>296</ele>
        <time>2016-12-27T12:41:10.000Z</time>
      </trkpt>
      <trkpt lat="43.35854" lon="2.72634">
        <ele>297</ele>
        <time>2016-12-27T12:41:12.000Z</time>
      </trkpt>
      <trkpt lat="43.35862" lon="2.72629">
        <ele>297</ele>
        <time>2016-12-27T12:41:14.000Z</time>
      </trkpt>
      <trkpt lat="43.35862" lon="2.72629">
        <ele>297</ele>
        <time>2016-12-27T12:41:16.000Z</time>
      </trkpt>
      <trkpt lat="43.35874" lon="2.72614">
        <ele>300</ele>
        <time>2016-12-27T12:41:22.000Z</time>
      </trkpt>
      <trkpt lat="43.35884" lon="2.72605">
        <ele>301</ele>
        <time>2016-12-27T12:41:24.000Z</time>
      </trkpt>
      <trkpt lat="43.35884" lon="2.72605">
        <ele>301</ele>
        <time>2016-12-27T12:41:26.000Z</time>
      </trkpt>
      <trkpt lat="43.35884" lon="2.72605">
        <ele>301</ele>
        <time>2016-12-27T12:41:28.000Z</time>
      </trkpt>
      <trkpt lat="43.35884" lon="2.72605">
        <ele>301</ele>
        <time>2016-12-27T12:41:30.000Z</time>
      </trkpt>
      <trkpt lat="43.35884" lon="2.72605">
        <ele>301</ele>
        <time>2016-12-27T12:41:32.000Z</time>
      </trkpt>
      <trkpt lat="43.35884" lon="2.72605">
        <ele>301</ele>
        <time>2016-12-27T12:41:34.000Z</time>
      </trkpt>
      <trkpt lat="43.35907" lon="2.72599">
        <ele>306</ele>
        <time>2016-12-27T12:41:38.000Z</time>
      </trkpt>
      <trkpt lat="43.35922" lon="2.72596">
        <ele>307</ele>
        <time>2016-12-27T12:41:40.000Z</time>
      </trkpt>
      <trkpt lat="43.35933" lon="2.72594">
        <ele>307</ele>
        <time>2016-12-27T12:41:42.000Z</time>
      </trkpt>
      <trkpt lat="43.35941" lon="2.72592">
        <ele>308</ele>
        <time>2016-12-27T12:41:44.000Z</time>
      </trkpt>
      <trkpt lat="43.35948" lon="2.7259">
        <ele>308</ele>
        <time>2016-12-27T12:41:46.000Z</time>
      </trkpt>
      <trkpt lat="43.35961" lon="2.72586">
        <ele>309</ele>
        <time>2016-12-27T12:41:48.000Z</time>
      </trkpt>
      <trkpt lat="43.35961" lon="2.72586">
        <ele>309</ele>
        <time>2016-12-27T12:41:50.000Z</time>
      </trkpt>
      <trkpt lat="43.35961" lon="2.72586">
        <ele>309</ele>
        <time>2016-12-27T12:41:52.000Z</time>
      </trkpt>
      <trkpt lat="43.35961" lon="2.72586">
        <ele>309</ele>
        <time>2016-12-27T12:41:54.000Z</time>
      </trkpt>
      <trkpt lat="43.35985" lon="2.72559">
        <ele>312</ele>
        <time>2016-12-27T12:41:58.000Z</time>
      </trkpt>
      <trkpt lat="43.35993" lon="2.72546">
        <ele>313</ele>
        <time>2016-12-27T12:42:02.000Z</time>
      </trkpt>
      <trkpt lat="43.35993" lon="2.72546">
        <ele>313</ele>
        <time>2016-12-27T12:42:04.000Z</time>
      </trkpt>
      <trkpt lat="43.35993" lon="2.72546">
        <ele>313</ele>
        <time>2016-12-27T12:42:06.000Z</time>
      </trkpt>
      <trkpt lat="43.35993" lon="2.72546">
        <ele>313</ele>
        <time>2016-12-27T12:42:08.000Z</time>
      </trkpt>
      <trkpt lat="43.35993" lon="2.72546">
        <ele>313</ele>
        <time>2016-12-27T12:42:10.000Z</time>
      </trkpt>
      <trkpt lat="43.35993" lon="2.72546">
        <ele>313</ele>
        <time>2016-12-27T12:42:12.000Z</time>
      </trkpt>
      <trkpt lat="43.35993" lon="2.72546">
        <ele>313</ele>
        <time>2016-12-27T12:42:14.000Z</time>
      </trkpt>
      <trkpt lat="43.35993" lon="2.72546">
        <ele>313</ele>
        <time>2016-12-27T12:42:16.000Z</time>
      </trkpt>
      <trkpt lat="43.36037" lon="2.72509">
        <ele>319</ele>
        <time>2016-12-27T12:42:20.000Z</time>
      </trkpt>
      <trkpt lat="43.36044" lon="2.72496">
        <ele>320</ele>
        <time>2016-12-27T12:42:24.000Z</time>
      </trkpt>
      <trkpt lat="43.36044" lon="2.72496">
        <ele>320</ele>
        <time>2016-12-27T12:42:26.000Z</time>
      </trkpt>
      <trkpt lat="43.36053" lon="2.72484">
        <ele>320</ele>
        <time>2016-12-27T12:42:28.000Z</time>
      </trkpt>
      <trkpt lat="43.36053" lon="2.72484">
        <ele>320</ele>
        <time>2016-12-27T12:42:30.000Z</time>
      </trkpt>
      <trkpt lat="43.36053" lon="2.72484">
        <ele>320</ele>
        <time>2016-12-27T12:42:32.000Z</time>
      </trkpt>
      <trkpt lat="43.36053" lon="2.72484">
        <ele>320</ele>
        <time>2016-12-27T12:42:34.000Z</time>
      </trkpt>
      <trkpt lat="43.36084" lon="2.72466">
        <ele>324</ele>
        <time>2016-12-27T12:42:40.000Z</time>
      </trkpt>
      <trkpt lat="43.36093" lon="2.72453">
        <ele>325</ele>
        <time>2016-12-27T12:42:44.000Z</time>
      </trkpt>
      <trkpt lat="43.36102" lon="2.72443">
        <ele>326</ele>
        <time>2016-12-27T12:42:48.000Z</time>
      </trkpt>
      <trkpt lat="43.36102" lon="2.72443">
        <ele>326</ele>
        <time>2016-12-27T12:42:50.000Z</time>
      </trkpt>
      <trkpt lat="43.36102" lon="2.72443">
        <ele>326</ele>
        <time>2016-12-27T12:42:52.000Z</time>
      </trkpt>
      <trkpt lat="43.36102" lon="2.72443">
        <ele>326</ele>
        <time>2016-12-27T12:42:56.000Z</time>
      </trkpt>
      <trkpt lat="43.36102" lon="2.72443">
        <ele>326</ele>
        <time>2016-12-27T12:42:58.000Z</time>
      </trkpt>
      <trkpt lat="43.36102" lon="2.72443">
        <ele>326</ele>
        <time>2016-12-27T12:43:00.000Z</time>
      </trkpt>
      <trkpt lat="43.36102" lon="2.72443">
        <ele>326</ele>
        <time>2016-12-27T12:43:02.000Z</time>
      </trkpt>
      <trkpt lat="43.36117" lon="2.72418">
        <ele>331</ele>
        <time>2016-12-27T12:43:10.000Z</time>
      </trkpt>
      <trkpt lat="43.36124" lon="2.72401">
        <ele>332</ele>
        <time>2016-12-27T12:43:12.000Z</time>
      </trkpt>
      <trkpt lat="43.36128" lon="2.72388">
        <ele>332</ele>
        <time>2016-12-27T12:43:14.000Z</time>
      </trkpt>
      <trkpt lat="43.3613" lon="2.72378">
        <ele>332</ele>
        <time>2016-12-27T12:43:16.000Z</time>
      </trkpt>
      <trkpt lat="43.3613" lon="2.72378">
        <ele>332</ele>
        <time>2016-12-27T12:43:18.000Z</time>
      </trkpt>
      <trkpt lat="43.3613" lon="2.72378">
        <ele>332</ele>
        <time>2016-12-27T12:43:20.000Z</time>
      </trkpt>
      <trkpt lat="43.36133" lon="2.72357">
        <ele>334</ele>
        <time>2016-12-27T12:43:24.000Z</time>
      </trkpt>
      <trkpt lat="43.36135" lon="2.72342">
        <ele>334</ele>
        <time>2016-12-27T12:43:26.000Z</time>
      </trkpt>
      <trkpt lat="43.36138" lon="2.7233">
        <ele>334</ele>
        <time>2016-12-27T12:43:28.000Z</time>
      </trkpt>
      <trkpt lat="43.36139" lon="2.72319">
        <ele>334</ele>
        <time>2016-12-27T12:43:30.000Z</time>
      </trkpt>
      <trkpt lat="43.3614" lon="2.72309">
        <ele>335</ele>
        <time>2016-12-27T12:43:32.000Z</time>
      </trkpt>
      <trkpt lat="43.3614" lon="2.72309">
        <ele>335</ele>
        <time>2016-12-27T12:43:34.000Z</time>
      </trkpt>
      <trkpt lat="43.3614" lon="2.72309">
        <ele>335</ele>
        <time>2016-12-27T12:43:36.000Z</time>
      </trkpt>
      <trkpt lat="43.36151" lon="2.72219">
        <ele>338</ele>
        <time>2016-12-27T12:43:50.000Z</time>
      </trkpt>
      <trkpt lat="43.36158" lon="2.72203">
        <ele>340</ele>
        <time>2016-12-27T12:43:54.000Z</time>
      </trkpt>
      <trkpt lat="43.36158" lon="2.72203">
        <ele>340</ele>
        <time>2016-12-27T12:43:56.000Z</time>
      </trkpt>
      <trkpt lat="43.36158" lon="2.72203">
        <ele>340</ele>
        <time>2016-12-27T12:43:58.000Z</time>
      </trkpt>
      <trkpt lat="43.36171" lon="2.72172">
        <ele>340</ele>
        <time>2016-12-27T12:44:02.000Z</time>
      </trkpt>
      <trkpt lat="43.36171" lon="2.72172">
        <ele>340</ele>
        <time>2016-12-27T12:44:04.000Z</time>
      </trkpt>
      <trkpt lat="43.36171" lon="2.72172">
        <ele>340</ele>
        <time>2016-12-27T12:44:06.000Z</time>
      </trkpt>
      <trkpt lat="43.36171" lon="2.72172">
        <ele>340</ele>
        <time>2016-12-27T12:44:08.000Z</time>
      </trkpt>
      <trkpt lat="43.36171" lon="2.72172">
        <ele>340</ele>
        <time>2016-12-27T12:44:10.000Z</time>
      </trkpt>
      <trkpt lat="43.36171" lon="2.72172">
        <ele>340</ele>
        <time>2016-12-27T12:44:12.000Z</time>
      </trkpt>
      <trkpt lat="43.36192" lon="2.72126">
        <ele>340</ele>
        <time>2016-12-27T12:44:16.000Z</time>
      </trkpt>
      <trkpt lat="43.36195" lon="2.72109">
        <ele>340</ele>
        <time>2016-12-27T12:44:20.000Z</time>
      </trkpt>
      <trkpt lat="43.362" lon="2.72093">
        <ele>342</ele>
        <time>2016-12-27T12:44:24.000Z</time>
      </trkpt>
      <trkpt lat="43.362" lon="2.72093">
        <ele>342</ele>
        <time>2016-12-27T12:44:26.000Z</time>
      </trkpt>
      <trkpt lat="43.362" lon="2.72093">
        <ele>342</ele>
        <time>2016-12-27T12:44:28.000Z</time>
      </trkpt>
      <trkpt lat="43.362" lon="2.72093">
        <ele>342</ele>
        <time>2016-12-27T12:44:30.000Z</time>
      </trkpt>
      <trkpt lat="43.362" lon="2.72093">
        <ele>342</ele>
        <time>2016-12-27T12:44:32.000Z</time>
      </trkpt>
      <trkpt lat="43.362" lon="2.72093">
        <ele>342</ele>
        <time>2016-12-27T12:44:34.000Z</time>
      </trkpt>
      <trkpt lat="43.36224" lon="2.72053">
        <ele>345</ele>
        <time>2016-12-27T12:44:36.000Z</time>
      </trkpt>
      <trkpt lat="43.36224" lon="2.72053">
        <ele>345</ele>
        <time>2016-12-27T12:44:38.000Z</time>
      </trkpt>
      <trkpt lat="43.36224" lon="2.72053">
        <ele>345</ele>
        <time>2016-12-27T12:44:40.000Z</time>
      </trkpt>
      <trkpt lat="43.36232" lon="2.7203">
        <ele>345</ele>
        <time>2016-12-27T12:44:42.000Z</time>
      </trkpt>
      <trkpt lat="43.36235" lon="2.72014">
        <ele>346</ele>
        <time>2016-12-27T12:44:46.000Z</time>
      </trkpt>
      <trkpt lat="43.36235" lon="2.72014">
        <ele>346</ele>
        <time>2016-12-27T12:44:48.000Z</time>
      </trkpt>
      <trkpt lat="43.36235" lon="2.72014">
        <ele>346</ele>
        <time>2016-12-27T12:44:50.000Z</time>
      </trkpt>
      <trkpt lat="43.36238" lon="2.72002">
        <ele>347</ele>
        <time>2016-12-27T12:44:52.000Z</time>
      </trkpt>
      <trkpt lat="43.36241" lon="2.71992">
        <ele>348</ele>
        <time>2016-12-27T12:44:54.000Z</time>
      </trkpt>
      <trkpt lat="43.36244" lon="2.71984">
        <ele>349</ele>
        <time>2016-12-27T12:44:56.000Z</time>
      </trkpt>
      <trkpt lat="43.36247" lon="2.71976">
        <ele>349</ele>
        <time>2016-12-27T12:44:58.000Z</time>
      </trkpt>
      <trkpt lat="43.36247" lon="2.71976">
        <ele>349</ele>
        <time>2016-12-27T12:45:00.000Z</time>
      </trkpt>
      <trkpt lat="43.36247" lon="2.71976">
        <ele>349</ele>
        <time>2016-12-27T12:45:08.000Z</time>
      </trkpt>
      <trkpt lat="43.36268" lon="2.71949">
        <ele>354</ele>
        <time>2016-12-27T12:45:14.000Z</time>
      </trkpt>
      <trkpt lat="43.36268" lon="2.71949">
        <ele>354</ele>
        <time>2016-12-27T12:45:16.000Z</time>
      </trkpt>
      <trkpt lat="43.36268" lon="2.71949">
        <ele>354</ele>
        <time>2016-12-27T12:45:18.000Z</time>
      </trkpt>
      <trkpt lat="43.36268" lon="2.71949">
        <ele>354</ele>
        <time>2016-12-27T12:45:20.000Z</time>
      </trkpt>
      <trkpt lat="43.36268" lon="2.71949">
        <ele>354</ele>
        <time>2016-12-27T12:45:22.000Z</time>
      </trkpt>
      <trkpt lat="43.36268" lon="2.71949">
        <ele>354</ele>
        <time>2016-12-27T12:45:24.000Z</time>
      </trkpt>
      <trkpt lat="43.36268" lon="2.71949">
        <ele>354</ele>
        <time>2016-12-27T12:45:26.000Z</time>
      </trkpt>
      <trkpt lat="43.36296" lon="2.71915">
        <ele>354</ele>
        <time>2016-12-27T12:45:30.000Z</time>
      </trkpt>
      <trkpt lat="43.36296" lon="2.71915">
        <ele>354</ele>
        <time>2016-12-27T12:45:32.000Z</time>
      </trkpt>
      <trkpt lat="43.36296" lon="2.71915">
        <ele>354</ele>
        <time>2016-12-27T12:45:34.000Z</time>
      </trkpt>
      <trkpt lat="43.36311" lon="2.71885">
        <ele>356</ele>
        <time>2016-12-27T12:45:36.000Z</time>
      </trkpt>
      <trkpt lat="43.36319" lon="2.71866">
        <ele>356</ele>
        <time>2016-12-27T12:45:38.000Z</time>
      </trkpt>
      <trkpt lat="43.36324" lon="2.71852">
        <ele>356</ele>
        <time>2016-12-27T12:45:40.000Z</time>
      </trkpt>
      <trkpt lat="43.36329" lon="2.71841">
        <ele>356</ele>
        <time>2016-12-27T12:45:42.000Z</time>
      </trkpt>
      <trkpt lat="43.36333" lon="2.71832">
        <ele>356</ele>
        <time>2016-12-27T12:45:44.000Z</time>
      </trkpt>
      <trkpt lat="43.36333" lon="2.71832">
        <ele>356</ele>
        <time>2016-12-27T12:45:46.000Z</time>
      </trkpt>
      <trkpt lat="43.36333" lon="2.71832">
        <ele>356</ele>
        <time>2016-12-27T12:45:48.000Z</time>
      </trkpt>
      <trkpt lat="43.36333" lon="2.71832">
        <ele>356</ele>
        <time>2016-12-27T12:45:50.000Z</time>
      </trkpt>
      <trkpt lat="43.36333" lon="2.71832">
        <ele>356</ele>
        <time>2016-12-27T12:45:52.000Z</time>
      </trkpt>
      <trkpt lat="43.36333" lon="2.71832">
        <ele>356</ele>
        <time>2016-12-27T12:45:58.000Z</time>
      </trkpt>
      <trkpt lat="43.36333" lon="2.71832">
        <ele>356</ele>
        <time>2016-12-27T12:46:00.000Z</time>
      </trkpt>
      <trkpt lat="43.36333" lon="2.71832">
        <ele>356</ele>
        <time>2016-12-27T12:46:02.000Z</time>
      </trkpt>
      <trkpt lat="43.36396" lon="2.71787">
        <ele>365</ele>
        <time>2016-12-27T12:46:06.000Z</time>
      </trkpt>
      <trkpt lat="43.36408" lon="2.71786">
        <ele>367</ele>
        <time>2016-12-27T12:46:10.000Z</time>
      </trkpt>
      <trkpt lat="43.36408" lon="2.71786">
        <ele>367</ele>
        <time>2016-12-27T12:46:12.000Z</time>
      </trkpt>
      <trkpt lat="43.36408" lon="2.71786">
        <ele>367</ele>
        <time>2016-12-27T12:46:14.000Z</time>
      </trkpt>
      <trkpt lat="43.36408" lon="2.71786">
        <ele>367</ele>
        <time>2016-12-27T12:46:16.000Z</time>
      </trkpt>
      <trkpt lat="43.36442" lon="2.71773">
        <ele>370</ele>
        <time>2016-12-27T12:46:22.000Z</time>
      </trkpt>
      <trkpt lat="43.36455" lon="2.71767">
        <ele>371</ele>
        <time>2016-12-27T12:46:26.000Z</time>
      </trkpt>
      <trkpt lat="43.36467" lon="2.71762">
        <ele>372</ele>
        <time>2016-12-27T12:46:30.000Z</time>
      </trkpt>
      <trkpt lat="43.36467" lon="2.71762">
        <ele>372</ele>
        <time>2016-12-27T12:46:32.000Z</time>
      </trkpt>
      <trkpt lat="43.36479" lon="2.71754">
        <ele>373</ele>
        <time>2016-12-27T12:46:34.000Z</time>
      </trkpt>
      <trkpt lat="43.36492" lon="2.71747">
        <ele>375</ele>
        <time>2016-12-27T12:46:38.000Z</time>
      </trkpt>
      <trkpt lat="43.36492" lon="2.71747">
        <ele>375</ele>
        <time>2016-12-27T12:46:40.000Z</time>
      </trkpt>
      <trkpt lat="43.36504" lon="2.7174">
        <ele>376</ele>
        <time>2016-12-27T12:46:42.000Z</time>
      </trkpt>
      <trkpt lat="43.36516" lon="2.7173">
        <ele>377</ele>
        <time>2016-12-27T12:46:46.000Z</time>
      </trkpt>
      <trkpt lat="43.36528" lon="2.71721">
        <ele>378</ele>
        <time>2016-12-27T12:46:50.000Z</time>
      </trkpt>
      <trkpt lat="43.36528" lon="2.71721">
        <ele>378</ele>
        <time>2016-12-27T12:46:52.000Z</time>
      </trkpt>
      <trkpt lat="43.36545" lon="2.71702">
        <ele>380</ele>
        <time>2016-12-27T12:46:56.000Z</time>
      </trkpt>
      <trkpt lat="43.36555" lon="2.71689">
        <ele>381</ele>
        <time>2016-12-27T12:47:00.000Z</time>
      </trkpt>
      <trkpt lat="43.36568" lon="2.71682">
        <ele>382</ele>
        <time>2016-12-27T12:47:04.000Z</time>
      </trkpt>
      <trkpt lat="43.36568" lon="2.71682">
        <ele>382</ele>
        <time>2016-12-27T12:47:06.000Z</time>
      </trkpt>
      <trkpt lat="43.36568" lon="2.71682">
        <ele>382</ele>
        <time>2016-12-27T12:47:08.000Z</time>
      </trkpt>
      <trkpt lat="43.36568" lon="2.71682">
        <ele>382</ele>
        <time>2016-12-27T12:47:10.000Z</time>
      </trkpt>
      <trkpt lat="43.36568" lon="2.71682">
        <ele>382</ele>
        <time>2016-12-27T12:47:12.000Z</time>
      </trkpt>
      <trkpt lat="43.36568" lon="2.71682">
        <ele>382</ele>
        <time>2016-12-27T12:47:14.000Z</time>
      </trkpt>
      <trkpt lat="43.36568" lon="2.71682">
        <ele>382</ele>
        <time>2016-12-27T12:47:16.000Z</time>
      </trkpt>
      <trkpt lat="43.36568" lon="2.71682">
        <ele>382</ele>
        <time>2016-12-27T12:47:18.000Z</time>
      </trkpt>
      <trkpt lat="43.36568" lon="2.71682">
        <ele>382</ele>
        <time>2016-12-27T12:47:20.000Z</time>
      </trkpt>
      <trkpt lat="43.36568" lon="2.71682">
        <ele>382</ele>
        <time>2016-12-27T12:47:28.000Z</time>
      </trkpt>
      <trkpt lat="43.36568" lon="2.71682">
        <ele>382</ele>
        <time>2016-12-27T12:47:30.000Z</time>
      </trkpt>
      <trkpt lat="43.36601" lon="2.71655">
        <ele>390</ele>
        <time>2016-12-27T12:47:34.000Z</time>
      </trkpt>
      <trkpt lat="43.36621" lon="2.71641">
        <ele>390</ele>
        <time>2016-12-27T12:47:36.000Z</time>
      </trkpt>
      <trkpt lat="43.36621" lon="2.71641">
        <ele>390</ele>
        <time>2016-12-27T12:47:38.000Z</time>
      </trkpt>
      <trkpt lat="43.36621" lon="2.71641">
        <ele>390</ele>
        <time>2016-12-27T12:47:40.000Z</time>
      </trkpt>
      <trkpt lat="43.36621" lon="2.71641">
        <ele>390</ele>
        <time>2016-12-27T12:47:42.000Z</time>
      </trkpt>
      <trkpt lat="43.36621" lon="2.71641">
        <ele>390</ele>
        <time>2016-12-27T12:47:48.000Z</time>
      </trkpt>
      <trkpt lat="43.36621" lon="2.71641">
        <ele>390</ele>
        <time>2016-12-27T12:47:50.000Z</time>
      </trkpt>
      <trkpt lat="43.36646" lon="2.71621">
        <ele>394</ele>
        <time>2016-12-27T12:47:54.000Z</time>
      </trkpt>
      <trkpt lat="43.36659" lon="2.71607">
        <ele>395</ele>
        <time>2016-12-27T12:47:56.000Z</time>
      </trkpt>
      <trkpt lat="43.36666" lon="2.71596">
        <ele>395</ele>
        <time>2016-12-27T12:47:58.000Z</time>
      </trkpt>
      <trkpt lat="43.36669" lon="2.71586">
        <ele>395</ele>
        <time>2016-12-27T12:48:00.000Z</time>
      </trkpt>
      <trkpt lat="43.3667" lon="2.71576">
        <ele>394</ele>
        <time>2016-12-27T12:48:02.000Z</time>
      </trkpt>
      <trkpt lat="43.36669" lon="2.71555">
        <ele>395</ele>
        <time>2016-12-27T12:48:04.000Z</time>
      </trkpt>
      <trkpt lat="43.36667" lon="2.71532">
        <ele>394</ele>
        <time>2016-12-27T12:48:08.000Z</time>
      </trkpt>
      <trkpt lat="43.36662" lon="2.71511">
        <ele>394</ele>
        <time>2016-12-27T12:48:12.000Z</time>
      </trkpt>
      <trkpt lat="43.36659" lon="2.71498">
        <ele>394</ele>
        <time>2016-12-27T12:48:14.000Z</time>
      </trkpt>
      <trkpt lat="43.36655" lon="2.71487">
        <ele>393</ele>
        <time>2016-12-27T12:48:16.000Z</time>
      </trkpt>
      <trkpt lat="43.36647" lon="2.71479">
        <ele>393</ele>
        <time>2016-12-27T12:48:18.000Z</time>
      </trkpt>
      <trkpt lat="43.36647" lon="2.71479">
        <ele>393</ele>
        <time>2016-12-27T12:48:20.000Z</time>
      </trkpt>
      <trkpt lat="43.36629" lon="2.71476">
        <ele>393</ele>
        <time>2016-12-27T12:48:22.000Z</time>
      </trkpt>
      <trkpt lat="43.36629" lon="2.71476">
        <ele>393</ele>
        <time>2016-12-27T12:48:24.000Z</time>
      </trkpt>
      <trkpt lat="43.36629" lon="2.71476">
        <ele>393</ele>
        <time>2016-12-27T12:48:26.000Z</time>
      </trkpt>
      <trkpt lat="43.36629" lon="2.71476">
        <ele>393</ele>
        <time>2016-12-27T12:48:28.000Z</time>
      </trkpt>
      <trkpt lat="43.36629" lon="2.71476">
        <ele>393</ele>
        <time>2016-12-27T12:48:30.000Z</time>
      </trkpt>
      <trkpt lat="43.36629" lon="2.71476">
        <ele>393</ele>
        <time>2016-12-27T12:48:32.000Z</time>
      </trkpt>
      <trkpt lat="43.36629" lon="2.71476">
        <ele>393</ele>
        <time>2016-12-27T12:48:34.000Z</time>
      </trkpt>
      <trkpt lat="43.36629" lon="2.71476">
        <ele>393</ele>
        <time>2016-12-27T12:48:36.000Z</time>
      </trkpt>
      <trkpt lat="43.36599" lon="2.71456">
        <ele>392</ele>
        <time>2016-12-27T12:48:40.000Z</time>
      </trkpt>
      <trkpt lat="43.36601" lon="2.71442">
        <ele>392</ele>
        <time>2016-12-27T12:48:44.000Z</time>
      </trkpt>
      <trkpt lat="43.36602" lon="2.71426">
        <ele>393</ele>
        <time>2016-12-27T12:48:48.000Z</time>
      </trkpt>
      <trkpt lat="43.36602" lon="2.71409">
        <ele>393</ele>
        <time>2016-12-27T12:48:52.000Z</time>
      </trkpt>
      <trkpt lat="43.36607" lon="2.71394">
        <ele>394</ele>
        <time>2016-12-27T12:48:56.000Z</time>
      </trkpt>
      <trkpt lat="43.36607" lon="2.71394">
        <ele>394</ele>
        <time>2016-12-27T12:48:58.000Z</time>
      </trkpt>
      <trkpt lat="43.36607" lon="2.71394">
        <ele>394</ele>
        <time>2016-12-27T12:49:00.000Z</time>
      </trkpt>
      <trkpt lat="43.36607" lon="2.71394">
        <ele>394</ele>
        <time>2016-12-27T12:49:02.000Z</time>
      </trkpt>
      <trkpt lat="43.36607" lon="2.71394">
        <ele>394</ele>
        <time>2016-12-27T12:49:04.000Z</time>
      </trkpt>
      <trkpt lat="43.36607" lon="2.71394">
        <ele>394</ele>
        <time>2016-12-27T12:49:06.000Z</time>
      </trkpt>
      <trkpt lat="43.36607" lon="2.71394">
        <ele>394</ele>
        <time>2016-12-27T12:49:08.000Z</time>
      </trkpt>
      <trkpt lat="43.36618" lon="2.7134">
        <ele>399</ele>
        <time>2016-12-27T12:49:14.000Z</time>
      </trkpt>
      <trkpt lat="43.36618" lon="2.7134">
        <ele>399</ele>
        <time>2016-12-27T12:49:16.000Z</time>
      </trkpt>
      <trkpt lat="43.36618" lon="2.7134">
        <ele>399</ele>
        <time>2016-12-27T12:49:18.000Z</time>
      </trkpt>
      <trkpt lat="43.36618" lon="2.7134">
        <ele>399</ele>
        <time>2016-12-27T12:49:20.000Z</time>
      </trkpt>
      <trkpt lat="43.36602" lon="2.71315">
        <ele>401</ele>
        <time>2016-12-27T12:49:24.000Z</time>
      </trkpt>
      <trkpt lat="43.36593" lon="2.71305">
        <ele>402</ele>
        <time>2016-12-27T12:49:28.000Z</time>
      </trkpt>
      <trkpt lat="43.36584" lon="2.71292">
        <ele>402</ele>
        <time>2016-12-27T12:49:32.000Z</time>
      </trkpt>
      <trkpt lat="43.36583" lon="2.71284">
        <ele>403</ele>
        <time>2016-12-27T12:49:36.000Z</time>
      </trkpt>
      <trkpt lat="43.36583" lon="2.71284">
        <ele>403</ele>
        <time>2016-12-27T12:49:38.000Z</time>
      </trkpt>
      <trkpt lat="43.36583" lon="2.71284">
        <ele>403</ele>
        <time>2016-12-27T12:49:40.000Z</time>
      </trkpt>
      <trkpt lat="43.36583" lon="2.71284">
        <ele>403</ele>
        <time>2016-12-27T12:49:42.000Z</time>
      </trkpt>
      <trkpt lat="43.36583" lon="2.71284">
        <ele>403</ele>
        <time>2016-12-27T12:49:44.000Z</time>
      </trkpt>
      <trkpt lat="43.36583" lon="2.71284">
        <ele>403</ele>
        <time>2016-12-27T12:49:46.000Z</time>
      </trkpt>
      <trkpt lat="43.36583" lon="2.71284">
        <ele>403</ele>
        <time>2016-12-27T12:49:48.000Z</time>
      </trkpt>
      <trkpt lat="43.36576" lon="2.71249">
        <ele>405</ele>
        <time>2016-12-27T12:49:52.000Z</time>
      </trkpt>
      <trkpt lat="43.36571" lon="2.71229">
        <ele>405</ele>
        <time>2016-12-27T12:49:54.000Z</time>
      </trkpt>
      <trkpt lat="43.36567" lon="2.71214">
        <ele>406</ele>
        <time>2016-12-27T12:49:56.000Z</time>
      </trkpt>
      <trkpt lat="43.36563" lon="2.71204">
        <ele>406</ele>
        <time>2016-12-27T12:49:58.000Z</time>
      </trkpt>
      <trkpt lat="43.36563" lon="2.71204">
        <ele>406</ele>
        <time>2016-12-27T12:50:00.000Z</time>
      </trkpt>
      <trkpt lat="43.36563" lon="2.71204">
        <ele>406</ele>
        <time>2016-12-27T12:50:02.000Z</time>
      </trkpt>
      <trkpt lat="43.36563" lon="2.71204">
        <ele>406</ele>
        <time>2016-12-27T12:50:04.000Z</time>
      </trkpt>
      <trkpt lat="43.36563" lon="2.71204">
        <ele>406</ele>
        <time>2016-12-27T12:50:06.000Z</time>
      </trkpt>
      <trkpt lat="43.36563" lon="2.71204">
        <ele>406</ele>
        <time>2016-12-27T12:50:08.000Z</time>
      </trkpt>
      <trkpt lat="43.36551" lon="2.71183">
        <ele>405</ele>
        <time>2016-12-27T12:50:12.000Z</time>
      </trkpt>
      <trkpt lat="43.36544" lon="2.7117">
        <ele>405</ele>
        <time>2016-12-27T12:50:14.000Z</time>
      </trkpt>
      <trkpt lat="43.36544" lon="2.7117">
        <ele>405</ele>
        <time>2016-12-27T12:50:16.000Z</time>
      </trkpt>
      <trkpt lat="43.36534" lon="2.71158">
        <ele>404</ele>
        <time>2016-12-27T12:50:20.000Z</time>
      </trkpt>
      <trkpt lat="43.36527" lon="2.7115">
        <ele>404</ele>
        <time>2016-12-27T12:50:22.000Z</time>
      </trkpt>
      <trkpt lat="43.36527" lon="2.7115">
        <ele>404</ele>
        <time>2016-12-27T12:50:24.000Z</time>
      </trkpt>
      <trkpt lat="43.36527" lon="2.7115">
        <ele>404</ele>
        <time>2016-12-27T12:50:26.000Z</time>
      </trkpt>
      <trkpt lat="43.36527" lon="2.7115">
        <ele>404</ele>
        <time>2016-12-27T12:50:32.000Z</time>
      </trkpt>
      <trkpt lat="43.36515" lon="2.71132">
        <ele>403</ele>
        <time>2016-12-27T12:50:36.000Z</time>
      </trkpt>
      <trkpt lat="43.36508" lon="2.7112">
        <ele>403</ele>
        <time>2016-12-27T12:50:38.000Z</time>
      </trkpt>
      <trkpt lat="43.36508" lon="2.7112">
        <ele>403</ele>
        <time>2016-12-27T12:50:40.000Z</time>
      </trkpt>
      <trkpt lat="43.36503" lon="2.71108">
        <ele>402</ele>
        <time>2016-12-27T12:50:42.000Z</time>
      </trkpt>
      <trkpt lat="43.365" lon="2.71098">
        <ele>402</ele>
        <time>2016-12-27T12:50:44.000Z</time>
      </trkpt>
      <trkpt lat="43.36498" lon="2.7109">
        <ele>401</ele>
        <time>2016-12-27T12:50:46.000Z</time>
      </trkpt>
      <trkpt lat="43.36498" lon="2.71083">
        <ele>401</ele>
        <time>2016-12-27T12:50:48.000Z</time>
      </trkpt>
      <trkpt lat="43.36499" lon="2.71076">
        <ele>401</ele>
        <time>2016-12-27T12:50:50.000Z</time>
      </trkpt>
      <trkpt lat="43.36503" lon="2.71064">
        <ele>401</ele>
        <time>2016-12-27T12:50:52.000Z</time>
      </trkpt>
      <trkpt lat="43.3651" lon="2.71055">
        <ele>401</ele>
        <time>2016-12-27T12:50:56.000Z</time>
      </trkpt>
      <trkpt lat="43.36518" lon="2.71047">
        <ele>402</ele>
        <time>2016-12-27T12:51:00.000Z</time>
      </trkpt>
      <trkpt lat="43.36526" lon="2.71039">
        <ele>402</ele>
        <time>2016-12-27T12:51:04.000Z</time>
      </trkpt>
      <trkpt lat="43.36526" lon="2.71039">
        <ele>402</ele>
        <time>2016-12-27T12:51:06.000Z</time>
      </trkpt>
      <trkpt lat="43.36532" lon="2.71029">
        <ele>402</ele>
        <time>2016-12-27T12:51:08.000Z</time>
      </trkpt>
      <trkpt lat="43.36532" lon="2.71029">
        <ele>402</ele>
        <time>2016-12-27T12:51:12.000Z</time>
      </trkpt>
      <trkpt lat="43.36532" lon="2.71029">
        <ele>402</ele>
        <time>2016-12-27T12:51:14.000Z</time>
      </trkpt>
      <trkpt lat="43.36532" lon="2.71029">
        <ele>402</ele>
        <time>2016-12-27T12:51:16.000Z</time>
      </trkpt>
      <trkpt lat="43.36532" lon="2.71029">
        <ele>402</ele>
        <time>2016-12-27T12:51:18.000Z</time>
      </trkpt>
      <trkpt lat="43.36532" lon="2.71029">
        <ele>402</ele>
        <time>2016-12-27T12:51:20.000Z</time>
      </trkpt>
      <trkpt lat="43.36532" lon="2.71029">
        <ele>402</ele>
        <time>2016-12-27T12:51:22.000Z</time>
      </trkpt>
      <trkpt lat="43.36562" lon="2.7099">
        <ele>404</ele>
        <time>2016-12-27T12:51:26.000Z</time>
      </trkpt>
      <trkpt lat="43.36569" lon="2.70983">
        <ele>405</ele>
        <time>2016-12-27T12:51:30.000Z</time>
      </trkpt>
      <trkpt lat="43.36576" lon="2.70974">
        <ele>407</ele>
        <time>2016-12-27T12:51:34.000Z</time>
      </trkpt>
      <trkpt lat="43.36583" lon="2.70966">
        <ele>409</ele>
        <time>2016-12-27T12:51:38.000Z</time>
      </trkpt>
      <trkpt lat="43.36591" lon="2.70957">
        <ele>409</ele>
        <time>2016-12-27T12:51:42.000Z</time>
      </trkpt>
      <trkpt lat="43.36591" lon="2.70957">
        <ele>409</ele>
        <time>2016-12-27T12:51:44.000Z</time>
      </trkpt>
      <trkpt lat="43.36591" lon="2.70957">
        <ele>409</ele>
        <time>2016-12-27T12:51:46.000Z</time>
      </trkpt>
      <trkpt lat="43.36591" lon="2.70957">
        <ele>409</ele>
        <time>2016-12-27T12:51:48.000Z</time>
      </trkpt>
      <trkpt lat="43.36603" lon="2.70938">
        <ele>410</ele>
        <time>2016-12-27T12:51:50.000Z</time>
      </trkpt>
      <trkpt lat="43.3661" lon="2.7093">
        <ele>411</ele>
        <time>2016-12-27T12:51:54.000Z</time>
      </trkpt>
      <trkpt lat="43.3661" lon="2.7093">
        <ele>411</ele>
        <time>2016-12-27T12:51:56.000Z</time>
      </trkpt>
      <trkpt lat="43.3661" lon="2.7093">
        <ele>411</ele>
        <time>2016-12-27T12:51:58.000Z</time>
      </trkpt>
      <trkpt lat="43.3661" lon="2.7093">
        <ele>411</ele>
        <time>2016-12-27T12:52:00.000Z</time>
      </trkpt>
      <trkpt lat="43.36629" lon="2.70911">
        <ele>414</ele>
        <time>2016-12-27T12:52:04.000Z</time>
      </trkpt>
      <trkpt lat="43.36635" lon="2.70901">
        <ele>414</ele>
        <time>2016-12-27T12:52:08.000Z</time>
      </trkpt>
      <trkpt lat="43.36635" lon="2.70901">
        <ele>414</ele>
        <time>2016-12-27T12:52:10.000Z</time>
      </trkpt>
      <trkpt lat="43.3664" lon="2.70888">
        <ele>415</ele>
        <time>2016-12-27T12:52:12.000Z</time>
      </trkpt>
      <trkpt lat="43.3664" lon="2.70888">
        <ele>415</ele>
        <time>2016-12-27T12:52:14.000Z</time>
      </trkpt>
      <trkpt lat="43.3664" lon="2.70888">
        <ele>415</ele>
        <time>2016-12-27T12:52:16.000Z</time>
      </trkpt>
      <trkpt lat="43.3664" lon="2.70888">
        <ele>415</ele>
        <time>2016-12-27T12:52:20.000Z</time>
      </trkpt>
      <trkpt lat="43.3664" lon="2.70888">
        <ele>415</ele>
        <time>2016-12-27T12:52:22.000Z</time>
      </trkpt>
      <trkpt lat="43.3664" lon="2.70888">
        <ele>415</ele>
        <time>2016-12-27T12:52:24.000Z</time>
      </trkpt>
      <trkpt lat="43.36648" lon="2.70867">
        <ele>418</ele>
        <time>2016-12-27T12:52:28.000Z</time>
      </trkpt>
      <trkpt lat="43.36653" lon="2.70854">
        <ele>418</ele>
        <time>2016-12-27T12:52:30.000Z</time>
      </trkpt>
      <trkpt lat="43.36657" lon="2.70845">
        <ele>419</ele>
        <time>2016-12-27T12:52:32.000Z</time>
      </trkpt>
      <trkpt lat="43.3666" lon="2.70837">
        <ele>419</ele>
        <time>2016-12-27T12:52:34.000Z</time>
      </trkpt>
      <trkpt lat="43.3666" lon="2.70837">
        <ele>419</ele>
        <time>2016-12-27T12:52:36.000Z</time>
      </trkpt>
      <trkpt lat="43.3666" lon="2.70837">
        <ele>419</ele>
        <time>2016-12-27T12:52:38.000Z</time>
      </trkpt>
      <trkpt lat="43.36664" lon="2.70825">
        <ele>419</ele>
        <time>2016-12-27T12:52:40.000Z</time>
      </trkpt>
      <trkpt lat="43.36667" lon="2.70817">
        <ele>419</ele>
        <time>2016-12-27T12:52:42.000Z</time>
      </trkpt>
      <trkpt lat="43.3667" lon="2.7081">
        <ele>419</ele>
        <time>2016-12-27T12:52:44.000Z</time>
      </trkpt>
      <trkpt lat="43.36672" lon="2.70804">
        <ele>419</ele>
        <time>2016-12-27T12:52:46.000Z</time>
      </trkpt>
      <trkpt lat="43.36672" lon="2.70804">
        <ele>419</ele>
        <time>2016-12-27T12:52:48.000Z</time>
      </trkpt>
      <trkpt lat="43.36676" lon="2.70795">
        <ele>420</ele>
        <time>2016-12-27T12:52:50.000Z</time>
      </trkpt>
      <trkpt lat="43.36679" lon="2.70788">
        <ele>420</ele>
        <time>2016-12-27T12:52:52.000Z</time>
      </trkpt>
      <trkpt lat="43.36681" lon="2.70782">
        <ele>421</ele>
        <time>2016-12-27T12:52:54.000Z</time>
      </trkpt>
      <trkpt lat="43.36684" lon="2.70776">
        <ele>421</ele>
        <time>2016-12-27T12:52:56.000Z</time>
      </trkpt>
      <trkpt lat="43.36687" lon="2.7077">
        <ele>422</ele>
        <time>2016-12-27T12:52:58.000Z</time>
      </trkpt>
      <trkpt lat="43.36691" lon="2.70759">
        <ele>421</ele>
        <time>2016-12-27T12:53:00.000Z</time>
      </trkpt>
      <trkpt lat="43.36691" lon="2.70759">
        <ele>421</ele>
        <time>2016-12-27T12:53:02.000Z</time>
      </trkpt>
      <trkpt lat="43.36691" lon="2.70759">
        <ele>421</ele>
        <time>2016-12-27T12:53:05.000Z</time>
      </trkpt>
      <trkpt lat="43.36691" lon="2.70759">
        <ele>421</ele>
        <time>2016-12-27T12:53:06.000Z</time>
      </trkpt>
      <trkpt lat="43.36702" lon="2.70732">
        <ele>423</ele>
        <time>2016-12-27T12:53:10.000Z</time>
      </trkpt>
      <trkpt lat="43.36702" lon="2.70732">
        <ele>423</ele>
        <time>2016-12-27T12:53:12.000Z</time>
      </trkpt>
      <trkpt lat="43.3671" lon="2.70726">
        <ele>425</ele>
        <time>2016-12-27T12:53:14.000Z</time>
      </trkpt>
      <trkpt lat="43.3671" lon="2.70726">
        <ele>425</ele>
        <time>2016-12-27T12:53:16.000Z</time>
      </trkpt>
      <trkpt lat="43.36732" lon="2.70726">
        <ele>430</ele>
        <time>2016-12-27T12:53:24.000Z</time>
      </trkpt>
      <trkpt lat="43.36743" lon="2.70723">
        <ele>432</ele>
        <time>2016-12-27T12:53:28.000Z</time>
      </trkpt>
      <trkpt lat="43.36743" lon="2.70723">
        <ele>432</ele>
        <time>2016-12-27T12:53:30.000Z</time>
      </trkpt>
      <trkpt lat="43.36752" lon="2.70723">
        <ele>434</ele>
        <time>2016-12-27T12:53:32.000Z</time>
      </trkpt>
      <trkpt lat="43.36752" lon="2.70723">
        <ele>434</ele>
        <time>2016-12-27T12:53:34.000Z</time>
      </trkpt>
      <trkpt lat="43.36752" lon="2.70723">
        <ele>434</ele>
        <time>2016-12-27T12:53:36.000Z</time>
      </trkpt>
      <trkpt lat="43.36752" lon="2.70723">
        <ele>434</ele>
        <time>2016-12-27T12:53:38.000Z</time>
      </trkpt>
      <trkpt lat="43.36752" lon="2.70723">
        <ele>434</ele>
        <time>2016-12-27T12:53:40.000Z</time>
      </trkpt>
      <trkpt lat="43.36779" lon="2.7073">
        <ele>439</ele>
        <time>2016-12-27T12:53:44.000Z</time>
      </trkpt>
      <trkpt lat="43.3679" lon="2.70735">
        <ele>440</ele>
        <time>2016-12-27T12:53:48.000Z</time>
      </trkpt>
      <trkpt lat="43.36804" lon="2.70737">
        <ele>441</ele>
        <time>2016-12-27T12:53:52.000Z</time>
      </trkpt>
      <trkpt lat="43.36804" lon="2.70737">
        <ele>441</ele>
        <time>2016-12-27T12:53:54.000Z</time>
      </trkpt>
      <trkpt lat="43.36814" lon="2.70738">
        <ele>442</ele>
        <time>2016-12-27T12:53:56.000Z</time>
      </trkpt>
      <trkpt lat="43.36826" lon="2.70737">
        <ele>444</ele>
        <time>2016-12-27T12:54:00.000Z</time>
      </trkpt>
      <trkpt lat="43.36835" lon="2.70742">
        <ele>446</ele>
        <time>2016-12-27T12:54:04.000Z</time>
      </trkpt>
      <trkpt lat="43.36835" lon="2.70742">
        <ele>446</ele>
        <time>2016-12-27T12:54:06.000Z</time>
      </trkpt>
      <trkpt lat="43.36835" lon="2.70742">
        <ele>446</ele>
        <time>2016-12-27T12:54:08.000Z</time>
      </trkpt>
      <trkpt lat="43.36856" lon="2.70743">
        <ele>449</ele>
        <time>2016-12-27T12:54:12.000Z</time>
      </trkpt>
      <trkpt lat="43.36867" lon="2.70739">
        <ele>450</ele>
        <time>2016-12-27T12:54:16.000Z</time>
      </trkpt>
      <trkpt lat="43.36867" lon="2.70739">
        <ele>450</ele>
        <time>2016-12-27T12:54:18.000Z</time>
      </trkpt>
      <trkpt lat="43.36867" lon="2.70739">
        <ele>450</ele>
        <time>2016-12-27T12:54:20.000Z</time>
      </trkpt>
      <trkpt lat="43.36867" lon="2.70739">
        <ele>450</ele>
        <time>2016-12-27T12:54:22.000Z</time>
      </trkpt>
      <trkpt lat="43.36867" lon="2.70739">
        <ele>450</ele>
        <time>2016-12-27T12:54:24.000Z</time>
      </trkpt>
      <trkpt lat="43.36866" lon="2.70731">
        <ele>449</ele>
        <time>2016-12-27T12:54:28.000Z</time>
      </trkpt>
      <trkpt lat="43.36864" lon="2.70724">
        <ele>449</ele>
        <time>2016-12-27T12:54:30.000Z</time>
      </trkpt>
      <trkpt lat="43.3686" lon="2.70718">
        <ele>448</ele>
        <time>2016-12-27T12:54:32.000Z</time>
      </trkpt>
      <trkpt lat="43.36856" lon="2.70712">
        <ele>448</ele>
        <time>2016-12-27T12:54:34.000Z</time>
      </trkpt>
      <trkpt lat="43.36852" lon="2.70705">
        <ele>448</ele>
        <time>2016-12-27T12:54:36.000Z</time>
      </trkpt>
      <trkpt lat="43.36842" lon="2.70692">
        <ele>447</ele>
        <time>2016-12-27T12:54:38.000Z</time>
      </trkpt>
      <trkpt lat="43.36842" lon="2.70692">
        <ele>447</ele>
        <time>2016-12-27T12:54:40.000Z</time>
      </trkpt>
      <trkpt lat="43.36842" lon="2.70692">
        <ele>447</ele>
        <time>2016-12-27T12:54:42.000Z</time>
      </trkpt>
      <trkpt lat="43.36842" lon="2.70692">
        <ele>447</ele>
        <time>2016-12-27T12:54:44.000Z</time>
      </trkpt>
      <trkpt lat="43.36842" lon="2.70692">
        <ele>447</ele>
        <time>2016-12-27T12:54:46.000Z</time>
      </trkpt>
      <trkpt lat="43.3681" lon="2.70658">
        <ele>444</ele>
        <time>2016-12-27T12:54:52.000Z</time>
      </trkpt>
      <trkpt lat="43.3681" lon="2.70658">
        <ele>444</ele>
        <time>2016-12-27T12:54:54.000Z</time>
      </trkpt>
      <trkpt lat="43.3681" lon="2.70658">
        <ele>444</ele>
        <time>2016-12-27T12:54:56.000Z</time>
      </trkpt>
      <trkpt lat="43.3681" lon="2.70658">
        <ele>444</ele>
        <time>2016-12-27T12:54:58.000Z</time>
      </trkpt>
      <trkpt lat="43.3681" lon="2.70658">
        <ele>444</ele>
        <time>2016-12-27T12:55:00.000Z</time>
      </trkpt>
      <trkpt lat="43.3681" lon="2.70658">
        <ele>444</ele>
        <time>2016-12-27T12:55:02.000Z</time>
      </trkpt>
      <trkpt lat="43.36795" lon="2.70622">
        <ele>441</ele>
        <time>2016-12-27T12:55:06.000Z</time>
      </trkpt>
      <trkpt lat="43.36795" lon="2.70622">
        <ele>441</ele>
        <time>2016-12-27T12:55:10.000Z</time>
      </trkpt>
      <trkpt lat="43.36795" lon="2.70622">
        <ele>441</ele>
        <time>2016-12-27T12:55:12.000Z</time>
      </trkpt>
      <trkpt lat="43.36782" lon="2.70606">
        <ele>440</ele>
        <time>2016-12-27T12:55:14.000Z</time>
      </trkpt>
      <trkpt lat="43.36773" lon="2.70596">
        <ele>439</ele>
        <time>2016-12-27T12:55:18.000Z</time>
      </trkpt>
      <trkpt lat="43.3676" lon="2.7059">
        <ele>438</ele>
        <time>2016-12-27T12:55:22.000Z</time>
      </trkpt>
      <trkpt lat="43.3676" lon="2.7059">
        <ele>438</ele>
        <time>2016-12-27T12:55:24.000Z</time>
      </trkpt>
      <trkpt lat="43.3676" lon="2.7059">
        <ele>438</ele>
        <time>2016-12-27T12:55:27.000Z</time>
      </trkpt>
      <trkpt lat="43.3676" lon="2.7059">
        <ele>438</ele>
        <time>2016-12-27T12:55:28.000Z</time>
      </trkpt>
      <trkpt lat="43.3676" lon="2.7059">
        <ele>438</ele>
        <time>2016-12-27T12:55:36.000Z</time>
      </trkpt>
      <trkpt lat="43.36725" lon="2.70551">
        <ele>431</ele>
        <time>2016-12-27T12:55:40.000Z</time>
      </trkpt>
      <trkpt lat="43.36719" lon="2.70542">
        <ele>430</ele>
        <time>2016-12-27T12:55:44.000Z</time>
      </trkpt>
      <trkpt lat="43.36719" lon="2.70542">
        <ele>430</ele>
        <time>2016-12-27T12:55:46.000Z</time>
      </trkpt>
      <trkpt lat="43.36719" lon="2.70542">
        <ele>430</ele>
        <time>2016-12-27T12:55:48.000Z</time>
      </trkpt>
      <trkpt lat="43.3673" lon="2.70526">
        <ele>426</ele>
        <time>2016-12-27T12:55:50.000Z</time>
      </trkpt>
      <trkpt lat="43.36743" lon="2.70518">
        <ele>425</ele>
        <time>2016-12-27T12:55:54.000Z</time>
      </trkpt>
      <trkpt lat="43.36743" lon="2.70518">
        <ele>425</ele>
        <time>2016-12-27T12:55:56.000Z</time>
      </trkpt>
      <trkpt lat="43.36748" lon="2.70516">
        <ele>423</ele>
        <time>2016-12-27T12:55:58.000Z</time>
      </trkpt>
      <trkpt lat="43.36748" lon="2.70516">
        <ele>423</ele>
        <time>2016-12-27T12:56:00.000Z</time>
      </trkpt>
      <trkpt lat="43.36748" lon="2.70516">
        <ele>423</ele>
        <time>2016-12-27T12:56:02.000Z</time>
      </trkpt>
      <trkpt lat="43.36748" lon="2.70516">
        <ele>423</ele>
        <time>2016-12-27T12:56:04.000Z</time>
      </trkpt>
      <trkpt lat="43.36748" lon="2.70516">
        <ele>423</ele>
        <time>2016-12-27T12:56:06.000Z</time>
      </trkpt>
      <trkpt lat="43.36765" lon="2.70515">
        <ele>419</ele>
        <time>2016-12-27T12:56:10.000Z</time>
      </trkpt>
      <trkpt lat="43.36777" lon="2.70514">
        <ele>419</ele>
        <time>2016-12-27T12:56:12.000Z</time>
      </trkpt>
      <trkpt lat="43.36786" lon="2.70513">
        <ele>418</ele>
        <time>2016-12-27T12:56:14.000Z</time>
      </trkpt>
      <trkpt lat="43.36794" lon="2.7051">
        <ele>418</ele>
        <time>2016-12-27T12:56:16.000Z</time>
      </trkpt>
      <trkpt lat="43.368" lon="2.70506">
        <ele>417</ele>
        <time>2016-12-27T12:56:18.000Z</time>
      </trkpt>
      <trkpt lat="43.3681" lon="2.70496">
        <ele>417</ele>
        <time>2016-12-27T12:56:20.000Z</time>
      </trkpt>
      <trkpt lat="43.36824" lon="2.70486">
        <ele>416</ele>
        <time>2016-12-27T12:56:24.000Z</time>
      </trkpt>
      <trkpt lat="43.36833" lon="2.70484">
        <ele>415</ele>
        <time>2016-12-27T12:56:26.000Z</time>
      </trkpt>
      <trkpt lat="43.36848" lon="2.70483">
        <ele>415</ele>
        <time>2016-12-27T12:56:30.000Z</time>
      </trkpt>
      <trkpt lat="43.36848" lon="2.70483">
        <ele>415</ele>
        <time>2016-12-27T12:56:32.000Z</time>
      </trkpt>
      <trkpt lat="43.36848" lon="2.70483">
        <ele>415</ele>
        <time>2016-12-27T12:56:34.000Z</time>
      </trkpt>
      <trkpt lat="43.36848" lon="2.70483">
        <ele>415</ele>
        <time>2016-12-27T12:56:36.000Z</time>
      </trkpt>
      <trkpt lat="43.36848" lon="2.70483">
        <ele>415</ele>
        <time>2016-12-27T12:56:38.000Z</time>
      </trkpt>
      <trkpt lat="43.36848" lon="2.70483">
        <ele>415</ele>
        <time>2016-12-27T12:56:48.000Z</time>
      </trkpt>
      <trkpt lat="43.36909" lon="2.70487">
        <ele>420</ele>
        <time>2016-12-27T12:56:54.000Z</time>
      </trkpt>
      <trkpt lat="43.36909" lon="2.70487">
        <ele>420</ele>
        <time>2016-12-27T12:56:56.000Z</time>
      </trkpt>
      <trkpt lat="43.36909" lon="2.70487">
        <ele>420</ele>
        <time>2016-12-27T12:56:58.000Z</time>
      </trkpt>
      <trkpt lat="43.36909" lon="2.70487">
        <ele>420</ele>
        <time>2016-12-27T12:57:00.000Z</time>
      </trkpt>
      <trkpt lat="43.36935" lon="2.70485">
        <ele>420</ele>
        <time>2016-12-27T12:57:04.000Z</time>
      </trkpt>
      <trkpt lat="43.36945" lon="2.70478">
        <ele>421</ele>
        <time>2016-12-27T12:57:08.000Z</time>
      </trkpt>
      <trkpt lat="43.36954" lon="2.70471">
        <ele>422</ele>
        <time>2016-12-27T12:57:12.000Z</time>
      </trkpt>
      <trkpt lat="43.36954" lon="2.70471">
        <ele>422</ele>
        <time>2016-12-27T12:57:14.000Z</time>
      </trkpt>
      <trkpt lat="43.36966" lon="2.70469">
        <ele>424</ele>
        <time>2016-12-27T12:57:16.000Z</time>
      </trkpt>
      <trkpt lat="43.36966" lon="2.70469">
        <ele>424</ele>
        <time>2016-12-27T12:57:19.000Z</time>
      </trkpt>
      <trkpt lat="43.36966" lon="2.70469">
        <ele>424</ele>
        <time>2016-12-27T12:57:20.000Z</time>
      </trkpt>
      <trkpt lat="43.36966" lon="2.70469">
        <ele>424</ele>
        <time>2016-12-27T12:57:22.000Z</time>
      </trkpt>
      <trkpt lat="43.36988" lon="2.70462">
        <ele>426</ele>
        <time>2016-12-27T12:57:26.000Z</time>
      </trkpt>
      <trkpt lat="43.36997" lon="2.70452">
        <ele>426</ele>
        <time>2016-12-27T12:57:30.000Z</time>
      </trkpt>
      <trkpt lat="43.36997" lon="2.70452">
        <ele>426</ele>
        <time>2016-12-27T12:57:32.000Z</time>
      </trkpt>
      <trkpt lat="43.36997" lon="2.70452">
        <ele>426</ele>
        <time>2016-12-27T12:57:34.000Z</time>
      </trkpt>
      <trkpt lat="43.36997" lon="2.70452">
        <ele>426</ele>
        <time>2016-12-27T12:57:36.000Z</time>
      </trkpt>
      <trkpt lat="43.36997" lon="2.70452">
        <ele>426</ele>
        <time>2016-12-27T12:57:38.000Z</time>
      </trkpt>
      <trkpt lat="43.36997" lon="2.70452">
        <ele>426</ele>
        <time>2016-12-27T12:57:40.000Z</time>
      </trkpt>
      <trkpt lat="43.37009" lon="2.70438">
        <ele>427</ele>
        <time>2016-12-27T12:57:45.000Z</time>
      </trkpt>
      <trkpt lat="43.37017" lon="2.70428">
        <ele>427</ele>
        <time>2016-12-27T12:57:46.000Z</time>
      </trkpt>
      <trkpt lat="43.37024" lon="2.70419">
        <ele>427</ele>
        <time>2016-12-27T12:57:48.000Z</time>
      </trkpt>
      <trkpt lat="43.3703" lon="2.70412">
        <ele>428</ele>
        <time>2016-12-27T12:57:50.000Z</time>
      </trkpt>
      <trkpt lat="43.37033" lon="2.70405">
        <ele>428</ele>
        <time>2016-12-27T12:57:52.000Z</time>
      </trkpt>
      <trkpt lat="43.37033" lon="2.70405">
        <ele>428</ele>
        <time>2016-12-27T12:57:54.000Z</time>
      </trkpt>
      <trkpt lat="43.37033" lon="2.70405">
        <ele>428</ele>
        <time>2016-12-27T12:57:56.000Z</time>
      </trkpt>
      <trkpt lat="43.37048" lon="2.70371">
        <ele>429</ele>
        <time>2016-12-27T12:58:00.000Z</time>
      </trkpt>
      <trkpt lat="43.37056" lon="2.70362">
        <ele>430</ele>
        <time>2016-12-27T12:58:04.000Z</time>
      </trkpt>
      <trkpt lat="43.37056" lon="2.70362">
        <ele>430</ele>
        <time>2016-12-27T12:58:06.000Z</time>
      </trkpt>
      <trkpt lat="43.37072" lon="2.7036">
        <ele>432</ele>
        <time>2016-12-27T12:58:12.000Z</time>
      </trkpt>
      <trkpt lat="43.37072" lon="2.7036">
        <ele>432</ele>
        <time>2016-12-27T12:58:14.000Z</time>
      </trkpt>
      <trkpt lat="43.37072" lon="2.7036">
        <ele>432</ele>
        <time>2016-12-27T12:58:16.000Z</time>
      </trkpt>
      <trkpt lat="43.37072" lon="2.7036">
        <ele>432</ele>
        <time>2016-12-27T12:58:18.000Z</time>
      </trkpt>
      <trkpt lat="43.37089" lon="2.70355">
        <ele>434</ele>
        <time>2016-12-27T12:58:20.000Z</time>
      </trkpt>
      <trkpt lat="43.37099" lon="2.70352">
        <ele>435</ele>
        <time>2016-12-27T12:58:24.000Z</time>
      </trkpt>
      <trkpt lat="43.37099" lon="2.70352">
        <ele>435</ele>
        <time>2016-12-27T12:58:26.000Z</time>
      </trkpt>
      <trkpt lat="43.37109" lon="2.70347">
        <ele>437</ele>
        <time>2016-12-27T12:58:28.000Z</time>
      </trkpt>
      <trkpt lat="43.37123" lon="2.7034">
        <ele>438</ele>
        <time>2016-12-27T12:58:32.000Z</time>
      </trkpt>
      <trkpt lat="43.37133" lon="2.70331">
        <ele>440</ele>
        <time>2016-12-27T12:58:36.000Z</time>
      </trkpt>
      <trkpt lat="43.37133" lon="2.70331">
        <ele>440</ele>
        <time>2016-12-27T12:58:38.000Z</time>
      </trkpt>
      <trkpt lat="43.37133" lon="2.70331">
        <ele>440</ele>
        <time>2016-12-27T12:58:40.000Z</time>
      </trkpt>
      <trkpt lat="43.37133" lon="2.70331">
        <ele>440</ele>
        <time>2016-12-27T12:58:42.000Z</time>
      </trkpt>
      <trkpt lat="43.37133" lon="2.70331">
        <ele>440</ele>
        <time>2016-12-27T12:58:44.000Z</time>
      </trkpt>
      <trkpt lat="43.37151" lon="2.70302">
        <ele>444</ele>
        <time>2016-12-27T12:58:48.000Z</time>
      </trkpt>
      <trkpt lat="43.37151" lon="2.70302">
        <ele>444</ele>
        <time>2016-12-27T12:58:52.000Z</time>
      </trkpt>
      <trkpt lat="43.37151" lon="2.70302">
        <ele>444</ele>
        <time>2016-12-27T12:58:54.000Z</time>
      </trkpt>
      <trkpt lat="43.37151" lon="2.70302">
        <ele>444</ele>
        <time>2016-12-27T12:59:00.000Z</time>
      </trkpt>
      <trkpt lat="43.37151" lon="2.70302">
        <ele>444</ele>
        <time>2016-12-27T12:59:02.000Z</time>
      </trkpt>
      <trkpt lat="43.37184" lon="2.70285">
        <ele>456</ele>
        <time>2016-12-27T12:59:06.000Z</time>
      </trkpt>
      <trkpt lat="43.37184" lon="2.70285">
        <ele>456</ele>
        <time>2016-12-27T12:59:10.000Z</time>
      </trkpt>
      <trkpt lat="43.37184" lon="2.70285">
        <ele>456</ele>
        <time>2016-12-27T12:59:12.000Z</time>
      </trkpt>
      <trkpt lat="43.37184" lon="2.70285">
        <ele>456</ele>
        <time>2016-12-27T12:59:14.000Z</time>
      </trkpt>
      <trkpt lat="43.37195" lon="2.70282">
        <ele>463</ele>
        <time>2016-12-27T12:59:16.000Z</time>
      </trkpt>
      <trkpt lat="43.37204" lon="2.70281">
        <ele>464</ele>
        <time>2016-12-27T12:59:18.000Z</time>
      </trkpt>
      <trkpt lat="43.37211" lon="2.70279">
        <ele>466</ele>
        <time>2016-12-27T12:59:20.000Z</time>
      </trkpt>
      <trkpt lat="43.37217" lon="2.70278">
        <ele>467</ele>
        <time>2016-12-27T12:59:22.000Z</time>
      </trkpt>
      <trkpt lat="43.37223" lon="2.70276">
        <ele>468</ele>
        <time>2016-12-27T12:59:24.000Z</time>
      </trkpt>
      <trkpt lat="43.37233" lon="2.70273">
        <ele>469</ele>
        <time>2016-12-27T12:59:26.000Z</time>
      </trkpt>
      <trkpt lat="43.37243" lon="2.70269">
        <ele>471</ele>
        <time>2016-12-27T12:59:30.000Z</time>
      </trkpt>
      <trkpt lat="43.37243" lon="2.70269">
        <ele>471</ele>
        <time>2016-12-27T12:59:32.000Z</time>
      </trkpt>
      <trkpt lat="43.37243" lon="2.70269">
        <ele>471</ele>
        <time>2016-12-27T12:59:34.000Z</time>
      </trkpt>
      <trkpt lat="43.37243" lon="2.70269">
        <ele>471</ele>
        <time>2016-12-27T12:59:36.000Z</time>
      </trkpt>
      <trkpt lat="43.37243" lon="2.70269">
        <ele>471</ele>
        <time>2016-12-27T12:59:38.000Z</time>
      </trkpt>
      <trkpt lat="43.37243" lon="2.70269">
        <ele>471</ele>
        <time>2016-12-27T12:59:40.000Z</time>
      </trkpt>
      <trkpt lat="43.37243" lon="2.70269">
        <ele>471</ele>
        <time>2016-12-27T12:59:42.000Z</time>
      </trkpt>
      <trkpt lat="43.37243" lon="2.70269">
        <ele>471</ele>
        <time>2016-12-27T12:59:44.000Z</time>
      </trkpt>
      <trkpt lat="43.37243" lon="2.70269">
        <ele>471</ele>
        <time>2016-12-27T12:59:48.000Z</time>
      </trkpt>
      <trkpt lat="43.37243" lon="2.70269">
        <ele>471</ele>
        <time>2016-12-27T12:59:50.000Z</time>
      </trkpt>
      <trkpt lat="43.37243" lon="2.70269">
        <ele>471</ele>
        <time>2016-12-27T12:59:52.000Z</time>
      </trkpt>
      <trkpt lat="43.37292" lon="2.70261">
        <ele>480</ele>
        <time>2016-12-27T12:59:56.000Z</time>
      </trkpt>
      <trkpt lat="43.37302" lon="2.70261">
        <ele>482</ele>
        <time>2016-12-27T13:00:00.000Z</time>
      </trkpt>
      <trkpt lat="43.37302" lon="2.70261">
        <ele>482</ele>
        <time>2016-12-27T13:00:02.000Z</time>
      </trkpt>
      <trkpt lat="43.37312" lon="2.70261">
        <ele>483</ele>
        <time>2016-12-27T13:00:04.000Z</time>
      </trkpt>
      <trkpt lat="43.37312" lon="2.70261">
        <ele>483</ele>
        <time>2016-12-27T13:00:08.000Z</time>
      </trkpt>
      <trkpt lat="43.37312" lon="2.70261">
        <ele>483</ele>
        <time>2016-12-27T13:00:10.000Z</time>
      </trkpt>
      <trkpt lat="43.37312" lon="2.70261">
        <ele>483</ele>
        <time>2016-12-27T13:00:12.000Z</time>
      </trkpt>
      <trkpt lat="43.37341" lon="2.70252">
        <ele>490</ele>
        <time>2016-12-27T13:00:18.000Z</time>
      </trkpt>
      <trkpt lat="43.3735" lon="2.70248">
        <ele>492</ele>
        <time>2016-12-27T13:00:22.000Z</time>
      </trkpt>
      <trkpt lat="43.37358" lon="2.70252">
        <ele>495</ele>
        <time>2016-12-27T13:00:26.000Z</time>
      </trkpt>
      <trkpt lat="43.37358" lon="2.70252">
        <ele>495</ele>
        <time>2016-12-27T13:00:28.000Z</time>
      </trkpt>
      <trkpt lat="43.37358" lon="2.70252">
        <ele>495</ele>
        <time>2016-12-27T13:00:30.000Z</time>
      </trkpt>
      <trkpt lat="43.37358" lon="2.70252">
        <ele>495</ele>
        <time>2016-12-27T13:00:32.000Z</time>
      </trkpt>
      <trkpt lat="43.37358" lon="2.70252">
        <ele>495</ele>
        <time>2016-12-27T13:00:34.000Z</time>
      </trkpt>
      <trkpt lat="43.37358" lon="2.70252">
        <ele>495</ele>
        <time>2016-12-27T13:00:36.000Z</time>
      </trkpt>
      <trkpt lat="43.37358" lon="2.70252">
        <ele>495</ele>
        <time>2016-12-27T13:00:38.000Z</time>
      </trkpt>
      <trkpt lat="43.37376" lon="2.70228">
        <ele>502</ele>
        <time>2016-12-27T13:00:40.000Z</time>
      </trkpt>
      <trkpt lat="43.37379" lon="2.70221">
        <ele>504</ele>
        <time>2016-12-27T13:00:44.000Z</time>
      </trkpt>
      <trkpt lat="43.37383" lon="2.70215">
        <ele>505</ele>
        <time>2016-12-27T13:00:46.000Z</time>
      </trkpt>
      <trkpt lat="43.37386" lon="2.7021">
        <ele>505</ele>
        <time>2016-12-27T13:00:48.000Z</time>
      </trkpt>
      <trkpt lat="43.37391" lon="2.70204">
        <ele>506</ele>
        <time>2016-12-27T13:00:50.000Z</time>
      </trkpt>
      <trkpt lat="43.37391" lon="2.70204">
        <ele>506</ele>
        <time>2016-12-27T13:00:52.000Z</time>
      </trkpt>
      <trkpt lat="43.37391" lon="2.70204">
        <ele>506</ele>
        <time>2016-12-27T13:00:54.000Z</time>
      </trkpt>
      <trkpt lat="43.37391" lon="2.70204">
        <ele>506</ele>
        <time>2016-12-27T13:00:56.000Z</time>
      </trkpt>
      <trkpt lat="43.37391" lon="2.70204">
        <ele>506</ele>
        <time>2016-12-27T13:00:58.000Z</time>
      </trkpt>
      <trkpt lat="43.37399" lon="2.70183">
        <ele>511</ele>
        <time>2016-12-27T13:01:02.000Z</time>
      </trkpt>
      <trkpt lat="43.37404" lon="2.70169">
        <ele>512</ele>
        <time>2016-12-27T13:01:04.000Z</time>
      </trkpt>
      <trkpt lat="43.37407" lon="2.7016">
        <ele>513</ele>
        <time>2016-12-27T13:01:06.000Z</time>
      </trkpt>
      <trkpt lat="43.37409" lon="2.70151">
        <ele>514</ele>
        <time>2016-12-27T13:01:08.000Z</time>
      </trkpt>
      <trkpt lat="43.37409" lon="2.70151">
        <ele>514</ele>
        <time>2016-12-27T13:01:10.000Z</time>
      </trkpt>
      <trkpt lat="43.37409" lon="2.70151">
        <ele>514</ele>
        <time>2016-12-27T13:01:12.000Z</time>
      </trkpt>
      <trkpt lat="43.37405" lon="2.70138">
        <ele>515</ele>
        <time>2016-12-27T13:01:16.000Z</time>
      </trkpt>
      <trkpt lat="43.374" lon="2.70131">
        <ele>515</ele>
        <time>2016-12-27T13:01:18.000Z</time>
      </trkpt>
      <trkpt lat="43.37396" lon="2.70126">
        <ele>515</ele>
        <time>2016-12-27T13:01:20.000Z</time>
      </trkpt>
      <trkpt lat="43.37392" lon="2.70121">
        <ele>516</ele>
        <time>2016-12-27T13:01:22.000Z</time>
      </trkpt>
      <trkpt lat="43.37389" lon="2.70115">
        <ele>516</ele>
        <time>2016-12-27T13:01:24.000Z</time>
      </trkpt>
      <trkpt lat="43.37386" lon="2.70103">
        <ele>517</ele>
        <time>2016-12-27T13:01:26.000Z</time>
      </trkpt>
      <trkpt lat="43.37386" lon="2.70103">
        <ele>517</ele>
        <time>2016-12-27T13:01:28.000Z</time>
      </trkpt>
      <trkpt lat="43.37393" lon="2.70082">
        <ele>517</ele>
        <time>2016-12-27T13:01:32.000Z</time>
      </trkpt>
      <trkpt lat="43.37399" lon="2.70067">
        <ele>518</ele>
        <time>2016-12-27T13:01:36.000Z</time>
      </trkpt>
      <trkpt lat="43.37407" lon="2.70053">
        <ele>518</ele>
        <time>2016-12-27T13:01:40.000Z</time>
      </trkpt>
      <trkpt lat="43.37415" lon="2.70044">
        <ele>519</ele>
        <time>2016-12-27T13:01:44.000Z</time>
      </trkpt>
      <trkpt lat="43.37423" lon="2.70033">
        <ele>518</ele>
        <time>2016-12-27T13:01:48.000Z</time>
      </trkpt>
      <trkpt lat="43.37423" lon="2.70033">
        <ele>518</ele>
        <time>2016-12-27T13:01:50.000Z</time>
      </trkpt>
      <trkpt lat="43.37432" lon="2.70021">
        <ele>518</ele>
        <time>2016-12-27T13:01:52.000Z</time>
      </trkpt>
      <trkpt lat="43.37442" lon="2.70009">
        <ele>517</ele>
        <time>2016-12-27T13:01:56.000Z</time>
      </trkpt>
      <trkpt lat="43.3745" lon="2.69993">
        <ele>516</ele>
        <time>2016-12-27T13:02:00.000Z</time>
      </trkpt>
      <trkpt lat="43.3745" lon="2.69993">
        <ele>516</ele>
        <time>2016-12-27T13:02:02.000Z</time>
      </trkpt>
      <trkpt lat="43.37458" lon="2.69977">
        <ele>516</ele>
        <time>2016-12-27T13:02:04.000Z</time>
      </trkpt>
      <trkpt lat="43.37466" lon="2.69962">
        <ele>516</ele>
        <time>2016-12-27T13:02:08.000Z</time>
      </trkpt>
      <trkpt lat="43.37474" lon="2.69946">
        <ele>515</ele>
        <time>2016-12-27T13:02:12.000Z</time>
      </trkpt>
      <trkpt lat="43.37474" lon="2.69946">
        <ele>515</ele>
        <time>2016-12-27T13:02:14.000Z</time>
      </trkpt>
      <trkpt lat="43.37474" lon="2.69946">
        <ele>515</ele>
        <time>2016-12-27T13:02:16.000Z</time>
      </trkpt>
      <trkpt lat="43.3749" lon="2.69915">
        <ele>515</ele>
        <time>2016-12-27T13:02:20.000Z</time>
      </trkpt>
      <trkpt lat="43.37498" lon="2.699">
        <ele>515</ele>
        <time>2016-12-27T13:02:24.000Z</time>
      </trkpt>
      <trkpt lat="43.37498" lon="2.699">
        <ele>515</ele>
        <time>2016-12-27T13:02:26.000Z</time>
      </trkpt>
      <trkpt lat="43.37498" lon="2.699">
        <ele>515</ele>
        <time>2016-12-27T13:02:28.000Z</time>
      </trkpt>
      <trkpt lat="43.37498" lon="2.699">
        <ele>515</ele>
        <time>2016-12-27T13:02:32.000Z</time>
      </trkpt>
      <trkpt lat="43.37498" lon="2.699">
        <ele>515</ele>
        <time>2016-12-27T13:02:34.000Z</time>
      </trkpt>
      <trkpt lat="43.37498" lon="2.699">
        <ele>515</ele>
        <time>2016-12-27T13:02:36.000Z</time>
      </trkpt>
      <trkpt lat="43.37498" lon="2.699">
        <ele>515</ele>
        <time>2016-12-27T13:02:38.000Z</time>
      </trkpt>
      <trkpt lat="43.37498" lon="2.699">
        <ele>515</ele>
        <time>2016-12-27T13:02:40.000Z</time>
      </trkpt>
      <trkpt lat="43.37498" lon="2.699">
        <ele>515</ele>
        <time>2016-12-27T13:02:42.000Z</time>
      </trkpt>
      <trkpt lat="43.37498" lon="2.699">
        <ele>515</ele>
        <time>2016-12-27T13:02:44.000Z</time>
      </trkpt>
      <trkpt lat="43.37498" lon="2.699">
        <ele>515</ele>
        <time>2016-12-27T13:02:46.000Z</time>
      </trkpt>
      <trkpt lat="43.37498" lon="2.699">
        <ele>515</ele>
        <time>2016-12-27T13:02:48.000Z</time>
      </trkpt>
      <trkpt lat="43.37562" lon="2.69829">
        <ele>518</ele>
        <time>2016-12-27T13:02:50.000Z</time>
      </trkpt>
      <trkpt lat="43.37576" lon="2.69831">
        <ele>518</ele>
        <time>2016-12-27T13:02:54.000Z</time>
      </trkpt>
      <trkpt lat="43.37576" lon="2.69831">
        <ele>518</ele>
        <time>2016-12-27T13:02:56.000Z</time>
      </trkpt>
      <trkpt lat="43.37582" lon="2.6983">
        <ele>518</ele>
        <time>2016-12-27T13:02:58.000Z</time>
      </trkpt>
      <trkpt lat="43.3759" lon="2.69827">
        <ele>519</ele>
        <time>2016-12-27T13:03:00.000Z</time>
      </trkpt>
      <trkpt lat="43.37596" lon="2.69823">
        <ele>519</ele>
        <time>2016-12-27T13:03:02.000Z</time>
      </trkpt>
      <trkpt lat="43.37596" lon="2.69823">
        <ele>519</ele>
        <time>2016-12-27T13:03:04.000Z</time>
      </trkpt>
      <trkpt lat="43.37596" lon="2.69823">
        <ele>519</ele>
        <time>2016-12-27T13:03:06.000Z</time>
      </trkpt>
      <trkpt lat="43.37596" lon="2.69823">
        <ele>519</ele>
        <time>2016-12-27T13:03:08.000Z</time>
      </trkpt>
      <trkpt lat="43.37611" lon="2.69806">
        <ele>521</ele>
        <time>2016-12-27T13:03:12.000Z</time>
      </trkpt>
      <trkpt lat="43.37621" lon="2.69794">
        <ele>521</ele>
        <time>2016-12-27T13:03:14.000Z</time>
      </trkpt>
      <trkpt lat="43.37621" lon="2.69794">
        <ele>521</ele>
        <time>2016-12-27T13:03:16.000Z</time>
      </trkpt>
      <trkpt lat="43.37621" lon="2.69794">
        <ele>521</ele>
        <time>2016-12-27T13:03:18.000Z</time>
      </trkpt>
      <trkpt lat="43.37634" lon="2.69778">
        <ele>520</ele>
        <time>2016-12-27T13:03:20.000Z</time>
      </trkpt>
      <trkpt lat="43.37643" lon="2.69767">
        <ele>520</ele>
        <time>2016-12-27T13:03:22.000Z</time>
      </trkpt>
      <trkpt lat="43.3765" lon="2.69759">
        <ele>520</ele>
        <time>2016-12-27T13:03:24.000Z</time>
      </trkpt>
      <trkpt lat="43.37655" lon="2.69751">
        <ele>520</ele>
        <time>2016-12-27T13:03:26.000Z</time>
      </trkpt>
      <trkpt lat="43.3766" lon="2.69743">
        <ele>520</ele>
        <time>2016-12-27T13:03:28.000Z</time>
      </trkpt>
      <trkpt lat="43.37669" lon="2.69728">
        <ele>520</ele>
        <time>2016-12-27T13:03:30.000Z</time>
      </trkpt>
      <trkpt lat="43.37669" lon="2.69728">
        <ele>520</ele>
        <time>2016-12-27T13:03:32.000Z</time>
      </trkpt>
      <trkpt lat="43.37669" lon="2.69728">
        <ele>520</ele>
        <time>2016-12-27T13:03:34.000Z</time>
      </trkpt>
      <trkpt lat="43.37669" lon="2.69728">
        <ele>520</ele>
        <time>2016-12-27T13:03:36.000Z</time>
      </trkpt>
      <trkpt lat="43.37669" lon="2.69728">
        <ele>520</ele>
        <time>2016-12-27T13:03:40.000Z</time>
      </trkpt>
      <trkpt lat="43.37669" lon="2.69728">
        <ele>520</ele>
        <time>2016-12-27T13:03:42.000Z</time>
      </trkpt>
      <trkpt lat="43.37669" lon="2.69728">
        <ele>520</ele>
        <time>2016-12-27T13:03:44.000Z</time>
      </trkpt>
      <trkpt lat="43.37669" lon="2.69728">
        <ele>520</ele>
        <time>2016-12-27T13:03:46.000Z</time>
      </trkpt>
      <trkpt lat="43.37669" lon="2.69728">
        <ele>520</ele>
        <time>2016-12-27T13:03:48.000Z</time>
      </trkpt>
      <trkpt lat="43.37669" lon="2.69728">
        <ele>520</ele>
        <time>2016-12-27T13:03:52.000Z</time>
      </trkpt>
      <trkpt lat="43.37669" lon="2.69728">
        <ele>520</ele>
        <time>2016-12-27T13:03:54.000Z</time>
      </trkpt>
      <trkpt lat="43.37669" lon="2.69728">
        <ele>520</ele>
        <time>2016-12-27T13:03:56.000Z</time>
      </trkpt>
      <trkpt lat="43.37669" lon="2.69728">
        <ele>520</ele>
        <time>2016-12-27T13:03:58.000Z</time>
      </trkpt>
      <trkpt lat="43.37759" lon="2.69664">
        <ele>529</ele>
        <time>2016-12-27T13:04:04.000Z</time>
      </trkpt>
      <trkpt lat="43.37772" lon="2.69664">
        <ele>531</ele>
        <time>2016-12-27T13:04:08.000Z</time>
      </trkpt>
      <trkpt lat="43.37786" lon="2.69667">
        <ele>533</ele>
        <time>2016-12-27T13:04:12.000Z</time>
      </trkpt>
      <trkpt lat="43.37786" lon="2.69667">
        <ele>533</ele>
        <time>2016-12-27T13:04:16.000Z</time>
      </trkpt>
      <trkpt lat="43.37786" lon="2.69667">
        <ele>533</ele>
        <time>2016-12-27T13:04:18.000Z</time>
      </trkpt>
      <trkpt lat="43.37786" lon="2.69667">
        <ele>533</ele>
        <time>2016-12-27T13:04:20.000Z</time>
      </trkpt>
      <trkpt lat="43.37786" lon="2.69667">
        <ele>533</ele>
        <time>2016-12-27T13:04:22.000Z</time>
      </trkpt>
      <trkpt lat="43.37786" lon="2.69667">
        <ele>533</ele>
        <time>2016-12-27T13:04:24.000Z</time>
      </trkpt>
      <trkpt lat="43.37786" lon="2.69667">
        <ele>533</ele>
        <time>2016-12-27T13:04:26.000Z</time>
      </trkpt>
      <trkpt lat="43.3784" lon="2.69694">
        <ele>543</ele>
        <time>2016-12-27T13:04:32.000Z</time>
      </trkpt>
      <trkpt lat="43.3784" lon="2.69694">
        <ele>543</ele>
        <time>2016-12-27T13:04:34.000Z</time>
      </trkpt>
      <trkpt lat="43.3784" lon="2.69694">
        <ele>543</ele>
        <time>2016-12-27T13:04:36.000Z</time>
      </trkpt>
      <trkpt lat="43.3784" lon="2.69694">
        <ele>543</ele>
        <time>2016-12-27T13:04:38.000Z</time>
      </trkpt>
      <trkpt lat="43.3784" lon="2.69694">
        <ele>543</ele>
        <time>2016-12-27T13:04:40.000Z</time>
      </trkpt>
      <trkpt lat="43.37857" lon="2.6969">
        <ele>548</ele>
        <time>2016-12-27T13:04:44.000Z</time>
      </trkpt>
      <trkpt lat="43.37868" lon="2.69687">
        <ele>548</ele>
        <time>2016-12-27T13:04:46.000Z</time>
      </trkpt>
      <trkpt lat="43.37875" lon="2.69684">
        <ele>548</ele>
        <time>2016-12-27T13:04:48.000Z</time>
      </trkpt>
      <trkpt lat="43.37882" lon="2.6968">
        <ele>549</ele>
        <time>2016-12-27T13:04:50.000Z</time>
      </trkpt>
      <trkpt lat="43.37888" lon="2.69676">
        <ele>549</ele>
        <time>2016-12-27T13:04:52.000Z</time>
      </trkpt>
      <trkpt lat="43.37898" lon="2.69667">
        <ele>549</ele>
        <time>2016-12-27T13:04:54.000Z</time>
      </trkpt>
      <trkpt lat="43.37898" lon="2.69667">
        <ele>549</ele>
        <time>2016-12-27T13:04:56.000Z</time>
      </trkpt>
      <trkpt lat="43.37907" lon="2.69656">
        <ele>550</ele>
        <time>2016-12-27T13:04:58.000Z</time>
      </trkpt>
      <trkpt lat="43.37907" lon="2.69656">
        <ele>550</ele>
        <time>2016-12-27T13:05:00.000Z</time>
      </trkpt>
      <trkpt lat="43.37907" lon="2.69656">
        <ele>550</ele>
        <time>2016-12-27T13:05:02.000Z</time>
      </trkpt>
      <trkpt lat="43.37907" lon="2.69656">
        <ele>550</ele>
        <time>2016-12-27T13:05:04.000Z</time>
      </trkpt>
      <trkpt lat="43.37907" lon="2.69656">
        <ele>550</ele>
        <time>2016-12-27T13:05:06.000Z</time>
      </trkpt>
      <trkpt lat="43.37907" lon="2.69656">
        <ele>550</ele>
        <time>2016-12-27T13:05:08.000Z</time>
      </trkpt>
      <trkpt lat="43.37907" lon="2.69656">
        <ele>550</ele>
        <time>2016-12-27T13:05:10.000Z</time>
      </trkpt>
      <trkpt lat="43.37907" lon="2.69656">
        <ele>550</ele>
        <time>2016-12-27T13:05:12.000Z</time>
      </trkpt>
      <trkpt lat="43.37907" lon="2.69656">
        <ele>550</ele>
        <time>2016-12-27T13:05:14.000Z</time>
      </trkpt>
      <trkpt lat="43.37907" lon="2.69656">
        <ele>550</ele>
        <time>2016-12-27T13:05:16.000Z</time>
      </trkpt>
      <trkpt lat="43.37907" lon="2.69656">
        <ele>550</ele>
        <time>2016-12-27T13:05:18.000Z</time>
      </trkpt>
      <trkpt lat="43.37907" lon="2.69656">
        <ele>550</ele>
        <time>2016-12-27T13:05:22.000Z</time>
      </trkpt>
      <trkpt lat="43.37907" lon="2.69656">
        <ele>550</ele>
        <time>2016-12-27T13:05:24.000Z</time>
      </trkpt>
      <trkpt lat="43.37949" lon="2.69611">
        <ele>549</ele>
        <time>2016-12-27T13:06:12.000Z</time>
      </trkpt>
      <trkpt lat="43.37959" lon="2.69602">
        <ele>548</ele>
        <time>2016-12-27T13:06:20.000Z</time>
      </trkpt>
      <trkpt lat="43.37969" lon="2.69596">
        <ele>548</ele>
        <time>2016-12-27T13:06:26.000Z</time>
      </trkpt>
      <trkpt lat="43.37969" lon="2.69596">
        <ele>548</ele>
        <time>2016-12-27T13:06:28.000Z</time>
      </trkpt>
      <trkpt lat="43.37969" lon="2.69596">
        <ele>548</ele>
        <time>2016-12-27T13:06:30.000Z</time>
      </trkpt>
      <trkpt lat="43.37957" lon="2.69603">
        <ele>545</ele>
        <time>2016-12-27T13:06:34.000Z</time>
      </trkpt>
      <trkpt lat="43.37957" lon="2.69603">
        <ele>545</ele>
        <time>2016-12-27T13:06:36.000Z</time>
      </trkpt>
      <trkpt lat="43.37948" lon="2.69611">
        <ele>545</ele>
        <time>2016-12-27T13:06:38.000Z</time>
      </trkpt>
      <trkpt lat="43.37948" lon="2.69611">
        <ele>545</ele>
        <time>2016-12-27T13:06:40.000Z</time>
      </trkpt>
      <trkpt lat="43.37948" lon="2.69611">
        <ele>545</ele>
        <time>2016-12-27T13:06:42.000Z</time>
      </trkpt>
      <trkpt lat="43.37948" lon="2.69611">
        <ele>545</ele>
        <time>2016-12-27T13:06:44.000Z</time>
      </trkpt>
      <trkpt lat="43.37926" lon="2.69636">
        <ele>542</ele>
        <time>2016-12-27T13:06:48.000Z</time>
      </trkpt>
      <trkpt lat="43.37915" lon="2.69651">
        <ele>541</ele>
        <time>2016-12-27T13:06:52.000Z</time>
      </trkpt>
      <trkpt lat="43.37902" lon="2.69667">
        <ele>541</ele>
        <time>2016-12-27T13:06:56.000Z</time>
      </trkpt>
      <trkpt lat="43.37895" lon="2.69675">
        <ele>540</ele>
        <time>2016-12-27T13:06:58.000Z</time>
      </trkpt>
      <trkpt lat="43.37888" lon="2.69684">
        <ele>540</ele>
        <time>2016-12-27T13:07:00.000Z</time>
      </trkpt>
      <trkpt lat="43.3788" lon="2.69691">
        <ele>539</ele>
        <time>2016-12-27T13:07:02.000Z</time>
      </trkpt>
      <trkpt lat="43.37871" lon="2.69696">
        <ele>539</ele>
        <time>2016-12-27T13:07:04.000Z</time>
      </trkpt>
      <trkpt lat="43.37859" lon="2.69701">
        <ele>539</ele>
        <time>2016-12-27T13:07:06.000Z</time>
      </trkpt>
      <trkpt lat="43.37849" lon="2.697">
        <ele>538</ele>
        <time>2016-12-27T13:07:08.000Z</time>
      </trkpt>
      <trkpt lat="43.37838" lon="2.69697">
        <ele>538</ele>
        <time>2016-12-27T13:07:10.000Z</time>
      </trkpt>
      <trkpt lat="43.37828" lon="2.69692">
        <ele>537</ele>
        <time>2016-12-27T13:07:12.000Z</time>
      </trkpt>
      <trkpt lat="43.37819" lon="2.69686">
        <ele>537</ele>
        <time>2016-12-27T13:07:14.000Z</time>
      </trkpt>
      <trkpt lat="43.37819" lon="2.69686">
        <ele>537</ele>
        <time>2016-12-27T13:07:16.000Z</time>
      </trkpt>
      <trkpt lat="43.37819" lon="2.69686">
        <ele>537</ele>
        <time>2016-12-27T13:07:18.000Z</time>
      </trkpt>
      <trkpt lat="43.37819" lon="2.69686">
        <ele>537</ele>
        <time>2016-12-27T13:07:20.000Z</time>
      </trkpt>
      <trkpt lat="43.37791" lon="2.69678">
        <ele>534</ele>
        <time>2016-12-27T13:07:24.000Z</time>
      </trkpt>
      <trkpt lat="43.37791" lon="2.69678">
        <ele>534</ele>
        <time>2016-12-27T13:07:26.000Z</time>
      </trkpt>
      <trkpt lat="43.37791" lon="2.69678">
        <ele>534</ele>
        <time>2016-12-27T13:07:28.000Z</time>
      </trkpt>
      <trkpt lat="43.37791" lon="2.69678">
        <ele>534</ele>
        <time>2016-12-27T13:07:30.000Z</time>
      </trkpt>
      <trkpt lat="43.37791" lon="2.69678">
        <ele>534</ele>
        <time>2016-12-27T13:07:32.000Z</time>
      </trkpt>
      <trkpt lat="43.37791" lon="2.69678">
        <ele>534</ele>
        <time>2016-12-27T13:07:34.000Z</time>
      </trkpt>
      <trkpt lat="43.37747" lon="2.69682">
        <ele>527</ele>
        <time>2016-12-27T13:07:38.000Z</time>
      </trkpt>
      <trkpt lat="43.3772" lon="2.69688">
        <ele>527</ele>
        <time>2016-12-27T13:07:40.000Z</time>
      </trkpt>
      <trkpt lat="43.37703" lon="2.69697">
        <ele>526</ele>
        <time>2016-12-27T13:07:42.000Z</time>
      </trkpt>
      <trkpt lat="43.37691" lon="2.69709">
        <ele>525</ele>
        <time>2016-12-27T13:07:44.000Z</time>
      </trkpt>
      <trkpt lat="43.37681" lon="2.69721">
        <ele>524</ele>
        <time>2016-12-27T13:07:46.000Z</time>
      </trkpt>
      <trkpt lat="43.37663" lon="2.69746">
        <ele>523</ele>
        <time>2016-12-27T13:07:48.000Z</time>
      </trkpt>
      <trkpt lat="43.37655" lon="2.69759">
        <ele>522</ele>
        <time>2016-12-27T13:07:50.000Z</time>
      </trkpt>
      <trkpt lat="43.37647" lon="2.6977">
        <ele>521</ele>
        <time>2016-12-27T13:07:52.000Z</time>
      </trkpt>
      <trkpt lat="43.37638" lon="2.69782">
        <ele>520</ele>
        <time>2016-12-27T13:07:54.000Z</time>
      </trkpt>
      <trkpt lat="43.3763" lon="2.69792">
        <ele>519</ele>
        <time>2016-12-27T13:07:56.000Z</time>
      </trkpt>
      <trkpt lat="43.37622" lon="2.69803">
        <ele>518</ele>
        <time>2016-12-27T13:07:58.000Z</time>
      </trkpt>
      <trkpt lat="43.37614" lon="2.69815">
        <ele>517</ele>
        <time>2016-12-27T13:08:00.000Z</time>
      </trkpt>
      <trkpt lat="43.37605" lon="2.69827">
        <ele>516</ele>
        <time>2016-12-27T13:08:02.000Z</time>
      </trkpt>
      <trkpt lat="43.37593" lon="2.69835">
        <ele>515</ele>
        <time>2016-12-27T13:08:04.000Z</time>
      </trkpt>
      <trkpt lat="43.37577" lon="2.69837">
        <ele>514</ele>
        <time>2016-12-27T13:08:06.000Z</time>
      </trkpt>
      <trkpt lat="43.37563" lon="2.69837">
        <ele>513</ele>
        <time>2016-12-27T13:08:08.000Z</time>
      </trkpt>
      <trkpt lat="43.37549" lon="2.69838">
        <ele>512</ele>
        <time>2016-12-27T13:08:10.000Z</time>
      </trkpt>
      <trkpt lat="43.37537" lon="2.69843">
        <ele>511</ele>
        <time>2016-12-27T13:08:12.000Z</time>
      </trkpt>
      <trkpt lat="43.37526" lon="2.69851">
        <ele>510</ele>
        <time>2016-12-27T13:08:14.000Z</time>
      </trkpt>
      <trkpt lat="43.37517" lon="2.69866">
        <ele>509</ele>
        <time>2016-12-27T13:08:16.000Z</time>
      </trkpt>
      <trkpt lat="43.37507" lon="2.69883">
        <ele>508</ele>
        <time>2016-12-27T13:08:18.000Z</time>
      </trkpt>
      <trkpt lat="43.37496" lon="2.69902">
        <ele>507</ele>
        <time>2016-12-27T13:08:20.000Z</time>
      </trkpt>
      <trkpt lat="43.37486" lon="2.69922">
        <ele>505</ele>
        <time>2016-12-27T13:08:22.000Z</time>
      </trkpt>
      <trkpt lat="43.37476" lon="2.69942">
        <ele>504</ele>
        <time>2016-12-27T13:08:24.000Z</time>
      </trkpt>
      <trkpt lat="43.37466" lon="2.69963">
        <ele>503</ele>
        <time>2016-12-27T13:08:26.000Z</time>
      </trkpt>
      <trkpt lat="43.37456" lon="2.69984">
        <ele>502</ele>
        <time>2016-12-27T13:08:28.000Z</time>
      </trkpt>
      <trkpt lat="43.37446" lon="2.70002">
        <ele>501</ele>
        <time>2016-12-27T13:08:30.000Z</time>
      </trkpt>
      <trkpt lat="43.37435" lon="2.7002">
        <ele>499</ele>
        <time>2016-12-27T13:08:32.000Z</time>
      </trkpt>
      <trkpt lat="43.37424" lon="2.70034">
        <ele>498</ele>
        <time>2016-12-27T13:08:34.000Z</time>
      </trkpt>
      <trkpt lat="43.37415" lon="2.70044">
        <ele>497</ele>
        <time>2016-12-27T13:08:36.000Z</time>
      </trkpt>
      <trkpt lat="43.37408" lon="2.70055">
        <ele>496</ele>
        <time>2016-12-27T13:08:38.000Z</time>
      </trkpt>
      <trkpt lat="43.374" lon="2.70068">
        <ele>496</ele>
        <time>2016-12-27T13:08:40.000Z</time>
      </trkpt>
      <trkpt lat="43.37393" lon="2.70082">
        <ele>495</ele>
        <time>2016-12-27T13:08:42.000Z</time>
      </trkpt>
      <trkpt lat="43.37387" lon="2.70094">
        <ele>494</ele>
        <time>2016-12-27T13:08:44.000Z</time>
      </trkpt>
      <trkpt lat="43.37387" lon="2.70094">
        <ele>494</ele>
        <time>2016-12-27T13:08:46.000Z</time>
      </trkpt>
      <trkpt lat="43.37387" lon="2.70094">
        <ele>494</ele>
        <time>2016-12-27T13:08:48.000Z</time>
      </trkpt>
      <trkpt lat="43.37387" lon="2.70094">
        <ele>494</ele>
        <time>2016-12-27T13:08:50.000Z</time>
      </trkpt>
      <trkpt lat="43.37387" lon="2.70094">
        <ele>494</ele>
        <time>2016-12-27T13:08:52.000Z</time>
      </trkpt>
      <trkpt lat="43.37387" lon="2.70094">
        <ele>494</ele>
        <time>2016-12-27T13:08:54.000Z</time>
      </trkpt>
      <trkpt lat="43.37387" lon="2.70094">
        <ele>494</ele>
        <time>2016-12-27T13:08:56.000Z</time>
      </trkpt>
      <trkpt lat="43.3741" lon="2.70159">
        <ele>488</ele>
        <time>2016-12-27T13:09:00.000Z</time>
      </trkpt>
      <trkpt lat="43.3741" lon="2.70178">
        <ele>487</ele>
        <time>2016-12-27T13:09:04.000Z</time>
      </trkpt>
      <trkpt lat="43.3741" lon="2.70178">
        <ele>487</ele>
        <time>2016-12-27T13:09:06.000Z</time>
      </trkpt>
      <trkpt lat="43.3741" lon="2.70178">
        <ele>487</ele>
        <time>2016-12-27T13:09:08.000Z</time>
      </trkpt>
      <trkpt lat="43.3741" lon="2.70178">
        <ele>487</ele>
        <time>2016-12-27T13:09:10.000Z</time>
      </trkpt>
      <trkpt lat="43.3741" lon="2.70178">
        <ele>487</ele>
        <time>2016-12-27T13:09:12.000Z</time>
      </trkpt>
      <trkpt lat="43.3741" lon="2.70178">
        <ele>487</ele>
        <time>2016-12-27T13:09:14.000Z</time>
      </trkpt>
      <trkpt lat="43.37399" lon="2.70199">
        <ele>484</ele>
        <time>2016-12-27T13:09:16.000Z</time>
      </trkpt>
      <trkpt lat="43.37389" lon="2.70205">
        <ele>483</ele>
        <time>2016-12-27T13:09:20.000Z</time>
      </trkpt>
      <trkpt lat="43.37379" lon="2.70221">
        <ele>481</ele>
        <time>2016-12-27T13:09:24.000Z</time>
      </trkpt>
      <trkpt lat="43.37371" lon="2.70236">
        <ele>480</ele>
        <time>2016-12-27T13:09:28.000Z</time>
      </trkpt>
      <trkpt lat="43.37371" lon="2.70236">
        <ele>480</ele>
        <time>2016-12-27T13:09:32.000Z</time>
      </trkpt>
      <trkpt lat="43.37371" lon="2.70236">
        <ele>480</ele>
        <time>2016-12-27T13:09:34.000Z</time>
      </trkpt>
      <trkpt lat="43.37371" lon="2.70236">
        <ele>480</ele>
        <time>2016-12-27T13:09:36.000Z</time>
      </trkpt>
      <trkpt lat="43.3738" lon="2.70224">
        <ele>477</ele>
        <time>2016-12-27T13:09:46.000Z</time>
      </trkpt>
      <trkpt lat="43.37387" lon="2.70212">
        <ele>477</ele>
        <time>2016-12-27T13:09:50.000Z</time>
      </trkpt>
      <trkpt lat="43.37393" lon="2.70202">
        <ele>476</ele>
        <time>2016-12-27T13:09:54.000Z</time>
      </trkpt>
      <trkpt lat="43.37393" lon="2.70202">
        <ele>476</ele>
        <time>2016-12-27T13:09:56.000Z</time>
      </trkpt>
      <trkpt lat="43.37393" lon="2.70202">
        <ele>476</ele>
        <time>2016-12-27T13:09:58.000Z</time>
      </trkpt>
      <trkpt lat="43.37393" lon="2.70202">
        <ele>476</ele>
        <time>2016-12-27T13:10:00.000Z</time>
      </trkpt>
      <trkpt lat="43.37393" lon="2.70202">
        <ele>476</ele>
        <time>2016-12-27T13:10:02.000Z</time>
      </trkpt>
      <trkpt lat="43.37393" lon="2.70202">
        <ele>476</ele>
        <time>2016-12-27T13:10:04.000Z</time>
      </trkpt>
      <trkpt lat="43.37395" lon="2.70209">
        <ele>477</ele>
        <time>2016-12-27T13:10:08.000Z</time>
      </trkpt>
      <trkpt lat="43.37395" lon="2.70218">
        <ele>478</ele>
        <time>2016-12-27T13:10:10.000Z</time>
      </trkpt>
      <trkpt lat="43.37395" lon="2.70227">
        <ele>479</ele>
        <time>2016-12-27T13:10:12.000Z</time>
      </trkpt>
      <trkpt lat="43.37397" lon="2.70235">
        <ele>480</ele>
        <time>2016-12-27T13:10:14.000Z</time>
      </trkpt>
      <trkpt lat="43.374" lon="2.70241">
        <ele>481</ele>
        <time>2016-12-27T13:10:16.000Z</time>
      </trkpt>
      <trkpt lat="43.374" lon="2.70241">
        <ele>481</ele>
        <time>2016-12-27T13:10:18.000Z</time>
      </trkpt>
      <trkpt lat="43.374" lon="2.70241">
        <ele>481</ele>
        <time>2016-12-27T13:10:20.000Z</time>
      </trkpt>
      <trkpt lat="43.374" lon="2.70241">
        <ele>481</ele>
        <time>2016-12-27T13:10:22.000Z</time>
      </trkpt>
      <trkpt lat="43.374" lon="2.70241">
        <ele>481</ele>
        <time>2016-12-27T13:10:24.000Z</time>
      </trkpt>
      <trkpt lat="43.374" lon="2.70241">
        <ele>481</ele>
        <time>2016-12-27T13:10:26.000Z</time>
      </trkpt>
      <trkpt lat="43.37416" lon="2.70261">
        <ele>489</ele>
        <time>2016-12-27T13:10:30.000Z</time>
      </trkpt>
      <trkpt lat="43.37415" lon="2.70276">
        <ele>490</ele>
        <time>2016-12-27T13:10:34.000Z</time>
      </trkpt>
      <trkpt lat="43.37415" lon="2.70276">
        <ele>490</ele>
        <time>2016-12-27T13:10:36.000Z</time>
      </trkpt>
      <trkpt lat="43.37413" lon="2.70293">
        <ele>492</ele>
        <time>2016-12-27T13:10:38.000Z</time>
      </trkpt>
      <trkpt lat="43.37411" lon="2.70308">
        <ele>494</ele>
        <time>2016-12-27T13:10:42.000Z</time>
      </trkpt>
      <trkpt lat="43.37411" lon="2.70308">
        <ele>494</ele>
        <time>2016-12-27T13:10:44.000Z</time>
      </trkpt>
      <trkpt lat="43.37411" lon="2.70308">
        <ele>494</ele>
        <time>2016-12-27T13:10:46.000Z</time>
      </trkpt>
      <trkpt lat="43.37408" lon="2.70344">
        <ele>495</ele>
        <time>2016-12-27T13:10:50.000Z</time>
      </trkpt>
      <trkpt lat="43.37406" lon="2.70362">
        <ele>495</ele>
        <time>2016-12-27T13:10:54.000Z</time>
      </trkpt>
      <trkpt lat="43.37402" lon="2.7038">
        <ele>496</ele>
        <time>2016-12-27T13:10:58.000Z</time>
      </trkpt>
      <trkpt lat="43.374" lon="2.704">
        <ele>496</ele>
        <time>2016-12-27T13:11:02.000Z</time>
      </trkpt>
      <trkpt lat="43.374" lon="2.704">
        <ele>496</ele>
        <time>2016-12-27T13:11:04.000Z</time>
      </trkpt>
      <trkpt lat="43.374" lon="2.704">
        <ele>496</ele>
        <time>2016-12-27T13:11:06.000Z</time>
      </trkpt>
      <trkpt lat="43.374" lon="2.704">
        <ele>496</ele>
        <time>2016-12-27T13:11:08.000Z</time>
      </trkpt>
      <trkpt lat="43.374" lon="2.704">
        <ele>496</ele>
        <time>2016-12-27T13:11:10.000Z</time>
      </trkpt>
      <trkpt lat="43.374" lon="2.704">
        <ele>496</ele>
        <time>2016-12-27T13:11:12.000Z</time>
      </trkpt>
      <trkpt lat="43.374" lon="2.704">
        <ele>496</ele>
        <time>2016-12-27T13:11:15.000Z</time>
      </trkpt>
      <trkpt lat="43.37395" lon="2.70433">
        <ele>495</ele>
        <time>2016-12-27T13:11:45.000Z</time>
      </trkpt>
      <trkpt lat="43.37393" lon="2.70445">
        <ele>495</ele>
        <time>2016-12-27T13:11:49.000Z</time>
      </trkpt>
      <trkpt lat="43.37391" lon="2.7046">
        <ele>496</ele>
        <time>2016-12-27T13:11:53.000Z</time>
      </trkpt>
      <trkpt lat="43.37389" lon="2.70474">
        <ele>498</ele>
        <time>2016-12-27T13:11:57.000Z</time>
      </trkpt>
      <trkpt lat="43.37387" lon="2.70491">
        <ele>500</ele>
        <time>2016-12-27T13:12:01.000Z</time>
      </trkpt>
      <trkpt lat="43.37384" lon="2.70508">
        <ele>501</ele>
        <time>2016-12-27T13:12:05.000Z</time>
      </trkpt>
      <trkpt lat="43.37384" lon="2.70508">
        <ele>501</ele>
        <time>2016-12-27T13:12:07.000Z</time>
      </trkpt>
      <trkpt lat="43.37378" lon="2.70533">
        <ele>504</ele>
        <time>2016-12-27T13:12:11.000Z</time>
      </trkpt>
      <trkpt lat="43.37374" lon="2.70554">
        <ele>504</ele>
        <time>2016-12-27T13:12:15.000Z</time>
      </trkpt>
      <trkpt lat="43.37372" lon="2.70562">
        <ele>504</ele>
        <time>2016-12-27T13:12:19.000Z</time>
      </trkpt>
      <trkpt lat="43.37372" lon="2.70562">
        <ele>504</ele>
        <time>2016-12-27T13:12:21.000Z</time>
      </trkpt>
      <trkpt lat="43.37372" lon="2.70562">
        <ele>504</ele>
        <time>2016-12-27T13:12:23.000Z</time>
      </trkpt>
      <trkpt lat="43.37372" lon="2.70562">
        <ele>504</ele>
        <time>2016-12-27T13:12:25.000Z</time>
      </trkpt>
      <trkpt lat="43.37372" lon="2.70562">
        <ele>504</ele>
        <time>2016-12-27T13:12:27.000Z</time>
      </trkpt>
      <trkpt lat="43.37366" lon="2.70595">
        <ele>503</ele>
        <time>2016-12-27T13:12:31.000Z</time>
      </trkpt>
      <trkpt lat="43.37362" lon="2.70615">
        <ele>503</ele>
        <time>2016-12-27T13:12:33.000Z</time>
      </trkpt>
      <trkpt lat="43.37358" lon="2.7063">
        <ele>501</ele>
        <time>2016-12-27T13:12:35.000Z</time>
      </trkpt>
      <trkpt lat="43.37355" lon="2.70642">
        <ele>500</ele>
        <time>2016-12-27T13:12:37.000Z</time>
      </trkpt>
      <trkpt lat="43.37353" lon="2.70653">
        <ele>499</ele>
        <time>2016-12-27T13:12:39.000Z</time>
      </trkpt>
      <trkpt lat="43.37353" lon="2.70653">
        <ele>499</ele>
        <time>2016-12-27T13:12:41.000Z</time>
      </trkpt>
      <trkpt lat="43.37353" lon="2.70653">
        <ele>499</ele>
        <time>2016-12-27T13:12:43.000Z</time>
      </trkpt>
      <trkpt lat="43.37353" lon="2.70653">
        <ele>499</ele>
        <time>2016-12-27T13:12:45.000Z</time>
      </trkpt>
      <trkpt lat="43.37334" lon="2.70704">
        <ele>493</ele>
        <time>2016-12-27T13:12:49.000Z</time>
      </trkpt>
      <trkpt lat="43.37327" lon="2.7072">
        <ele>490</ele>
        <time>2016-12-27T13:12:53.000Z</time>
      </trkpt>
      <trkpt lat="43.37327" lon="2.7072">
        <ele>490</ele>
        <time>2016-12-27T13:12:55.000Z</time>
      </trkpt>
      <trkpt lat="43.37323" lon="2.70737">
        <ele>487</ele>
        <time>2016-12-27T13:12:57.000Z</time>
      </trkpt>
      <trkpt lat="43.37323" lon="2.70737">
        <ele>487</ele>
        <time>2016-12-27T13:12:59.000Z</time>
      </trkpt>
      <trkpt lat="43.37323" lon="2.70737">
        <ele>487</ele>
        <time>2016-12-27T13:13:01.000Z</time>
      </trkpt>
      <trkpt lat="43.37323" lon="2.70737">
        <ele>487</ele>
        <time>2016-12-27T13:13:03.000Z</time>
      </trkpt>
      <trkpt lat="43.37336" lon="2.70748">
        <ele>481</ele>
        <time>2016-12-27T13:13:11.000Z</time>
      </trkpt>
      <trkpt lat="43.37345" lon="2.7074">
        <ele>480</ele>
        <time>2016-12-27T13:13:15.000Z</time>
      </trkpt>
      <trkpt lat="43.37356" lon="2.7073">
        <ele>478</ele>
        <time>2016-12-27T13:13:19.000Z</time>
      </trkpt>
      <trkpt lat="43.37371" lon="2.70721">
        <ele>477</ele>
        <time>2016-12-27T13:13:23.000Z</time>
      </trkpt>
      <trkpt lat="43.37371" lon="2.70721">
        <ele>477</ele>
        <time>2016-12-27T13:13:25.000Z</time>
      </trkpt>
      <trkpt lat="43.37371" lon="2.70721">
        <ele>477</ele>
        <time>2016-12-27T13:13:27.000Z</time>
      </trkpt>
      <trkpt lat="43.37371" lon="2.70721">
        <ele>477</ele>
        <time>2016-12-27T13:13:29.000Z</time>
      </trkpt>
      <trkpt lat="43.37371" lon="2.70721">
        <ele>477</ele>
        <time>2016-12-27T13:13:31.000Z</time>
      </trkpt>
      <trkpt lat="43.37371" lon="2.70721">
        <ele>477</ele>
        <time>2016-12-27T13:13:33.000Z</time>
      </trkpt>
      <trkpt lat="43.37403" lon="2.70699">
        <ele>478</ele>
        <time>2016-12-27T13:13:37.000Z</time>
      </trkpt>
      <trkpt lat="43.37418" lon="2.70692">
        <ele>479</ele>
        <time>2016-12-27T13:13:41.000Z</time>
      </trkpt>
      <trkpt lat="43.37428" lon="2.70685">
        <ele>479</ele>
        <time>2016-12-27T13:13:45.000Z</time>
      </trkpt>
      <trkpt lat="43.37428" lon="2.70685">
        <ele>479</ele>
        <time>2016-12-27T13:13:47.000Z</time>
      </trkpt>
      <trkpt lat="43.37428" lon="2.70685">
        <ele>479</ele>
        <time>2016-12-27T13:13:49.000Z</time>
      </trkpt>
      <trkpt lat="43.37428" lon="2.70685">
        <ele>479</ele>
        <time>2016-12-27T13:13:51.000Z</time>
      </trkpt>
      <trkpt lat="43.37428" lon="2.70685">
        <ele>479</ele>
        <time>2016-12-27T13:13:59.000Z</time>
      </trkpt>
      <trkpt lat="43.37428" lon="2.70685">
        <ele>479</ele>
        <time>2016-12-27T13:14:01.000Z</time>
      </trkpt>
      <trkpt lat="43.37428" lon="2.70685">
        <ele>479</ele>
        <time>2016-12-27T13:14:03.000Z</time>
      </trkpt>
      <trkpt lat="43.37449" lon="2.70665">
        <ele>474</ele>
        <time>2016-12-27T13:14:05.000Z</time>
      </trkpt>
      <trkpt lat="43.37462" lon="2.70653">
        <ele>474</ele>
        <time>2016-12-27T13:14:07.000Z</time>
      </trkpt>
      <trkpt lat="43.37471" lon="2.70646">
        <ele>474</ele>
        <time>2016-12-27T13:14:09.000Z</time>
      </trkpt>
      <trkpt lat="43.37471" lon="2.70646">
        <ele>474</ele>
        <time>2016-12-27T13:14:11.000Z</time>
      </trkpt>
      <trkpt lat="43.37471" lon="2.70646">
        <ele>474</ele>
        <time>2016-12-27T13:14:13.000Z</time>
      </trkpt>
      <trkpt lat="43.37482" lon="2.70639">
        <ele>472</ele>
        <time>2016-12-27T13:14:17.000Z</time>
      </trkpt>
      <trkpt lat="43.37489" lon="2.70634">
        <ele>472</ele>
        <time>2016-12-27T13:14:19.000Z</time>
      </trkpt>
      <trkpt lat="43.37495" lon="2.70629">
        <ele>471</ele>
        <time>2016-12-27T13:14:21.000Z</time>
      </trkpt>
      <trkpt lat="43.37502" lon="2.70625">
        <ele>470</ele>
        <time>2016-12-27T13:14:23.000Z</time>
      </trkpt>
      <trkpt lat="43.37507" lon="2.70622">
        <ele>469</ele>
        <time>2016-12-27T13:14:25.000Z</time>
      </trkpt>
      <trkpt lat="43.37517" lon="2.70617">
        <ele>469</ele>
        <time>2016-12-27T13:14:27.000Z</time>
      </trkpt>
      <trkpt lat="43.37517" lon="2.70617">
        <ele>469</ele>
        <time>2016-12-27T13:14:29.000Z</time>
      </trkpt>
      <trkpt lat="43.37517" lon="2.70617">
        <ele>469</ele>
        <time>2016-12-27T13:14:35.000Z</time>
      </trkpt>
      <trkpt lat="43.37517" lon="2.70617">
        <ele>469</ele>
        <time>2016-12-27T13:14:37.000Z</time>
      </trkpt>
      <trkpt lat="43.37517" lon="2.70617">
        <ele>469</ele>
        <time>2016-12-27T13:14:39.000Z</time>
      </trkpt>
      <trkpt lat="43.37563" lon="2.70599">
        <ele>461</ele>
        <time>2016-12-27T13:14:43.000Z</time>
      </trkpt>
      <trkpt lat="43.37575" lon="2.70595">
        <ele>460</ele>
        <time>2016-12-27T13:14:47.000Z</time>
      </trkpt>
      <trkpt lat="43.37591" lon="2.7059">
        <ele>459</ele>
        <time>2016-12-27T13:14:51.000Z</time>
      </trkpt>
      <trkpt lat="43.37601" lon="2.70586">
        <ele>459</ele>
        <time>2016-12-27T13:14:53.000Z</time>
      </trkpt>
      <trkpt lat="43.3761" lon="2.70582">
        <ele>459</ele>
        <time>2016-12-27T13:14:55.000Z</time>
      </trkpt>
      <trkpt lat="43.3761" lon="2.70582">
        <ele>459</ele>
        <time>2016-12-27T13:14:57.000Z</time>
      </trkpt>
      <trkpt lat="43.3761" lon="2.70582">
        <ele>459</ele>
        <time>2016-12-27T13:14:59.000Z</time>
      </trkpt>
      <trkpt lat="43.3761" lon="2.70582">
        <ele>459</ele>
        <time>2016-12-27T13:15:01.000Z</time>
      </trkpt>
      <trkpt lat="43.3761" lon="2.70582">
        <ele>459</ele>
        <time>2016-12-27T13:15:03.000Z</time>
      </trkpt>
      <trkpt lat="43.3761" lon="2.70582">
        <ele>459</ele>
        <time>2016-12-27T13:15:05.000Z</time>
      </trkpt>
      <trkpt lat="43.3761" lon="2.70582">
        <ele>459</ele>
        <time>2016-12-27T13:15:07.000Z</time>
      </trkpt>
      <trkpt lat="43.3761" lon="2.70582">
        <ele>459</ele>
        <time>2016-12-27T13:15:09.000Z</time>
      </trkpt>
      <trkpt lat="43.37655" lon="2.70547">
        <ele>454</ele>
        <time>2016-12-27T13:15:13.000Z</time>
      </trkpt>
      <trkpt lat="43.37667" lon="2.70537">
        <ele>453</ele>
        <time>2016-12-27T13:15:17.000Z</time>
      </trkpt>
      <trkpt lat="43.37667" lon="2.70537">
        <ele>453</ele>
        <time>2016-12-27T13:15:19.000Z</time>
      </trkpt>
      <trkpt lat="43.37667" lon="2.70537">
        <ele>453</ele>
        <time>2016-12-27T13:15:21.000Z</time>
      </trkpt>
      <trkpt lat="43.37687" lon="2.70529">
        <ele>453</ele>
        <time>2016-12-27T13:15:23.000Z</time>
      </trkpt>
      <trkpt lat="43.37697" lon="2.70525">
        <ele>453</ele>
        <time>2016-12-27T13:15:25.000Z</time>
      </trkpt>
      <trkpt lat="43.37709" lon="2.70517">
        <ele>452</ele>
        <time>2016-12-27T13:15:29.000Z</time>
      </trkpt>
      <trkpt lat="43.37709" lon="2.70517">
        <ele>452</ele>
        <time>2016-12-27T13:15:31.000Z</time>
      </trkpt>
      <trkpt lat="43.37709" lon="2.70517">
        <ele>452</ele>
        <time>2016-12-27T13:15:33.000Z</time>
      </trkpt>
      <trkpt lat="43.37709" lon="2.70517">
        <ele>452</ele>
        <time>2016-12-27T13:15:35.000Z</time>
      </trkpt>
      <trkpt lat="43.37709" lon="2.70517">
        <ele>452</ele>
        <time>2016-12-27T13:15:37.000Z</time>
      </trkpt>
      <trkpt lat="43.37709" lon="2.70517">
        <ele>452</ele>
        <time>2016-12-27T13:15:39.000Z</time>
      </trkpt>
      <trkpt lat="43.37709" lon="2.70517">
        <ele>452</ele>
        <time>2016-12-27T13:15:41.000Z</time>
      </trkpt>
      <trkpt lat="43.37709" lon="2.70517">
        <ele>452</ele>
        <time>2016-12-27T13:15:43.000Z</time>
      </trkpt>
      <trkpt lat="43.37709" lon="2.70517">
        <ele>452</ele>
        <time>2016-12-27T13:15:45.000Z</time>
      </trkpt>
      <trkpt lat="43.37709" lon="2.70517">
        <ele>452</ele>
        <time>2016-12-27T13:15:53.000Z</time>
      </trkpt>
      <trkpt lat="43.37727" lon="2.70533">
        <ele>455</ele>
        <time>2016-12-27T13:15:55.000Z</time>
      </trkpt>
      <trkpt lat="43.37737" lon="2.70545">
        <ele>455</ele>
        <time>2016-12-27T13:15:57.000Z</time>
      </trkpt>
      <trkpt lat="43.37743" lon="2.70554">
        <ele>456</ele>
        <time>2016-12-27T13:15:59.000Z</time>
      </trkpt>
      <trkpt lat="43.37747" lon="2.70561">
        <ele>456</ele>
        <time>2016-12-27T13:16:01.000Z</time>
      </trkpt>
      <trkpt lat="43.37747" lon="2.70561">
        <ele>456</ele>
        <time>2016-12-27T13:16:03.000Z</time>
      </trkpt>
      <trkpt lat="43.37747" lon="2.70561">
        <ele>456</ele>
        <time>2016-12-27T13:16:05.000Z</time>
      </trkpt>
      <trkpt lat="43.37747" lon="2.70561">
        <ele>456</ele>
        <time>2016-12-27T13:16:07.000Z</time>
      </trkpt>
      <trkpt lat="43.37747" lon="2.70561">
        <ele>456</ele>
        <time>2016-12-27T13:16:09.000Z</time>
      </trkpt>
      <trkpt lat="43.37747" lon="2.70561">
        <ele>456</ele>
        <time>2016-12-27T13:16:11.000Z</time>
      </trkpt>
      <trkpt lat="43.37753" lon="2.70582">
        <ele>462</ele>
        <time>2016-12-27T13:16:15.000Z</time>
      </trkpt>
      <trkpt lat="43.37755" lon="2.70596">
        <ele>463</ele>
        <time>2016-12-27T13:16:17.000Z</time>
      </trkpt>
      <trkpt lat="43.37757" lon="2.70606">
        <ele>464</ele>
        <time>2016-12-27T13:16:19.000Z</time>
      </trkpt>
      <trkpt lat="43.37759" lon="2.70614">
        <ele>465</ele>
        <time>2016-12-27T13:16:21.000Z</time>
      </trkpt>
      <trkpt lat="43.37761" lon="2.7062">
        <ele>466</ele>
        <time>2016-12-27T13:16:23.000Z</time>
      </trkpt>
      <trkpt lat="43.37761" lon="2.7062">
        <ele>466</ele>
        <time>2016-12-27T13:16:25.000Z</time>
      </trkpt>
      <trkpt lat="43.37766" lon="2.70638">
        <ele>468</ele>
        <time>2016-12-27T13:16:27.000Z</time>
      </trkpt>
      <trkpt lat="43.37769" lon="2.70655">
        <ele>469</ele>
        <time>2016-12-27T13:16:33.000Z</time>
      </trkpt>
      <trkpt lat="43.37769" lon="2.70655">
        <ele>469</ele>
        <time>2016-12-27T13:16:35.000Z</time>
      </trkpt>
      <trkpt lat="43.3777" lon="2.70672">
        <ele>470</ele>
        <time>2016-12-27T13:16:39.000Z</time>
      </trkpt>
      <trkpt lat="43.37771" lon="2.70689">
        <ele>471</ele>
        <time>2016-12-27T13:16:45.000Z</time>
      </trkpt>
      <trkpt lat="43.37771" lon="2.70689">
        <ele>471</ele>
        <time>2016-12-27T13:16:49.000Z</time>
      </trkpt>
      <trkpt lat="43.37771" lon="2.70689">
        <ele>471</ele>
        <time>2016-12-27T13:16:51.000Z</time>
      </trkpt>
      <trkpt lat="43.37771" lon="2.70689">
        <ele>471</ele>
        <time>2016-12-27T13:16:53.000Z</time>
      </trkpt>
      <trkpt lat="43.3778" lon="2.70727">
        <ele>472</ele>
        <time>2016-12-27T13:16:59.000Z</time>
      </trkpt>
      <trkpt lat="43.37784" lon="2.7074">
        <ele>471</ele>
        <time>2016-12-27T13:17:03.000Z</time>
      </trkpt>
      <trkpt lat="43.37791" lon="2.70748">
        <ele>472</ele>
        <time>2016-12-27T13:17:07.000Z</time>
      </trkpt>
      <trkpt lat="43.37791" lon="2.70748">
        <ele>472</ele>
        <time>2016-12-27T13:17:09.000Z</time>
      </trkpt>
      <trkpt lat="43.37791" lon="2.70748">
        <ele>472</ele>
        <time>2016-12-27T13:17:11.000Z</time>
      </trkpt>
      <trkpt lat="43.37791" lon="2.70748">
        <ele>472</ele>
        <time>2016-12-27T13:17:13.000Z</time>
      </trkpt>
      <trkpt lat="43.37791" lon="2.70748">
        <ele>472</ele>
        <time>2016-12-27T13:17:15.000Z</time>
      </trkpt>
      <trkpt lat="43.37791" lon="2.70748">
        <ele>472</ele>
        <time>2016-12-27T13:17:17.000Z</time>
      </trkpt>
      <trkpt lat="43.37791" lon="2.70748">
        <ele>472</ele>
        <time>2016-12-27T13:17:19.000Z</time>
      </trkpt>
      <trkpt lat="43.37791" lon="2.70748">
        <ele>472</ele>
        <time>2016-12-27T13:17:21.000Z</time>
      </trkpt>
      <trkpt lat="43.37811" lon="2.70762">
        <ele>475</ele>
        <time>2016-12-27T13:17:53.000Z</time>
      </trkpt>
      <trkpt lat="43.3782" lon="2.70763">
        <ele>476</ele>
        <time>2016-12-27T13:17:59.000Z</time>
      </trkpt>
      <trkpt lat="43.3783" lon="2.70764">
        <ele>477</ele>
        <time>2016-12-27T13:18:05.000Z</time>
      </trkpt>
      <trkpt lat="43.37842" lon="2.70764">
        <ele>481</ele>
        <time>2016-12-27T13:18:11.000Z</time>
      </trkpt>
      <trkpt lat="43.37842" lon="2.70764">
        <ele>481</ele>
        <time>2016-12-27T13:18:13.000Z</time>
      </trkpt>
      <trkpt lat="43.37848" lon="2.70762">
        <ele>483</ele>
        <time>2016-12-27T13:18:17.000Z</time>
      </trkpt>
      <trkpt lat="43.37854" lon="2.70759">
        <ele>484</ele>
        <time>2016-12-27T13:18:19.000Z</time>
      </trkpt>
      <trkpt lat="43.37859" lon="2.70757">
        <ele>485</ele>
        <time>2016-12-27T13:18:21.000Z</time>
      </trkpt>
      <trkpt lat="43.37865" lon="2.70754">
        <ele>484</ele>
        <time>2016-12-27T13:18:23.000Z</time>
      </trkpt>
      <trkpt lat="43.37872" lon="2.7075">
        <ele>484</ele>
        <time>2016-12-27T13:18:25.000Z</time>
      </trkpt>
      <trkpt lat="43.37886" lon="2.70743">
        <ele>484</ele>
        <time>2016-12-27T13:18:27.000Z</time>
      </trkpt>
      <trkpt lat="43.37899" lon="2.70736">
        <ele>484</ele>
        <time>2016-12-27T13:18:31.000Z</time>
      </trkpt>
      <trkpt lat="43.37899" lon="2.70736">
        <ele>484</ele>
        <time>2016-12-27T13:18:33.000Z</time>
      </trkpt>
      <trkpt lat="43.37899" lon="2.70736">
        <ele>484</ele>
        <time>2016-12-27T13:18:35.000Z</time>
      </trkpt>
      <trkpt lat="43.37899" lon="2.70736">
        <ele>484</ele>
        <time>2016-12-27T13:18:37.000Z</time>
      </trkpt>
      <trkpt lat="43.37899" lon="2.70736">
        <ele>484</ele>
        <time>2016-12-27T13:18:39.000Z</time>
      </trkpt>
      <trkpt lat="43.37899" lon="2.70736">
        <ele>484</ele>
        <time>2016-12-27T13:18:45.000Z</time>
      </trkpt>
      <trkpt lat="43.37899" lon="2.70736">
        <ele>484</ele>
        <time>2016-12-27T13:18:47.000Z</time>
      </trkpt>
      <trkpt lat="43.37899" lon="2.70736">
        <ele>484</ele>
        <time>2016-12-27T13:18:49.000Z</time>
      </trkpt>
      <trkpt lat="43.37953" lon="2.70726">
        <ele>489</ele>
        <time>2016-12-27T13:18:55.000Z</time>
      </trkpt>
      <trkpt lat="43.37965" lon="2.70723">
        <ele>489</ele>
        <time>2016-12-27T13:18:59.000Z</time>
      </trkpt>
      <trkpt lat="43.37976" lon="2.70719">
        <ele>489</ele>
        <time>2016-12-27T13:19:03.000Z</time>
      </trkpt>
      <trkpt lat="43.37976" lon="2.70719">
        <ele>489</ele>
        <time>2016-12-27T13:19:05.000Z</time>
      </trkpt>
      <trkpt lat="43.37984" lon="2.70712">
        <ele>489</ele>
        <time>2016-12-27T13:19:07.000Z</time>
      </trkpt>
      <trkpt lat="43.37984" lon="2.70712">
        <ele>489</ele>
        <time>2016-12-27T13:19:09.000Z</time>
      </trkpt>
      <trkpt lat="43.37984" lon="2.70712">
        <ele>489</ele>
        <time>2016-12-27T13:19:11.000Z</time>
      </trkpt>
      <trkpt lat="43.37984" lon="2.70712">
        <ele>489</ele>
        <time>2016-12-27T13:19:13.000Z</time>
      </trkpt>
      <trkpt lat="43.38008" lon="2.70696">
        <ele>487</ele>
        <time>2016-12-27T13:19:17.000Z</time>
      </trkpt>
      <trkpt lat="43.38017" lon="2.70691">
        <ele>485</ele>
        <time>2016-12-27T13:19:21.000Z</time>
      </trkpt>
      <trkpt lat="43.38017" lon="2.70691">
        <ele>485</ele>
        <time>2016-12-27T13:19:23.000Z</time>
      </trkpt>
      <trkpt lat="43.38017" lon="2.70691">
        <ele>485</ele>
        <time>2016-12-27T13:19:25.000Z</time>
      </trkpt>
      <trkpt lat="43.38017" lon="2.70691">
        <ele>485</ele>
        <time>2016-12-27T13:19:27.000Z</time>
      </trkpt>
      <trkpt lat="43.3804" lon="2.70678">
        <ele>484</ele>
        <time>2016-12-27T13:19:31.000Z</time>
      </trkpt>
      <trkpt lat="43.3804" lon="2.70678">
        <ele>484</ele>
        <time>2016-12-27T13:19:33.000Z</time>
      </trkpt>
      <trkpt lat="43.3804" lon="2.70678">
        <ele>484</ele>
        <time>2016-12-27T13:19:35.000Z</time>
      </trkpt>
      <trkpt lat="43.3804" lon="2.70678">
        <ele>484</ele>
        <time>2016-12-27T13:19:37.000Z</time>
      </trkpt>
      <trkpt lat="43.38062" lon="2.70668">
        <ele>483</ele>
        <time>2016-12-27T13:19:41.000Z</time>
      </trkpt>
      <trkpt lat="43.38072" lon="2.70665">
        <ele>483</ele>
        <time>2016-12-27T13:19:45.000Z</time>
      </trkpt>
      <trkpt lat="43.38078" lon="2.70663">
        <ele>483</ele>
        <time>2016-12-27T13:19:49.000Z</time>
      </trkpt>
      <trkpt lat="43.38085" lon="2.7066">
        <ele>483</ele>
        <time>2016-12-27T13:19:51.000Z</time>
      </trkpt>
      <trkpt lat="43.38092" lon="2.70657">
        <ele>483</ele>
        <time>2016-12-27T13:19:53.000Z</time>
      </trkpt>
      <trkpt lat="43.38099" lon="2.70653">
        <ele>484</ele>
        <time>2016-12-27T13:19:55.000Z</time>
      </trkpt>
      <trkpt lat="43.38106" lon="2.7065">
        <ele>484</ele>
        <time>2016-12-27T13:19:57.000Z</time>
      </trkpt>
      <trkpt lat="43.38118" lon="2.70641">
        <ele>484</ele>
        <time>2016-12-27T13:19:59.000Z</time>
      </trkpt>
      <trkpt lat="43.38118" lon="2.70641">
        <ele>484</ele>
        <time>2016-12-27T13:20:01.000Z</time>
      </trkpt>
      <trkpt lat="43.38133" lon="2.70633">
        <ele>484</ele>
        <time>2016-12-27T13:20:03.000Z</time>
      </trkpt>
      <trkpt lat="43.38145" lon="2.70624">
        <ele>483</ele>
        <time>2016-12-27T13:20:07.000Z</time>
      </trkpt>
      <trkpt lat="43.38145" lon="2.70624">
        <ele>483</ele>
        <time>2016-12-27T13:20:09.000Z</time>
      </trkpt>
      <trkpt lat="43.38145" lon="2.70624">
        <ele>483</ele>
        <time>2016-12-27T13:20:11.000Z</time>
      </trkpt>
      <trkpt lat="43.38145" lon="2.70624">
        <ele>483</ele>
        <time>2016-12-27T13:20:13.000Z</time>
      </trkpt>
      <trkpt lat="43.38145" lon="2.70624">
        <ele>483</ele>
        <time>2016-12-27T13:20:15.000Z</time>
      </trkpt>
      <trkpt lat="43.38145" lon="2.70624">
        <ele>483</ele>
        <time>2016-12-27T13:20:17.000Z</time>
      </trkpt>
      <trkpt lat="43.38187" lon="2.70617">
        <ele>484</ele>
        <time>2016-12-27T13:20:23.000Z</time>
      </trkpt>
      <trkpt lat="43.38187" lon="2.70617">
        <ele>484</ele>
        <time>2016-12-27T13:20:25.000Z</time>
      </trkpt>
      <trkpt lat="43.38202" lon="2.70618">
        <ele>484</ele>
        <time>2016-12-27T13:20:27.000Z</time>
      </trkpt>
      <trkpt lat="43.38219" lon="2.70626">
        <ele>485</ele>
        <time>2016-12-27T13:20:31.000Z</time>
      </trkpt>
      <trkpt lat="43.38219" lon="2.70626">
        <ele>485</ele>
        <time>2016-12-27T13:20:33.000Z</time>
      </trkpt>
      <trkpt lat="43.38234" lon="2.7063">
        <ele>486</ele>
        <time>2016-12-27T13:20:35.000Z</time>
      </trkpt>
      <trkpt lat="43.38234" lon="2.7063">
        <ele>486</ele>
        <time>2016-12-27T13:20:37.000Z</time>
      </trkpt>
      <trkpt lat="43.3825" lon="2.70631">
        <ele>486</ele>
        <time>2016-12-27T13:20:39.000Z</time>
      </trkpt>
      <trkpt lat="43.38267" lon="2.7063">
        <ele>485</ele>
        <time>2016-12-27T13:20:43.000Z</time>
      </trkpt>
      <trkpt lat="43.38267" lon="2.7063">
        <ele>485</ele>
        <time>2016-12-27T13:20:45.000Z</time>
      </trkpt>
      <trkpt lat="43.38282" lon="2.70627">
        <ele>484</ele>
        <time>2016-12-27T13:20:47.000Z</time>
      </trkpt>
      <trkpt lat="43.38282" lon="2.70627">
        <ele>484</ele>
        <time>2016-12-27T13:20:49.000Z</time>
      </trkpt>
      <trkpt lat="43.38296" lon="2.70621">
        <ele>484</ele>
        <time>2016-12-27T13:20:51.000Z</time>
      </trkpt>
      <trkpt lat="43.38308" lon="2.70615">
        <ele>481</ele>
        <time>2016-12-27T13:20:55.000Z</time>
      </trkpt>
      <trkpt lat="43.38308" lon="2.70615">
        <ele>481</ele>
        <time>2016-12-27T13:20:57.000Z</time>
      </trkpt>
      <trkpt lat="43.38308" lon="2.70615">
        <ele>481</ele>
        <time>2016-12-27T13:20:59.000Z</time>
      </trkpt>
      <trkpt lat="43.38308" lon="2.70615">
        <ele>481</ele>
        <time>2016-12-27T13:21:01.000Z</time>
      </trkpt>
      <trkpt lat="43.38308" lon="2.70615">
        <ele>481</ele>
        <time>2016-12-27T13:21:03.000Z</time>
      </trkpt>
      <trkpt lat="43.38308" lon="2.70615">
        <ele>481</ele>
        <time>2016-12-27T13:21:05.000Z</time>
      </trkpt>
      <trkpt lat="43.38308" lon="2.70615">
        <ele>481</ele>
        <time>2016-12-27T13:21:07.000Z</time>
      </trkpt>
      <trkpt lat="43.38308" lon="2.70615">
        <ele>481</ele>
        <time>2016-12-27T13:21:09.000Z</time>
      </trkpt>
      <trkpt lat="43.38331" lon="2.70604">
        <ele>474</ele>
        <time>2016-12-27T13:21:24.000Z</time>
      </trkpt>
      <trkpt lat="43.38331" lon="2.70604">
        <ele>474</ele>
        <time>2016-12-27T13:21:28.000Z</time>
      </trkpt>
      <trkpt lat="43.38331" lon="2.70604">
        <ele>474</ele>
        <time>2016-12-27T13:21:31.000Z</time>
      </trkpt>
      <trkpt lat="43.38348" lon="2.70594">
        <ele>474</ele>
        <time>2016-12-27T13:21:33.000Z</time>
      </trkpt>
      <trkpt lat="43.38348" lon="2.70594">
        <ele>474</ele>
        <time>2016-12-27T13:21:37.000Z</time>
      </trkpt>
      <trkpt lat="43.38358" lon="2.70588">
        <ele>473</ele>
        <time>2016-12-27T13:21:39.000Z</time>
      </trkpt>
      <trkpt lat="43.38365" lon="2.70589">
        <ele>473</ele>
        <time>2016-12-27T13:21:45.000Z</time>
      </trkpt>
      <trkpt lat="43.38372" lon="2.70589">
        <ele>474</ele>
        <time>2016-12-27T13:21:47.000Z</time>
      </trkpt>
      <trkpt lat="43.38378" lon="2.70589">
        <ele>474</ele>
        <time>2016-12-27T13:21:49.000Z</time>
      </trkpt>
      <trkpt lat="43.38385" lon="2.70589">
        <ele>474</ele>
        <time>2016-12-27T13:21:51.000Z</time>
      </trkpt>
      <trkpt lat="43.38392" lon="2.7059">
        <ele>474</ele>
        <time>2016-12-27T13:21:53.000Z</time>
      </trkpt>
      <trkpt lat="43.38392" lon="2.7059">
        <ele>474</ele>
        <time>2016-12-27T13:21:55.000Z</time>
      </trkpt>
      <trkpt lat="43.38392" lon="2.7059">
        <ele>474</ele>
        <time>2016-12-27T13:21:57.000Z</time>
      </trkpt>
      <trkpt lat="43.38424" lon="2.70593">
        <ele>476</ele>
        <time>2016-12-27T13:22:01.000Z</time>
      </trkpt>
      <trkpt lat="43.38443" lon="2.706">
        <ele>475</ele>
        <time>2016-12-27T13:22:06.000Z</time>
      </trkpt>
      <trkpt lat="43.38443" lon="2.706">
        <ele>475</ele>
        <time>2016-12-27T13:22:10.000Z</time>
      </trkpt>
      <trkpt lat="43.38443" lon="2.706">
        <ele>475</ele>
        <time>2016-12-27T13:22:12.000Z</time>
      </trkpt>
      <trkpt lat="43.38443" lon="2.706">
        <ele>475</ele>
        <time>2016-12-27T13:22:14.000Z</time>
      </trkpt>
      <trkpt lat="43.38443" lon="2.706">
        <ele>475</ele>
        <time>2016-12-27T13:22:16.000Z</time>
      </trkpt>
      <trkpt lat="43.38475" lon="2.70604">
        <ele>467</ele>
        <time>2016-12-27T13:22:20.000Z</time>
      </trkpt>
      <trkpt lat="43.38485" lon="2.70602">
        <ele>467</ele>
        <time>2016-12-27T13:22:24.000Z</time>
      </trkpt>
      <trkpt lat="43.38497" lon="2.70602">
        <ele>466</ele>
        <time>2016-12-27T13:22:28.000Z</time>
      </trkpt>
      <trkpt lat="43.38508" lon="2.70601">
        <ele>461</ele>
        <time>2016-12-27T13:22:32.000Z</time>
      </trkpt>
      <trkpt lat="43.38528" lon="2.70597">
        <ele>458</ele>
        <time>2016-12-27T13:22:36.000Z</time>
      </trkpt>
      <trkpt lat="43.38536" lon="2.70592">
        <ele>458</ele>
        <time>2016-12-27T13:22:38.000Z</time>
      </trkpt>
      <trkpt lat="43.38536" lon="2.70592">
        <ele>458</ele>
        <time>2016-12-27T13:22:40.000Z</time>
      </trkpt>
      <trkpt lat="43.38536" lon="2.70592">
        <ele>458</ele>
        <time>2016-12-27T13:22:42.000Z</time>
      </trkpt>
      <trkpt lat="43.38536" lon="2.70592">
        <ele>458</ele>
        <time>2016-12-27T13:22:44.000Z</time>
      </trkpt>
      <trkpt lat="43.38562" lon="2.70582">
        <ele>450</ele>
        <time>2016-12-27T13:22:48.000Z</time>
      </trkpt>
      <trkpt lat="43.38574" lon="2.70573">
        <ele>446</ele>
        <time>2016-12-27T13:22:52.000Z</time>
      </trkpt>
      <trkpt lat="43.38574" lon="2.70573">
        <ele>446</ele>
        <time>2016-12-27T13:22:54.000Z</time>
      </trkpt>
      <trkpt lat="43.38574" lon="2.70573">
        <ele>446</ele>
        <time>2016-12-27T13:22:56.000Z</time>
      </trkpt>
      <trkpt lat="43.38574" lon="2.70573">
        <ele>446</ele>
        <time>2016-12-27T13:22:58.000Z</time>
      </trkpt>
      <trkpt lat="43.38574" lon="2.70573">
        <ele>446</ele>
        <time>2016-12-27T13:23:00.000Z</time>
      </trkpt>
      <trkpt lat="43.38574" lon="2.70573">
        <ele>446</ele>
        <time>2016-12-27T13:23:02.000Z</time>
      </trkpt>
      <trkpt lat="43.38608" lon="2.7055">
        <ele>432</ele>
        <time>2016-12-27T13:23:06.000Z</time>
      </trkpt>
      <trkpt lat="43.38618" lon="2.70544">
        <ele>428</ele>
        <time>2016-12-27T13:23:10.000Z</time>
      </trkpt>
      <trkpt lat="43.38629" lon="2.70534">
        <ele>425</ele>
        <time>2016-12-27T13:23:14.000Z</time>
      </trkpt>
      <trkpt lat="43.38637" lon="2.70525">
        <ele>422</ele>
        <time>2016-12-27T13:23:18.000Z</time>
      </trkpt>
      <trkpt lat="43.38637" lon="2.70525">
        <ele>422</ele>
        <time>2016-12-27T13:23:20.000Z</time>
      </trkpt>
      <trkpt lat="43.38637" lon="2.70525">
        <ele>422</ele>
        <time>2016-12-27T13:23:22.000Z</time>
      </trkpt>
      <trkpt lat="43.38642" lon="2.70519">
        <ele>419</ele>
        <time>2016-12-27T13:23:49.000Z</time>
      </trkpt>
      <trkpt lat="43.38647" lon="2.70513">
        <ele>419</ele>
        <time>2016-12-27T13:23:51.000Z</time>
      </trkpt>
      <trkpt lat="43.38652" lon="2.70508">
        <ele>418</ele>
        <time>2016-12-27T13:23:53.000Z</time>
      </trkpt>
      <trkpt lat="43.38657" lon="2.70503">
        <ele>418</ele>
        <time>2016-12-27T13:23:55.000Z</time>
      </trkpt>
      <trkpt lat="43.38661" lon="2.70498">
        <ele>418</ele>
        <time>2016-12-27T13:23:57.000Z</time>
      </trkpt>
      <trkpt lat="43.38661" lon="2.70498">
        <ele>418</ele>
        <time>2016-12-27T13:23:59.000Z</time>
      </trkpt>
      <trkpt lat="43.38661" lon="2.70498">
        <ele>418</ele>
        <time>2016-12-27T13:24:01.000Z</time>
      </trkpt>
      <trkpt lat="43.38687" lon="2.70467">
        <ele>414</ele>
        <time>2016-12-27T13:24:07.000Z</time>
      </trkpt>
      <trkpt lat="43.38687" lon="2.70467">
        <ele>414</ele>
        <time>2016-12-27T13:24:09.000Z</time>
      </trkpt>
      <trkpt lat="43.38687" lon="2.70467">
        <ele>414</ele>
        <time>2016-12-27T13:24:11.000Z</time>
      </trkpt>
      <trkpt lat="43.38687" lon="2.70467">
        <ele>414</ele>
        <time>2016-12-27T13:24:13.000Z</time>
      </trkpt>
      <trkpt lat="43.38687" lon="2.70467">
        <ele>414</ele>
        <time>2016-12-27T13:24:15.000Z</time>
      </trkpt>
      <trkpt lat="43.38687" lon="2.70467">
        <ele>414</ele>
        <time>2016-12-27T13:24:17.000Z</time>
      </trkpt>
      <trkpt lat="43.38687" lon="2.70467">
        <ele>414</ele>
        <time>2016-12-27T13:24:19.000Z</time>
      </trkpt>
      <trkpt lat="43.38687" lon="2.70467">
        <ele>414</ele>
        <time>2016-12-27T13:24:21.000Z</time>
      </trkpt>
      <trkpt lat="43.38717" lon="2.70415">
        <ele>407</ele>
        <time>2016-12-27T13:24:25.000Z</time>
      </trkpt>
      <trkpt lat="43.38717" lon="2.70415">
        <ele>407</ele>
        <time>2016-12-27T13:24:27.000Z</time>
      </trkpt>
      <trkpt lat="43.38717" lon="2.70415">
        <ele>407</ele>
        <time>2016-12-27T13:24:29.000Z</time>
      </trkpt>
      <trkpt lat="43.38726" lon="2.7039">
        <ele>402</ele>
        <time>2016-12-27T13:24:33.000Z</time>
      </trkpt>
      <trkpt lat="43.38726" lon="2.70372">
        <ele>399</ele>
        <time>2016-12-27T13:24:37.000Z</time>
      </trkpt>
      <trkpt lat="43.38726" lon="2.70372">
        <ele>399</ele>
        <time>2016-12-27T13:24:39.000Z</time>
      </trkpt>
      <trkpt lat="43.38726" lon="2.70372">
        <ele>399</ele>
        <time>2016-12-27T13:24:41.000Z</time>
      </trkpt>
      <trkpt lat="43.38726" lon="2.70372">
        <ele>399</ele>
        <time>2016-12-27T13:24:43.000Z</time>
      </trkpt>
      <trkpt lat="43.38726" lon="2.70372">
        <ele>399</ele>
        <time>2016-12-27T13:24:45.000Z</time>
      </trkpt>
      <trkpt lat="43.38742" lon="2.70352">
        <ele>393</ele>
        <time>2016-12-27T13:24:53.000Z</time>
      </trkpt>
      <trkpt lat="43.38751" lon="2.70367">
        <ele>394</ele>
        <time>2016-12-27T13:24:59.000Z</time>
      </trkpt>
      <trkpt lat="43.38751" lon="2.70367">
        <ele>394</ele>
        <time>2016-12-27T13:25:01.000Z</time>
      </trkpt>
      <trkpt lat="43.38755" lon="2.70384">
        <ele>394</ele>
        <time>2016-12-27T13:25:03.000Z</time>
      </trkpt>
      <trkpt lat="43.38762" lon="2.704">
        <ele>393</ele>
        <time>2016-12-27T13:25:07.000Z</time>
      </trkpt>
      <trkpt lat="43.38767" lon="2.70415">
        <ele>392</ele>
        <time>2016-12-27T13:25:11.000Z</time>
      </trkpt>
      <trkpt lat="43.38767" lon="2.70415">
        <ele>392</ele>
        <time>2016-12-27T13:25:13.000Z</time>
      </trkpt>
      <trkpt lat="43.38767" lon="2.70415">
        <ele>392</ele>
        <time>2016-12-27T13:25:15.000Z</time>
      </trkpt>
      <trkpt lat="43.38767" lon="2.70415">
        <ele>392</ele>
        <time>2016-12-27T13:25:17.000Z</time>
      </trkpt>
      <trkpt lat="43.38767" lon="2.70415">
        <ele>392</ele>
        <time>2016-12-27T13:25:19.000Z</time>
      </trkpt>
      <trkpt lat="43.38767" lon="2.70415">
        <ele>392</ele>
        <time>2016-12-27T13:25:21.000Z</time>
      </trkpt>
      <trkpt lat="43.38767" lon="2.70415">
        <ele>392</ele>
        <time>2016-12-27T13:25:23.000Z</time>
      </trkpt>
      <trkpt lat="43.38767" lon="2.70415">
        <ele>392</ele>
        <time>2016-12-27T13:25:25.000Z</time>
      </trkpt>
      <trkpt lat="43.38778" lon="2.70452">
        <ele>388</ele>
        <time>2016-12-27T13:25:29.000Z</time>
      </trkpt>
      <trkpt lat="43.38784" lon="2.70477">
        <ele>388</ele>
        <time>2016-12-27T13:25:31.000Z</time>
      </trkpt>
      <trkpt lat="43.38789" lon="2.70497">
        <ele>387</ele>
        <time>2016-12-27T13:25:33.000Z</time>
      </trkpt>
      <trkpt lat="43.38793" lon="2.70513">
        <ele>387</ele>
        <time>2016-12-27T13:25:35.000Z</time>
      </trkpt>
      <trkpt lat="43.38796" lon="2.70526">
        <ele>387</ele>
        <time>2016-12-27T13:25:37.000Z</time>
      </trkpt>
      <trkpt lat="43.38796" lon="2.70526">
        <ele>387</ele>
        <time>2016-12-27T13:25:39.000Z</time>
      </trkpt>
      <trkpt lat="43.38796" lon="2.70526">
        <ele>387</ele>
        <time>2016-12-27T13:25:41.000Z</time>
      </trkpt>
      <trkpt lat="43.38796" lon="2.70526">
        <ele>387</ele>
        <time>2016-12-27T13:25:43.000Z</time>
      </trkpt>
      <trkpt lat="43.38796" lon="2.70526">
        <ele>387</ele>
        <time>2016-12-27T13:25:45.000Z</time>
      </trkpt>
      <trkpt lat="43.38796" lon="2.70526">
        <ele>387</ele>
        <time>2016-12-27T13:25:47.000Z</time>
      </trkpt>
      <trkpt lat="43.38805" lon="2.70602">
        <ele>386</ele>
        <time>2016-12-27T13:25:51.000Z</time>
      </trkpt>
      <trkpt lat="43.38805" lon="2.70623">
        <ele>385</ele>
        <time>2016-12-27T13:25:55.000Z</time>
      </trkpt>
      <trkpt lat="43.38805" lon="2.70623">
        <ele>385</ele>
        <time>2016-12-27T13:25:57.000Z</time>
      </trkpt>
      <trkpt lat="43.38805" lon="2.70623">
        <ele>385</ele>
        <time>2016-12-27T13:25:59.000Z</time>
      </trkpt>
      <trkpt lat="43.38805" lon="2.70623">
        <ele>385</ele>
        <time>2016-12-27T13:26:01.000Z</time>
      </trkpt>
      <trkpt lat="43.38805" lon="2.70623">
        <ele>385</ele>
        <time>2016-12-27T13:26:03.000Z</time>
      </trkpt>
      <trkpt lat="43.38805" lon="2.70623">
        <ele>385</ele>
        <time>2016-12-27T13:26:05.000Z</time>
      </trkpt>
      <trkpt lat="43.38805" lon="2.70623">
        <ele>385</ele>
        <time>2016-12-27T13:26:11.000Z</time>
      </trkpt>
      <trkpt lat="43.38805" lon="2.70623">
        <ele>385</ele>
        <time>2016-12-27T13:26:13.000Z</time>
      </trkpt>
      <trkpt lat="43.38842" lon="2.70646">
        <ele>385</ele>
        <time>2016-12-27T13:26:17.000Z</time>
      </trkpt>
      <trkpt lat="43.38855" lon="2.70649">
        <ele>387</ele>
        <time>2016-12-27T13:26:21.000Z</time>
      </trkpt>
      <trkpt lat="43.38869" lon="2.70652">
        <ele>389</ele>
        <time>2016-12-27T13:26:25.000Z</time>
      </trkpt>
      <trkpt lat="43.38884" lon="2.70652">
        <ele>394</ele>
        <time>2016-12-27T13:26:29.000Z</time>
      </trkpt>
      <trkpt lat="43.38896" lon="2.70655">
        <ele>397</ele>
        <time>2016-12-27T13:26:33.000Z</time>
      </trkpt>
      <trkpt lat="43.38896" lon="2.70655">
        <ele>397</ele>
        <time>2016-12-27T13:26:35.000Z</time>
      </trkpt>
      <trkpt lat="43.38896" lon="2.70655">
        <ele>397</ele>
        <time>2016-12-27T13:26:37.000Z</time>
      </trkpt>
      <trkpt lat="43.3892" lon="2.70664">
        <ele>402</ele>
        <time>2016-12-27T13:26:41.000Z</time>
      </trkpt>
      <trkpt lat="43.38932" lon="2.70662">
        <ele>404</ele>
        <time>2016-12-27T13:26:45.000Z</time>
      </trkpt>
      <trkpt lat="43.38932" lon="2.70662">
        <ele>404</ele>
        <time>2016-12-27T13:26:47.000Z</time>
      </trkpt>
      <trkpt lat="43.38932" lon="2.70662">
        <ele>404</ele>
        <time>2016-12-27T13:26:49.000Z</time>
      </trkpt>
      <trkpt lat="43.38932" lon="2.70662">
        <ele>404</ele>
        <time>2016-12-27T13:26:51.000Z</time>
      </trkpt>
      <trkpt lat="43.38932" lon="2.70662">
        <ele>404</ele>
        <time>2016-12-27T13:26:53.000Z</time>
      </trkpt>
      <trkpt lat="43.38932" lon="2.70662">
        <ele>404</ele>
        <time>2016-12-27T13:26:55.000Z</time>
      </trkpt>
      <trkpt lat="43.38932" lon="2.70662">
        <ele>404</ele>
        <time>2016-12-27T13:26:57.000Z</time>
      </trkpt>
      <trkpt lat="43.38932" lon="2.70662">
        <ele>404</ele>
        <time>2016-12-27T13:26:59.000Z</time>
      </trkpt>
      <trkpt lat="43.38932" lon="2.70662">
        <ele>404</ele>
        <time>2016-12-27T13:27:01.000Z</time>
      </trkpt>
      <trkpt lat="43.38947" lon="2.70655">
        <ele>402</ele>
        <time>2016-12-27T13:27:13.000Z</time>
      </trkpt>
      <trkpt lat="43.38957" lon="2.70651">
        <ele>402</ele>
        <time>2016-12-27T13:27:15.000Z</time>
      </trkpt>
      <trkpt lat="43.38962" lon="2.70649">
        <ele>401</ele>
        <time>2016-12-27T13:27:17.000Z</time>
      </trkpt>
      <trkpt lat="43.38962" lon="2.70649">
        <ele>401</ele>
        <time>2016-12-27T13:27:19.000Z</time>
      </trkpt>
      <trkpt lat="43.38968" lon="2.70647">
        <ele>401</ele>
        <time>2016-12-27T13:27:21.000Z</time>
      </trkpt>
      <trkpt lat="43.38973" lon="2.70645">
        <ele>401</ele>
        <time>2016-12-27T13:27:23.000Z</time>
      </trkpt>
      <trkpt lat="43.38978" lon="2.70645">
        <ele>401</ele>
        <time>2016-12-27T13:27:25.000Z</time>
      </trkpt>
      <trkpt lat="43.38982" lon="2.70645">
        <ele>400</ele>
        <time>2016-12-27T13:27:27.000Z</time>
      </trkpt>
      <trkpt lat="43.38982" lon="2.70645">
        <ele>400</ele>
        <time>2016-12-27T13:27:29.000Z</time>
      </trkpt>
      <trkpt lat="43.38989" lon="2.70645">
        <ele>400</ele>
        <time>2016-12-27T13:27:31.000Z</time>
      </trkpt>
      <trkpt lat="43.38995" lon="2.70646">
        <ele>399</ele>
        <time>2016-12-27T13:27:33.000Z</time>
      </trkpt>
      <trkpt lat="43.39" lon="2.70647">
        <ele>399</ele>
        <time>2016-12-27T13:27:35.000Z</time>
      </trkpt>
      <trkpt lat="43.39006" lon="2.70653">
        <ele>399</ele>
        <time>2016-12-27T13:27:39.000Z</time>
      </trkpt>
      <trkpt lat="43.39012" lon="2.70659">
        <ele>399</ele>
        <time>2016-12-27T13:27:41.000Z</time>
      </trkpt>
      <trkpt lat="43.39018" lon="2.70664">
        <ele>399</ele>
        <time>2016-12-27T13:27:43.000Z</time>
      </trkpt>
      <trkpt lat="43.39022" lon="2.70669">
        <ele>398</ele>
        <time>2016-12-27T13:27:45.000Z</time>
      </trkpt>
      <trkpt lat="43.39022" lon="2.70669">
        <ele>398</ele>
        <time>2016-12-27T13:27:47.000Z</time>
      </trkpt>
      <trkpt lat="43.39022" lon="2.70669">
        <ele>398</ele>
        <time>2016-12-27T13:27:49.000Z</time>
      </trkpt>
      <trkpt lat="43.39022" lon="2.70669">
        <ele>398</ele>
        <time>2016-12-27T13:27:51.000Z</time>
      </trkpt>
      <trkpt lat="43.3903" lon="2.70688">
        <ele>397</ele>
        <time>2016-12-27T13:27:55.000Z</time>
      </trkpt>
      <trkpt lat="43.39036" lon="2.70701">
        <ele>397</ele>
        <time>2016-12-27T13:27:57.000Z</time>
      </trkpt>
      <trkpt lat="43.39041" lon="2.70709">
        <ele>397</ele>
        <time>2016-12-27T13:27:59.000Z</time>
      </trkpt>
      <trkpt lat="43.39046" lon="2.70717">
        <ele>397</ele>
        <time>2016-12-27T13:28:01.000Z</time>
      </trkpt>
      <trkpt lat="43.39051" lon="2.70723">
        <ele>397</ele>
        <time>2016-12-27T13:28:03.000Z</time>
      </trkpt>
      <trkpt lat="43.39061" lon="2.70737">
        <ele>397</ele>
        <time>2016-12-27T13:28:05.000Z</time>
      </trkpt>
      <trkpt lat="43.39069" lon="2.7075">
        <ele>397</ele>
        <time>2016-12-27T13:28:09.000Z</time>
      </trkpt>
      <trkpt lat="43.39069" lon="2.7075">
        <ele>397</ele>
        <time>2016-12-27T13:28:11.000Z</time>
      </trkpt>
      <trkpt lat="43.39069" lon="2.7075">
        <ele>397</ele>
        <time>2016-12-27T13:28:13.000Z</time>
      </trkpt>
      <trkpt lat="43.39069" lon="2.7075">
        <ele>397</ele>
        <time>2016-12-27T13:28:15.000Z</time>
      </trkpt>
      <trkpt lat="43.39069" lon="2.7075">
        <ele>397</ele>
        <time>2016-12-27T13:28:19.000Z</time>
      </trkpt>
      <trkpt lat="43.39069" lon="2.7075">
        <ele>397</ele>
        <time>2016-12-27T13:28:21.000Z</time>
      </trkpt>
      <trkpt lat="43.39069" lon="2.7075">
        <ele>397</ele>
        <time>2016-12-27T13:28:23.000Z</time>
      </trkpt>
      <trkpt lat="43.39069" lon="2.7075">
        <ele>397</ele>
        <time>2016-12-27T13:28:25.000Z</time>
      </trkpt>
      <trkpt lat="43.39105" lon="2.70796">
        <ele>397</ele>
        <time>2016-12-27T13:28:33.000Z</time>
      </trkpt>
      <trkpt lat="43.39114" lon="2.70786">
        <ele>397</ele>
        <time>2016-12-27T13:28:39.000Z</time>
      </trkpt>
      <trkpt lat="43.39122" lon="2.70775">
        <ele>397</ele>
        <time>2016-12-27T13:28:43.000Z</time>
      </trkpt>
      <trkpt lat="43.39122" lon="2.70775">
        <ele>397</ele>
        <time>2016-12-27T13:28:45.000Z</time>
      </trkpt>
      <trkpt lat="43.39122" lon="2.70775">
        <ele>397</ele>
        <time>2016-12-27T13:28:47.000Z</time>
      </trkpt>
      <trkpt lat="43.39122" lon="2.70775">
        <ele>397</ele>
        <time>2016-12-27T13:28:49.000Z</time>
      </trkpt>
      <trkpt lat="43.3914" lon="2.70753">
        <ele>397</ele>
        <time>2016-12-27T13:28:53.000Z</time>
      </trkpt>
      <trkpt lat="43.3915" lon="2.70744">
        <ele>397</ele>
        <time>2016-12-27T13:28:57.000Z</time>
      </trkpt>
      <trkpt lat="43.39159" lon="2.70735">
        <ele>397</ele>
        <time>2016-12-27T13:29:01.000Z</time>
      </trkpt>
      <trkpt lat="43.39159" lon="2.70735">
        <ele>397</ele>
        <time>2016-12-27T13:29:03.000Z</time>
      </trkpt>
      <trkpt lat="43.39159" lon="2.70735">
        <ele>397</ele>
        <time>2016-12-27T13:29:05.000Z</time>
      </trkpt>
      <trkpt lat="43.39159" lon="2.70735">
        <ele>397</ele>
        <time>2016-12-27T13:29:07.000Z</time>
      </trkpt>
      <trkpt lat="43.39159" lon="2.70735">
        <ele>397</ele>
        <time>2016-12-27T13:29:09.000Z</time>
      </trkpt>
      <trkpt lat="43.3918" lon="2.70711">
        <ele>396</ele>
        <time>2016-12-27T13:29:11.000Z</time>
      </trkpt>
      <trkpt lat="43.39189" lon="2.70702">
        <ele>396</ele>
        <time>2016-12-27T13:29:15.000Z</time>
      </trkpt>
      <trkpt lat="43.39189" lon="2.70702">
        <ele>396</ele>
        <time>2016-12-27T13:29:17.000Z</time>
      </trkpt>
      <trkpt lat="43.39189" lon="2.70702">
        <ele>396</ele>
        <time>2016-12-27T13:29:19.000Z</time>
      </trkpt>
      <trkpt lat="43.39189" lon="2.70702">
        <ele>396</ele>
        <time>2016-12-27T13:29:21.000Z</time>
      </trkpt>
      <trkpt lat="43.39189" lon="2.70702">
        <ele>396</ele>
        <time>2016-12-27T13:29:23.000Z</time>
      </trkpt>
      <trkpt lat="43.39202" lon="2.70688">
        <ele>394</ele>
        <time>2016-12-27T13:29:27.000Z</time>
      </trkpt>
      <trkpt lat="43.39211" lon="2.7068">
        <ele>393</ele>
        <time>2016-12-27T13:29:29.000Z</time>
      </trkpt>
      <trkpt lat="43.39218" lon="2.70674">
        <ele>392</ele>
        <time>2016-12-27T13:29:31.000Z</time>
      </trkpt>
      <trkpt lat="43.39224" lon="2.70669">
        <ele>392</ele>
        <time>2016-12-27T13:29:33.000Z</time>
      </trkpt>
      <trkpt lat="43.3923" lon="2.70664">
        <ele>391</ele>
        <time>2016-12-27T13:29:35.000Z</time>
      </trkpt>
      <trkpt lat="43.39241" lon="2.70654">
        <ele>389</ele>
        <time>2016-12-27T13:29:37.000Z</time>
      </trkpt>
      <trkpt lat="43.39241" lon="2.70654">
        <ele>389</ele>
        <time>2016-12-27T13:29:41.000Z</time>
      </trkpt>
      <trkpt lat="43.39241" lon="2.70654">
        <ele>389</ele>
        <time>2016-12-27T13:29:43.000Z</time>
      </trkpt>
      <trkpt lat="43.39241" lon="2.70654">
        <ele>389</ele>
        <time>2016-12-27T13:29:45.000Z</time>
      </trkpt>
      <trkpt lat="43.39277" lon="2.70623">
        <ele>381</ele>
        <time>2016-12-27T13:29:51.000Z</time>
      </trkpt>
      <trkpt lat="43.39277" lon="2.70623">
        <ele>381</ele>
        <time>2016-12-27T13:29:54.000Z</time>
      </trkpt>
      <trkpt lat="43.39277" lon="2.70623">
        <ele>381</ele>
        <time>2016-12-27T13:29:55.000Z</time>
      </trkpt>
      <trkpt lat="43.39277" lon="2.70623">
        <ele>381</ele>
        <time>2016-12-27T13:29:57.000Z</time>
      </trkpt>
      <trkpt lat="43.39277" lon="2.70623">
        <ele>381</ele>
        <time>2016-12-27T13:29:59.000Z</time>
      </trkpt>
      <trkpt lat="43.39303" lon="2.70605">
        <ele>374</ele>
        <time>2016-12-27T13:30:01.000Z</time>
      </trkpt>
      <trkpt lat="43.39312" lon="2.70595">
        <ele>373</ele>
        <time>2016-12-27T13:30:05.000Z</time>
      </trkpt>
      <trkpt lat="43.39312" lon="2.70595">
        <ele>373</ele>
        <time>2016-12-27T13:30:07.000Z</time>
      </trkpt>
      <trkpt lat="43.39312" lon="2.70595">
        <ele>373</ele>
        <time>2016-12-27T13:30:09.000Z</time>
      </trkpt>
      <trkpt lat="43.39312" lon="2.70595">
        <ele>373</ele>
        <time>2016-12-27T13:30:11.000Z</time>
      </trkpt>
      <trkpt lat="43.39312" lon="2.70595">
        <ele>373</ele>
        <time>2016-12-27T13:30:13.000Z</time>
      </trkpt>
      <trkpt lat="43.39312" lon="2.70595">
        <ele>373</ele>
        <time>2016-12-27T13:30:15.000Z</time>
      </trkpt>
      <trkpt lat="43.39312" lon="2.70595">
        <ele>373</ele>
        <time>2016-12-27T13:30:17.000Z</time>
      </trkpt>
      <trkpt lat="43.39312" lon="2.70595">
        <ele>373</ele>
        <time>2016-12-27T13:30:19.000Z</time>
      </trkpt>
      <trkpt lat="43.39312" lon="2.70595">
        <ele>373</ele>
        <time>2016-12-27T13:30:21.000Z</time>
      </trkpt>
      <trkpt lat="43.39328" lon="2.70584">
        <ele>359</ele>
        <time>2016-12-27T13:32:16.000Z</time>
      </trkpt>
      <trkpt lat="43.39328" lon="2.70584">
        <ele>359</ele>
        <time>2016-12-27T13:32:18.000Z</time>
      </trkpt>
      <trkpt lat="43.39328" lon="2.70584">
        <ele>359</ele>
        <time>2016-12-27T13:32:20.000Z</time>
      </trkpt>
      <trkpt lat="43.39328" lon="2.70584">
        <ele>359</ele>
        <time>2016-12-27T13:32:22.000Z</time>
      </trkpt>
      <trkpt lat="43.39337" lon="2.70578">
        <ele>358</ele>
        <time>2016-12-27T13:33:40.000Z</time>
      </trkpt>
      <trkpt lat="43.39341" lon="2.70577">
        <ele>358</ele>
        <time>2016-12-27T13:33:42.000Z</time>
      </trkpt>
      <trkpt lat="43.39346" lon="2.70582">
        <ele>358</ele>
        <time>2016-12-27T13:33:46.000Z</time>
      </trkpt>
      <trkpt lat="43.39346" lon="2.70582">
        <ele>358</ele>
        <time>2016-12-27T13:33:48.000Z</time>
      </trkpt>
      <trkpt lat="43.39349" lon="2.70601">
        <ele>357</ele>
        <time>2016-12-27T13:34:02.000Z</time>
      </trkpt>
      <trkpt lat="43.39352" lon="2.70612">
        <ele>357</ele>
        <time>2016-12-27T13:34:04.000Z</time>
      </trkpt>
      <trkpt lat="43.39354" lon="2.70618">
        <ele>357</ele>
        <time>2016-12-27T13:34:06.000Z</time>
      </trkpt>
      <trkpt lat="43.39354" lon="2.70618">
        <ele>357</ele>
        <time>2016-12-27T13:34:08.000Z</time>
      </trkpt>
      <trkpt lat="43.39354" lon="2.70618">
        <ele>357</ele>
        <time>2016-12-27T13:34:10.000Z</time>
      </trkpt>
      <trkpt lat="43.3936" lon="2.7062">
        <ele>358</ele>
        <time>2016-12-27T13:34:12.000Z</time>
      </trkpt>
      <trkpt lat="43.39364" lon="2.7062">
        <ele>358</ele>
        <time>2016-12-27T13:34:14.000Z</time>
      </trkpt>
      <trkpt lat="43.39364" lon="2.7062">
        <ele>358</ele>
        <time>2016-12-27T13:34:16.000Z</time>
      </trkpt>
      <trkpt lat="43.39368" lon="2.70617">
        <ele>358</ele>
        <time>2016-12-27T13:34:18.000Z</time>
      </trkpt>
      <trkpt lat="43.39368" lon="2.70617">
        <ele>358</ele>
        <time>2016-12-27T13:34:22.000Z</time>
      </trkpt>
      <trkpt lat="43.39368" lon="2.70617">
        <ele>358</ele>
        <time>2016-12-27T13:34:24.000Z</time>
      </trkpt>
      <trkpt lat="43.39368" lon="2.70617">
        <ele>358</ele>
        <time>2016-12-27T13:34:26.000Z</time>
      </trkpt>
      <trkpt lat="43.39368" lon="2.70617">
        <ele>358</ele>
        <time>2016-12-27T13:34:28.000Z</time>
      </trkpt>
      <trkpt lat="43.39382" lon="2.7061">
        <ele>360</ele>
        <time>2016-12-27T13:34:32.000Z</time>
      </trkpt>
      <trkpt lat="43.39391" lon="2.70607">
        <ele>360</ele>
        <time>2016-12-27T13:34:34.000Z</time>
      </trkpt>
      <trkpt lat="43.39398" lon="2.70606">
        <ele>361</ele>
        <time>2016-12-27T13:34:36.000Z</time>
      </trkpt>
      <trkpt lat="43.39404" lon="2.70605">
        <ele>361</ele>
        <time>2016-12-27T13:34:38.000Z</time>
      </trkpt>
      <trkpt lat="43.39408" lon="2.70605">
        <ele>362</ele>
        <time>2016-12-27T13:34:40.000Z</time>
      </trkpt>
      <trkpt lat="43.39408" lon="2.70605">
        <ele>362</ele>
        <time>2016-12-27T13:34:42.000Z</time>
      </trkpt>
      <trkpt lat="43.39408" lon="2.70605">
        <ele>362</ele>
        <time>2016-12-27T13:34:44.000Z</time>
      </trkpt>
      <trkpt lat="43.39428" lon="2.70606">
        <ele>363</ele>
        <time>2016-12-27T13:34:46.000Z</time>
      </trkpt>
      <trkpt lat="43.39441" lon="2.70604">
        <ele>366</ele>
        <time>2016-12-27T13:34:52.000Z</time>
      </trkpt>
      <trkpt lat="43.39441" lon="2.70604">
        <ele>366</ele>
        <time>2016-12-27T13:34:54.000Z</time>
      </trkpt>
      <trkpt lat="43.39441" lon="2.70604">
        <ele>366</ele>
        <time>2016-12-27T13:34:56.000Z</time>
      </trkpt>
      <trkpt lat="43.39441" lon="2.70604">
        <ele>366</ele>
        <time>2016-12-27T13:34:58.000Z</time>
      </trkpt>
      <trkpt lat="43.39441" lon="2.70604">
        <ele>366</ele>
        <time>2016-12-27T13:35:00.000Z</time>
      </trkpt>
      <trkpt lat="43.39441" lon="2.70604">
        <ele>366</ele>
        <time>2016-12-27T13:35:02.000Z</time>
      </trkpt>
      <trkpt lat="43.39466" lon="2.70607">
        <ele>371</ele>
        <time>2016-12-27T13:35:06.000Z</time>
      </trkpt>
      <trkpt lat="43.39466" lon="2.70607">
        <ele>371</ele>
        <time>2016-12-27T13:35:08.000Z</time>
      </trkpt>
      <trkpt lat="43.39476" lon="2.70609">
        <ele>374</ele>
        <time>2016-12-27T13:35:12.000Z</time>
      </trkpt>
      <trkpt lat="43.39487" lon="2.70614">
        <ele>375</ele>
        <time>2016-12-27T13:35:16.000Z</time>
      </trkpt>
      <trkpt lat="43.39498" lon="2.70619">
        <ele>376</ele>
        <time>2016-12-27T13:35:20.000Z</time>
      </trkpt>
      <trkpt lat="43.39507" lon="2.70622">
        <ele>377</ele>
        <time>2016-12-27T13:35:24.000Z</time>
      </trkpt>
      <trkpt lat="43.39516" lon="2.70625">
        <ele>378</ele>
        <time>2016-12-27T13:35:28.000Z</time>
      </trkpt>
      <trkpt lat="43.39516" lon="2.70625">
        <ele>378</ele>
        <time>2016-12-27T13:35:30.000Z</time>
      </trkpt>
      <trkpt lat="43.39516" lon="2.70625">
        <ele>378</ele>
        <time>2016-12-27T13:35:32.000Z</time>
      </trkpt>
      <trkpt lat="43.39532" lon="2.70628">
        <ele>379</ele>
        <time>2016-12-27T13:35:34.000Z</time>
      </trkpt>
      <trkpt lat="43.3954" lon="2.70629">
        <ele>380</ele>
        <time>2016-12-27T13:35:38.000Z</time>
      </trkpt>
      <trkpt lat="43.3954" lon="2.70629">
        <ele>380</ele>
        <time>2016-12-27T13:35:40.000Z</time>
      </trkpt>
      <trkpt lat="43.3954" lon="2.70629">
        <ele>380</ele>
        <time>2016-12-27T13:35:42.000Z</time>
      </trkpt>
      <trkpt lat="43.3954" lon="2.70629">
        <ele>380</ele>
        <time>2016-12-27T13:35:44.000Z</time>
      </trkpt>
      <trkpt lat="43.3954" lon="2.70629">
        <ele>380</ele>
        <time>2016-12-27T13:35:46.000Z</time>
      </trkpt>
      <trkpt lat="43.3954" lon="2.70629">
        <ele>380</ele>
        <time>2016-12-27T13:35:48.000Z</time>
      </trkpt>
      <trkpt lat="43.3954" lon="2.70629">
        <ele>380</ele>
        <time>2016-12-27T13:35:50.000Z</time>
      </trkpt>
      <trkpt lat="43.3954" lon="2.70629">
        <ele>380</ele>
        <time>2016-12-27T13:35:52.000Z</time>
      </trkpt>
      <trkpt lat="43.3954" lon="2.70629">
        <ele>380</ele>
        <time>2016-12-27T13:35:54.000Z</time>
      </trkpt>
      <trkpt lat="43.39581" lon="2.70649">
        <ele>380</ele>
        <time>2016-12-27T13:35:56.000Z</time>
      </trkpt>
      <trkpt lat="43.3959" lon="2.70655">
        <ele>380</ele>
        <time>2016-12-27T13:36:00.000Z</time>
      </trkpt>
      <trkpt lat="43.39601" lon="2.7066">
        <ele>379</ele>
        <time>2016-12-27T13:36:04.000Z</time>
      </trkpt>
      <trkpt lat="43.39601" lon="2.7066">
        <ele>379</ele>
        <time>2016-12-27T13:36:06.000Z</time>
      </trkpt>
      <trkpt lat="43.39601" lon="2.7066">
        <ele>379</ele>
        <time>2016-12-27T13:36:08.000Z</time>
      </trkpt>
      <trkpt lat="43.39601" lon="2.7066">
        <ele>379</ele>
        <time>2016-12-27T13:36:10.000Z</time>
      </trkpt>
      <trkpt lat="43.39601" lon="2.7066">
        <ele>379</ele>
        <time>2016-12-27T13:36:12.000Z</time>
      </trkpt>
      <trkpt lat="43.39611" lon="2.7067">
        <ele>379</ele>
        <time>2016-12-27T13:36:16.000Z</time>
      </trkpt>
      <trkpt lat="43.39618" lon="2.70678">
        <ele>379</ele>
        <time>2016-12-27T13:36:18.000Z</time>
      </trkpt>
      <trkpt lat="43.39623" lon="2.70685">
        <ele>378</ele>
        <time>2016-12-27T13:36:20.000Z</time>
      </trkpt>
      <trkpt lat="43.39628" lon="2.70691">
        <ele>378</ele>
        <time>2016-12-27T13:36:22.000Z</time>
      </trkpt>
      <trkpt lat="43.39632" lon="2.70697">
        <ele>377</ele>
        <time>2016-12-27T13:36:24.000Z</time>
      </trkpt>
      <trkpt lat="43.39642" lon="2.70705">
        <ele>377</ele>
        <time>2016-12-27T13:36:26.000Z</time>
      </trkpt>
      <trkpt lat="43.39642" lon="2.70705">
        <ele>377</ele>
        <time>2016-12-27T13:36:28.000Z</time>
      </trkpt>
      <trkpt lat="43.39658" lon="2.7071">
        <ele>374</ele>
        <time>2016-12-27T13:36:32.000Z</time>
      </trkpt>
      <trkpt lat="43.39658" lon="2.7071">
        <ele>374</ele>
        <time>2016-12-27T13:36:34.000Z</time>
      </trkpt>
      <trkpt lat="43.39658" lon="2.7071">
        <ele>374</ele>
        <time>2016-12-27T13:36:36.000Z</time>
      </trkpt>
      <trkpt lat="43.39658" lon="2.7071">
        <ele>374</ele>
        <time>2016-12-27T13:36:38.000Z</time>
      </trkpt>
      <trkpt lat="43.39682" lon="2.70711">
        <ele>372</ele>
        <time>2016-12-27T13:36:42.000Z</time>
      </trkpt>
      <trkpt lat="43.39691" lon="2.70718">
        <ele>372</ele>
        <time>2016-12-27T13:36:46.000Z</time>
      </trkpt>
      <trkpt lat="43.39698" lon="2.70735">
        <ele>371</ele>
        <time>2016-12-27T13:36:50.000Z</time>
      </trkpt>
      <trkpt lat="43.39707" lon="2.70749">
        <ele>372</ele>
        <time>2016-12-27T13:36:54.000Z</time>
      </trkpt>
      <trkpt lat="43.39716" lon="2.7076">
        <ele>373</ele>
        <time>2016-12-27T13:36:58.000Z</time>
      </trkpt>
      <trkpt lat="43.39716" lon="2.7076">
        <ele>373</ele>
        <time>2016-12-27T13:37:00.000Z</time>
      </trkpt>
      <trkpt lat="43.39716" lon="2.7076">
        <ele>373</ele>
        <time>2016-12-27T13:37:04.000Z</time>
      </trkpt>
      <trkpt lat="43.39716" lon="2.7076">
        <ele>373</ele>
        <time>2016-12-27T13:37:06.000Z</time>
      </trkpt>
      <trkpt lat="43.39716" lon="2.7076">
        <ele>373</ele>
        <time>2016-12-27T13:37:08.000Z</time>
      </trkpt>
      <trkpt lat="43.39745" lon="2.70784">
        <ele>374</ele>
        <time>2016-12-27T13:37:10.000Z</time>
      </trkpt>
      <trkpt lat="43.39754" lon="2.70794">
        <ele>375</ele>
        <time>2016-12-27T13:37:14.000Z</time>
      </trkpt>
      <trkpt lat="43.39764" lon="2.70808">
        <ele>375</ele>
        <time>2016-12-27T13:37:18.000Z</time>
      </trkpt>
      <trkpt lat="43.39774" lon="2.70819">
        <ele>376</ele>
        <time>2016-12-27T13:37:22.000Z</time>
      </trkpt>
      <trkpt lat="43.39787" lon="2.70832">
        <ele>377</ele>
        <time>2016-12-27T13:37:26.000Z</time>
      </trkpt>
      <trkpt lat="43.39787" lon="2.70832">
        <ele>377</ele>
        <time>2016-12-27T13:37:30.000Z</time>
      </trkpt>
      <trkpt lat="43.39787" lon="2.70832">
        <ele>377</ele>
        <time>2016-12-27T13:37:32.000Z</time>
      </trkpt>
      <trkpt lat="43.39787" lon="2.70832">
        <ele>377</ele>
        <time>2016-12-27T13:37:34.000Z</time>
      </trkpt>
      <trkpt lat="43.39787" lon="2.70832">
        <ele>377</ele>
        <time>2016-12-27T13:37:38.000Z</time>
      </trkpt>
      <trkpt lat="43.39787" lon="2.70832">
        <ele>377</ele>
        <time>2016-12-27T13:37:40.000Z</time>
      </trkpt>
      <trkpt lat="43.39787" lon="2.70832">
        <ele>377</ele>
        <time>2016-12-27T13:37:42.000Z</time>
      </trkpt>
      <trkpt lat="43.39824" lon="2.70857">
        <ele>375</ele>
        <time>2016-12-27T13:38:08.000Z</time>
      </trkpt>
      <trkpt lat="43.39834" lon="2.70859">
        <ele>374</ele>
        <time>2016-12-27T13:38:12.000Z</time>
      </trkpt>
      <trkpt lat="43.3985" lon="2.70855">
        <ele>373</ele>
        <time>2016-12-27T13:38:16.000Z</time>
      </trkpt>
      <trkpt lat="43.39858" lon="2.70854">
        <ele>372</ele>
        <time>2016-12-27T13:38:20.000Z</time>
      </trkpt>
      <trkpt lat="43.39858" lon="2.70854">
        <ele>372</ele>
        <time>2016-12-27T13:38:22.000Z</time>
      </trkpt>
      <trkpt lat="43.39858" lon="2.70854">
        <ele>372</ele>
        <time>2016-12-27T13:38:24.000Z</time>
      </trkpt>
      <trkpt lat="43.39858" lon="2.70854">
        <ele>372</ele>
        <time>2016-12-27T13:38:26.000Z</time>
      </trkpt>
      <trkpt lat="43.39858" lon="2.70854">
        <ele>372</ele>
        <time>2016-12-27T13:38:28.000Z</time>
      </trkpt>
      <trkpt lat="43.39858" lon="2.70854">
        <ele>372</ele>
        <time>2016-12-27T13:38:30.000Z</time>
      </trkpt>
      <trkpt lat="43.39886" lon="2.70843">
        <ele>367</ele>
        <time>2016-12-27T13:38:34.000Z</time>
      </trkpt>
      <trkpt lat="43.39903" lon="2.70835">
        <ele>366</ele>
        <time>2016-12-27T13:38:36.000Z</time>
      </trkpt>
      <trkpt lat="43.39916" lon="2.70828">
        <ele>365</ele>
        <time>2016-12-27T13:38:38.000Z</time>
      </trkpt>
      <trkpt lat="43.39926" lon="2.7082">
        <ele>364</ele>
        <time>2016-12-27T13:38:40.000Z</time>
      </trkpt>
      <trkpt lat="43.39934" lon="2.70813">
        <ele>363</ele>
        <time>2016-12-27T13:38:42.000Z</time>
      </trkpt>
      <trkpt lat="43.39934" lon="2.70813">
        <ele>363</ele>
        <time>2016-12-27T13:38:44.000Z</time>
      </trkpt>
      <trkpt lat="43.39934" lon="2.70813">
        <ele>363</ele>
        <time>2016-12-27T13:38:46.000Z</time>
      </trkpt>
      <trkpt lat="43.39934" lon="2.70813">
        <ele>363</ele>
        <time>2016-12-27T13:38:48.000Z</time>
      </trkpt>
      <trkpt lat="43.39973" lon="2.70773">
        <ele>360</ele>
        <time>2016-12-27T13:38:52.000Z</time>
      </trkpt>
      <trkpt lat="43.39973" lon="2.70773">
        <ele>360</ele>
        <time>2016-12-27T13:38:56.000Z</time>
      </trkpt>
      <trkpt lat="43.39973" lon="2.70773">
        <ele>360</ele>
        <time>2016-12-27T13:38:58.000Z</time>
      </trkpt>
      <trkpt lat="43.39973" lon="2.70773">
        <ele>360</ele>
        <time>2016-12-27T13:39:00.000Z</time>
      </trkpt>
      <trkpt lat="43.39973" lon="2.70773">
        <ele>360</ele>
        <time>2016-12-27T13:39:02.000Z</time>
      </trkpt>
      <trkpt lat="43.39973" lon="2.70773">
        <ele>360</ele>
        <time>2016-12-27T13:39:04.000Z</time>
      </trkpt>
      <trkpt lat="43.40007" lon="2.70725">
        <ele>355</ele>
        <time>2016-12-27T13:39:12.000Z</time>
      </trkpt>
      <trkpt lat="43.40013" lon="2.70714">
        <ele>354</ele>
        <time>2016-12-27T13:39:16.000Z</time>
      </trkpt>
      <trkpt lat="43.40013" lon="2.70714">
        <ele>354</ele>
        <time>2016-12-27T13:39:18.000Z</time>
      </trkpt>
      <trkpt lat="43.40013" lon="2.70714">
        <ele>354</ele>
        <time>2016-12-27T13:39:20.000Z</time>
      </trkpt>
      <trkpt lat="43.40013" lon="2.70714">
        <ele>354</ele>
        <time>2016-12-27T13:39:22.000Z</time>
      </trkpt>
      <trkpt lat="43.40013" lon="2.70714">
        <ele>354</ele>
        <time>2016-12-27T13:39:24.000Z</time>
      </trkpt>
      <trkpt lat="43.40013" lon="2.70714">
        <ele>354</ele>
        <time>2016-12-27T13:39:26.000Z</time>
      </trkpt>
      <trkpt lat="43.40013" lon="2.70714">
        <ele>354</ele>
        <time>2016-12-27T13:39:29.000Z</time>
      </trkpt>
      <trkpt lat="43.40045" lon="2.70717">
        <ele>355</ele>
        <time>2016-12-27T13:39:32.000Z</time>
      </trkpt>
      <trkpt lat="43.40041" lon="2.70728">
        <ele>355</ele>
        <time>2016-12-27T13:39:36.000Z</time>
      </trkpt>
      <trkpt lat="43.40036" lon="2.70743">
        <ele>355</ele>
        <time>2016-12-27T13:39:40.000Z</time>
      </trkpt>
      <trkpt lat="43.40028" lon="2.70765">
        <ele>356</ele>
        <time>2016-12-27T13:39:44.000Z</time>
      </trkpt>
      <trkpt lat="43.40024" lon="2.70777">
        <ele>356</ele>
        <time>2016-12-27T13:39:46.000Z</time>
      </trkpt>
      <trkpt lat="43.4002" lon="2.70789">
        <ele>356</ele>
        <time>2016-12-27T13:39:48.000Z</time>
      </trkpt>
      <trkpt lat="43.40015" lon="2.7081">
        <ele>357</ele>
        <time>2016-12-27T13:39:52.000Z</time>
      </trkpt>
      <trkpt lat="43.40015" lon="2.7081">
        <ele>357</ele>
        <time>2016-12-27T13:39:54.000Z</time>
      </trkpt>
      <trkpt lat="43.40015" lon="2.7081">
        <ele>357</ele>
        <time>2016-12-27T13:39:56.000Z</time>
      </trkpt>
      <trkpt lat="43.40015" lon="2.7081">
        <ele>357</ele>
        <time>2016-12-27T13:39:58.000Z</time>
      </trkpt>
      <trkpt lat="43.40015" lon="2.7081">
        <ele>357</ele>
        <time>2016-12-27T13:40:00.000Z</time>
      </trkpt>
      <trkpt lat="43.40005" lon="2.70838">
        <ele>360</ele>
        <time>2016-12-27T13:40:06.000Z</time>
      </trkpt>
      <trkpt lat="43.39999" lon="2.70857">
        <ele>361</ele>
        <time>2016-12-27T13:40:08.000Z</time>
      </trkpt>
      <trkpt lat="43.39994" lon="2.70871">
        <ele>362</ele>
        <time>2016-12-27T13:40:10.000Z</time>
      </trkpt>
      <trkpt lat="43.3999" lon="2.70882">
        <ele>362</ele>
        <time>2016-12-27T13:40:12.000Z</time>
      </trkpt>
      <trkpt lat="43.39986" lon="2.70892">
        <ele>363</ele>
        <time>2016-12-27T13:40:14.000Z</time>
      </trkpt>
      <trkpt lat="43.39978" lon="2.70911">
        <ele>363</ele>
        <time>2016-12-27T13:40:16.000Z</time>
      </trkpt>
      <trkpt lat="43.39971" lon="2.70929">
        <ele>365</ele>
        <time>2016-12-27T13:40:20.000Z</time>
      </trkpt>
      <trkpt lat="43.39971" lon="2.70929">
        <ele>365</ele>
        <time>2016-12-27T13:40:22.000Z</time>
      </trkpt>
      <trkpt lat="43.39971" lon="2.70929">
        <ele>365</ele>
        <time>2016-12-27T13:40:24.000Z</time>
      </trkpt>
      <trkpt lat="43.39971" lon="2.70929">
        <ele>365</ele>
        <time>2016-12-27T13:40:26.000Z</time>
      </trkpt>
      <trkpt lat="43.39971" lon="2.70929">
        <ele>365</ele>
        <time>2016-12-27T13:40:28.000Z</time>
      </trkpt>
      <trkpt lat="43.39971" lon="2.70929">
        <ele>365</ele>
        <time>2016-12-27T13:40:32.000Z</time>
      </trkpt>
      <trkpt lat="43.39971" lon="2.70929">
        <ele>365</ele>
        <time>2016-12-27T13:40:34.000Z</time>
      </trkpt>
      <trkpt lat="43.39947" lon="2.70979">
        <ele>371</ele>
        <time>2016-12-27T13:40:36.000Z</time>
      </trkpt>
      <trkpt lat="43.3994" lon="2.70992">
        <ele>371</ele>
        <time>2016-12-27T13:40:40.000Z</time>
      </trkpt>
      <trkpt lat="43.3994" lon="2.70992">
        <ele>371</ele>
        <time>2016-12-27T13:40:42.000Z</time>
      </trkpt>
      <trkpt lat="43.39932" lon="2.71006">
        <ele>370</ele>
        <time>2016-12-27T13:40:44.000Z</time>
      </trkpt>
      <trkpt lat="43.39932" lon="2.71006">
        <ele>370</ele>
        <time>2016-12-27T13:40:46.000Z</time>
      </trkpt>
      <trkpt lat="43.39932" lon="2.71006">
        <ele>370</ele>
        <time>2016-12-27T13:40:48.000Z</time>
      </trkpt>
      <trkpt lat="43.39932" lon="2.71006">
        <ele>370</ele>
        <time>2016-12-27T13:40:50.000Z</time>
      </trkpt>
      <trkpt lat="43.39932" lon="2.71006">
        <ele>370</ele>
        <time>2016-12-27T13:40:52.000Z</time>
      </trkpt>
      <trkpt lat="43.39934" lon="2.71034">
        <ele>372</ele>
        <time>2016-12-27T13:40:56.000Z</time>
      </trkpt>
      <trkpt lat="43.39934" lon="2.71034">
        <ele>372</ele>
        <time>2016-12-27T13:40:58.000Z</time>
      </trkpt>
      <trkpt lat="43.39934" lon="2.71034">
        <ele>372</ele>
        <time>2016-12-27T13:41:00.000Z</time>
      </trkpt>
      <trkpt lat="43.39934" lon="2.71034">
        <ele>372</ele>
        <time>2016-12-27T13:41:02.000Z</time>
      </trkpt>
      <trkpt lat="43.39929" lon="2.71058">
        <ele>371</ele>
        <time>2016-12-27T13:41:06.000Z</time>
      </trkpt>
      <trkpt lat="43.39929" lon="2.71058">
        <ele>371</ele>
        <time>2016-12-27T13:41:10.000Z</time>
      </trkpt>
      <trkpt lat="43.39929" lon="2.71058">
        <ele>371</ele>
        <time>2016-12-27T13:41:12.000Z</time>
      </trkpt>
      <trkpt lat="43.39929" lon="2.71058">
        <ele>371</ele>
        <time>2016-12-27T13:41:14.000Z</time>
      </trkpt>
      <trkpt lat="43.39929" lon="2.71058">
        <ele>371</ele>
        <time>2016-12-27T13:41:16.000Z</time>
      </trkpt>
      <trkpt lat="43.39931" lon="2.71049">
        <ele>365</ele>
        <time>2016-12-27T13:42:10.000Z</time>
      </trkpt>
      <trkpt lat="43.39931" lon="2.71042">
        <ele>365</ele>
        <time>2016-12-27T13:42:12.000Z</time>
      </trkpt>
      <trkpt lat="43.39927" lon="2.71035">
        <ele>365</ele>
        <time>2016-12-27T13:42:16.000Z</time>
      </trkpt>
      <trkpt lat="43.39923" lon="2.7103">
        <ele>366</ele>
        <time>2016-12-27T13:42:18.000Z</time>
      </trkpt>
      <trkpt lat="43.39918" lon="2.71028">
        <ele>366</ele>
        <time>2016-12-27T13:42:20.000Z</time>
      </trkpt>
      <trkpt lat="43.39918" lon="2.71028">
        <ele>366</ele>
        <time>2016-12-27T13:42:22.000Z</time>
      </trkpt>
      <trkpt lat="43.39918" lon="2.71028">
        <ele>366</ele>
        <time>2016-12-27T13:42:24.000Z</time>
      </trkpt>
      <trkpt lat="43.39918" lon="2.71028">
        <ele>366</ele>
        <time>2016-12-27T13:42:26.000Z</time>
      </trkpt>
      <trkpt lat="43.39918" lon="2.71028">
        <ele>366</ele>
        <time>2016-12-27T13:42:30.000Z</time>
      </trkpt>
      <trkpt lat="43.39908" lon="2.7104">
        <ele>366</ele>
        <time>2016-12-27T13:42:32.000Z</time>
      </trkpt>
      <trkpt lat="43.39903" lon="2.71048">
        <ele>366</ele>
        <time>2016-12-27T13:42:34.000Z</time>
      </trkpt>
      <trkpt lat="43.399" lon="2.71055">
        <ele>366</ele>
        <time>2016-12-27T13:42:36.000Z</time>
      </trkpt>
      <trkpt lat="43.399" lon="2.71062">
        <ele>365</ele>
        <time>2016-12-27T13:42:38.000Z</time>
      </trkpt>
      <trkpt lat="43.399" lon="2.71062">
        <ele>365</ele>
        <time>2016-12-27T13:42:40.000Z</time>
      </trkpt>
      <trkpt lat="43.399" lon="2.71062">
        <ele>365</ele>
        <time>2016-12-27T13:42:42.000Z</time>
      </trkpt>
      <trkpt lat="43.399" lon="2.71062">
        <ele>365</ele>
        <time>2016-12-27T13:42:44.000Z</time>
      </trkpt>
      <trkpt lat="43.399" lon="2.71062">
        <ele>365</ele>
        <time>2016-12-27T13:42:46.000Z</time>
      </trkpt>
      <trkpt lat="43.39901" lon="2.71054">
        <ele>362</ele>
        <time>2016-12-27T13:42:56.000Z</time>
      </trkpt>
      <trkpt lat="43.39901" lon="2.71054">
        <ele>362</ele>
        <time>2016-12-27T13:42:58.000Z</time>
      </trkpt>
      <trkpt lat="43.39901" lon="2.71054">
        <ele>362</ele>
        <time>2016-12-27T13:43:00.000Z</time>
      </trkpt>
      <trkpt lat="43.39901" lon="2.71054">
        <ele>362</ele>
        <time>2016-12-27T13:43:02.000Z</time>
      </trkpt>
      <trkpt lat="43.39901" lon="2.71061">
        <ele>361</ele>
        <time>2016-12-27T13:43:08.000Z</time>
      </trkpt>
      <trkpt lat="43.39901" lon="2.71069">
        <ele>361</ele>
        <time>2016-12-27T13:43:10.000Z</time>
      </trkpt>
      <trkpt lat="43.39904" lon="2.7108">
        <ele>361</ele>
        <time>2016-12-27T13:43:12.000Z</time>
      </trkpt>
      <trkpt lat="43.39908" lon="2.7109">
        <ele>360</ele>
        <time>2016-12-27T13:43:14.000Z</time>
      </trkpt>
      <trkpt lat="43.39915" lon="2.71099">
        <ele>360</ele>
        <time>2016-12-27T13:43:16.000Z</time>
      </trkpt>
      <trkpt lat="43.39933" lon="2.7111">
        <ele>360</ele>
        <time>2016-12-27T13:43:18.000Z</time>
      </trkpt>
      <trkpt lat="43.39944" lon="2.7111">
        <ele>360</ele>
        <time>2016-12-27T13:43:20.000Z</time>
      </trkpt>
      <trkpt lat="43.39956" lon="2.71109">
        <ele>360</ele>
        <time>2016-12-27T13:43:22.000Z</time>
      </trkpt>
      <trkpt lat="43.39967" lon="2.71108">
        <ele>360</ele>
        <time>2016-12-27T13:43:24.000Z</time>
      </trkpt>
      <trkpt lat="43.39978" lon="2.71106">
        <ele>360</ele>
        <time>2016-12-27T13:43:26.000Z</time>
      </trkpt>
      <trkpt lat="43.39989" lon="2.71106">
        <ele>359</ele>
        <time>2016-12-27T13:43:28.000Z</time>
      </trkpt>
      <trkpt lat="43.4" lon="2.71104">
        <ele>359</ele>
        <time>2016-12-27T13:43:30.000Z</time>
      </trkpt>
      <trkpt lat="43.40011" lon="2.71101">
        <ele>360</ele>
        <time>2016-12-27T13:43:32.000Z</time>
      </trkpt>
      <trkpt lat="43.40022" lon="2.71099">
        <ele>360</ele>
        <time>2016-12-27T13:43:34.000Z</time>
      </trkpt>
      <trkpt lat="43.40033" lon="2.71097">
        <ele>361</ele>
        <time>2016-12-27T13:43:36.000Z</time>
      </trkpt>
      <trkpt lat="43.40044" lon="2.71096">
        <ele>361</ele>
        <time>2016-12-27T13:43:38.000Z</time>
      </trkpt>
      <trkpt lat="43.40056" lon="2.71094">
        <ele>361</ele>
        <time>2016-12-27T13:43:40.000Z</time>
      </trkpt>
      <trkpt lat="43.40067" lon="2.71093">
        <ele>363</ele>
        <time>2016-12-27T13:43:42.000Z</time>
      </trkpt>
      <trkpt lat="43.40078" lon="2.71091">
        <ele>364</ele>
        <time>2016-12-27T13:43:44.000Z</time>
      </trkpt>
      <trkpt lat="43.40089" lon="2.71087">
        <ele>365</ele>
        <time>2016-12-27T13:43:46.000Z</time>
      </trkpt>
      <trkpt lat="43.401" lon="2.71082">
        <ele>366</ele>
        <time>2016-12-27T13:43:48.000Z</time>
      </trkpt>
      <trkpt lat="43.40111" lon="2.7108">
        <ele>367</ele>
        <time>2016-12-27T13:43:50.000Z</time>
      </trkpt>
      <trkpt lat="43.40122" lon="2.71081">
        <ele>369</ele>
        <time>2016-12-27T13:43:52.000Z</time>
      </trkpt>
      <trkpt lat="43.40131" lon="2.71092">
        <ele>370</ele>
        <time>2016-12-27T13:43:54.000Z</time>
      </trkpt>
      <trkpt lat="43.40133" lon="2.71108">
        <ele>371</ele>
        <time>2016-12-27T13:43:56.000Z</time>
      </trkpt>
      <trkpt lat="43.40129" lon="2.71121">
        <ele>371</ele>
        <time>2016-12-27T13:43:58.000Z</time>
      </trkpt>
      <trkpt lat="43.40129" lon="2.71121">
        <ele>371</ele>
        <time>2016-12-27T13:44:00.000Z</time>
      </trkpt>
      <trkpt lat="43.40129" lon="2.71121">
        <ele>371</ele>
        <time>2016-12-27T13:44:02.000Z</time>
      </trkpt>
      <trkpt lat="43.40129" lon="2.71121">
        <ele>371</ele>
        <time>2016-12-27T13:44:04.000Z</time>
      </trkpt>
      <trkpt lat="43.40129" lon="2.71121">
        <ele>371</ele>
        <time>2016-12-27T13:44:06.000Z</time>
      </trkpt>
      <trkpt lat="43.40129" lon="2.71121">
        <ele>371</ele>
        <time>2016-12-27T13:44:08.000Z</time>
      </trkpt>
      <trkpt lat="43.40129" lon="2.71121">
        <ele>371</ele>
        <time>2016-12-27T13:44:10.000Z</time>
      </trkpt>
      <trkpt lat="43.40129" lon="2.71121">
        <ele>371</ele>
        <time>2016-12-27T13:44:12.000Z</time>
      </trkpt>
      <trkpt lat="43.40129" lon="2.71121">
        <ele>371</ele>
        <time>2016-12-27T13:44:14.000Z</time>
      </trkpt>
      <trkpt lat="43.40129" lon="2.71121">
        <ele>371</ele>
        <time>2016-12-27T13:44:16.000Z</time>
      </trkpt>
      <trkpt lat="43.40129" lon="2.71121">
        <ele>371</ele>
        <time>2016-12-27T13:44:18.000Z</time>
      </trkpt>
      <trkpt lat="43.40129" lon="2.71121">
        <ele>371</ele>
        <time>2016-12-27T13:44:20.000Z</time>
      </trkpt>
      <trkpt lat="43.40129" lon="2.71121">
        <ele>371</ele>
        <time>2016-12-27T13:44:22.000Z</time>
      </trkpt>
      <trkpt lat="43.40042" lon="2.71225">
        <ele>382</ele>
        <time>2016-12-27T13:44:24.000Z</time>
      </trkpt>
      <trkpt lat="43.40027" lon="2.71234">
        <ele>384</ele>
        <time>2016-12-27T13:44:28.000Z</time>
      </trkpt>
      <trkpt lat="43.40027" lon="2.71234">
        <ele>384</ele>
        <time>2016-12-27T13:44:30.000Z</time>
      </trkpt>
      <trkpt lat="43.40014" lon="2.71249">
        <ele>386</ele>
        <time>2016-12-27T13:44:32.000Z</time>
      </trkpt>
      <trkpt lat="43.40008" lon="2.71258">
        <ele>386</ele>
        <time>2016-12-27T13:44:34.000Z</time>
      </trkpt>
      <trkpt lat="43.40003" lon="2.71269">
        <ele>385</ele>
        <time>2016-12-27T13:44:36.000Z</time>
      </trkpt>
      <trkpt lat="43.39997" lon="2.71279">
        <ele>383</ele>
        <time>2016-12-27T13:44:38.000Z</time>
      </trkpt>
      <trkpt lat="43.39992" lon="2.71291">
        <ele>382</ele>
        <time>2016-12-27T13:44:40.000Z</time>
      </trkpt>
      <trkpt lat="43.39986" lon="2.71302">
        <ele>381</ele>
        <time>2016-12-27T13:44:42.000Z</time>
      </trkpt>
      <trkpt lat="43.3998" lon="2.71312">
        <ele>380</ele>
        <time>2016-12-27T13:44:44.000Z</time>
      </trkpt>
      <trkpt lat="43.3998" lon="2.71312">
        <ele>380</ele>
        <time>2016-12-27T13:44:48.000Z</time>
      </trkpt>
      <trkpt lat="43.3998" lon="2.71312">
        <ele>380</ele>
        <time>2016-12-27T13:44:50.000Z</time>
      </trkpt>
      <trkpt lat="43.39957" lon="2.71402">
        <ele>381</ele>
        <time>2016-12-27T13:45:00.000Z</time>
      </trkpt>
      <trkpt lat="43.39959" lon="2.71427">
        <ele>381</ele>
        <time>2016-12-27T13:45:04.000Z</time>
      </trkpt>
      <trkpt lat="43.39962" lon="2.71441">
        <ele>380</ele>
        <time>2016-12-27T13:45:06.000Z</time>
      </trkpt>
      <trkpt lat="43.39965" lon="2.71457">
        <ele>380</ele>
        <time>2016-12-27T13:45:08.000Z</time>
      </trkpt>
      <trkpt lat="43.39968" lon="2.71474">
        <ele>379</ele>
        <time>2016-12-27T13:45:10.000Z</time>
      </trkpt>
      <trkpt lat="43.39969" lon="2.71492">
        <ele>378</ele>
        <time>2016-12-27T13:45:12.000Z</time>
      </trkpt>
      <trkpt lat="43.39972" lon="2.71509">
        <ele>377</ele>
        <time>2016-12-27T13:45:14.000Z</time>
      </trkpt>
      <trkpt lat="43.39975" lon="2.71527">
        <ele>377</ele>
        <time>2016-12-27T13:45:16.000Z</time>
      </trkpt>
      <trkpt lat="43.39978" lon="2.71542">
        <ele>376</ele>
        <time>2016-12-27T13:45:18.000Z</time>
      </trkpt>
      <trkpt lat="43.3998" lon="2.71556">
        <ele>375</ele>
        <time>2016-12-27T13:45:20.000Z</time>
      </trkpt>
      <trkpt lat="43.39982" lon="2.71569">
        <ele>375</ele>
        <time>2016-12-27T13:45:22.000Z</time>
      </trkpt>
      <trkpt lat="43.39985" lon="2.71584">
        <ele>374</ele>
        <time>2016-12-27T13:45:24.000Z</time>
      </trkpt>
      <trkpt lat="43.39989" lon="2.71601">
        <ele>374</ele>
        <time>2016-12-27T13:45:26.000Z</time>
      </trkpt>
      <trkpt lat="43.39993" lon="2.71618">
        <ele>373</ele>
        <time>2016-12-27T13:45:28.000Z</time>
      </trkpt>
      <trkpt lat="43.39999" lon="2.71639">
        <ele>373</ele>
        <time>2016-12-27T13:45:30.000Z</time>
      </trkpt>
      <trkpt lat="43.40003" lon="2.71662">
        <ele>372</ele>
        <time>2016-12-27T13:45:32.000Z</time>
      </trkpt>
      <trkpt lat="43.40004" lon="2.71688">
        <ele>371</ele>
        <time>2016-12-27T13:45:34.000Z</time>
      </trkpt>
      <trkpt lat="43.40004" lon="2.71715">
        <ele>371</ele>
        <time>2016-12-27T13:45:36.000Z</time>
      </trkpt>
      <trkpt lat="43.40005" lon="2.71744">
        <ele>370</ele>
        <time>2016-12-27T13:45:38.000Z</time>
      </trkpt>
      <trkpt lat="43.40004" lon="2.71773">
        <ele>369</ele>
        <time>2016-12-27T13:45:40.000Z</time>
      </trkpt>
      <trkpt lat="43.40005" lon="2.71803">
        <ele>368</ele>
        <time>2016-12-27T13:45:42.000Z</time>
      </trkpt>
      <trkpt lat="43.40005" lon="2.71831">
        <ele>368</ele>
        <time>2016-12-27T13:45:44.000Z</time>
      </trkpt>
      <trkpt lat="43.40007" lon="2.71858">
        <ele>367</ele>
        <time>2016-12-27T13:45:46.000Z</time>
      </trkpt>
      <trkpt lat="43.4001" lon="2.71885">
        <ele>366</ele>
        <time>2016-12-27T13:45:48.000Z</time>
      </trkpt>
      <trkpt lat="43.40019" lon="2.7191">
        <ele>365</ele>
        <time>2016-12-27T13:45:50.000Z</time>
      </trkpt>
      <trkpt lat="43.40031" lon="2.71931">
        <ele>364</ele>
        <time>2016-12-27T13:45:52.000Z</time>
      </trkpt>
      <trkpt lat="43.40046" lon="2.71949">
        <ele>363</ele>
        <time>2016-12-27T13:45:54.000Z</time>
      </trkpt>
      <trkpt lat="43.40059" lon="2.71967">
        <ele>362</ele>
        <time>2016-12-27T13:45:56.000Z</time>
      </trkpt>
      <trkpt lat="43.4007" lon="2.71982">
        <ele>360</ele>
        <time>2016-12-27T13:45:58.000Z</time>
      </trkpt>
      <trkpt lat="43.40081" lon="2.71997">
        <ele>359</ele>
        <time>2016-12-27T13:46:00.000Z</time>
      </trkpt>
      <trkpt lat="43.40088" lon="2.7201">
        <ele>358</ele>
        <time>2016-12-27T13:46:02.000Z</time>
      </trkpt>
      <trkpt lat="43.40088" lon="2.7201">
        <ele>358</ele>
        <time>2016-12-27T13:46:04.000Z</time>
      </trkpt>
      <trkpt lat="43.40088" lon="2.7201">
        <ele>358</ele>
        <time>2016-12-27T13:46:06.000Z</time>
      </trkpt>
      <trkpt lat="43.40088" lon="2.7201">
        <ele>358</ele>
        <time>2016-12-27T13:46:08.000Z</time>
      </trkpt>
      <trkpt lat="43.40062" lon="2.72054">
        <ele>352</ele>
        <time>2016-12-27T13:46:14.000Z</time>
      </trkpt>
      <trkpt lat="43.40051" lon="2.72056">
        <ele>352</ele>
        <time>2016-12-27T13:46:16.000Z</time>
      </trkpt>
      <trkpt lat="43.40041" lon="2.72054">
        <ele>351</ele>
        <time>2016-12-27T13:46:18.000Z</time>
      </trkpt>
      <trkpt lat="43.40041" lon="2.72054">
        <ele>351</ele>
        <time>2016-12-27T13:46:20.000Z</time>
      </trkpt>
      <trkpt lat="43.40041" lon="2.72054">
        <ele>351</ele>
        <time>2016-12-27T13:46:22.000Z</time>
      </trkpt>
      <trkpt lat="43.40041" lon="2.72054">
        <ele>351</ele>
        <time>2016-12-27T13:46:24.000Z</time>
      </trkpt>
      <trkpt lat="43.40041" lon="2.72054">
        <ele>351</ele>
        <time>2016-12-27T13:46:30.000Z</time>
      </trkpt>
      <trkpt lat="43.40041" lon="2.72054">
        <ele>351</ele>
        <time>2016-12-27T13:46:32.000Z</time>
      </trkpt>
      <trkpt lat="43.40041" lon="2.72054">
        <ele>351</ele>
        <time>2016-12-27T13:46:34.000Z</time>
      </trkpt>
      <trkpt lat="43.40041" lon="2.72054">
        <ele>351</ele>
        <time>2016-12-27T13:46:36.000Z</time>
      </trkpt>
      <trkpt lat="43.39993" lon="2.72045">
        <ele>347</ele>
        <time>2016-12-27T13:46:40.000Z</time>
      </trkpt>
      <trkpt lat="43.39965" lon="2.72039">
        <ele>347</ele>
        <time>2016-12-27T13:46:42.000Z</time>
      </trkpt>
      <trkpt lat="43.39946" lon="2.72036">
        <ele>347</ele>
        <time>2016-12-27T13:46:44.000Z</time>
      </trkpt>
      <trkpt lat="43.39933" lon="2.72034">
        <ele>347</ele>
        <time>2016-12-27T13:46:46.000Z</time>
      </trkpt>
      <trkpt lat="43.39933" lon="2.72034">
        <ele>347</ele>
        <time>2016-12-27T13:46:48.000Z</time>
      </trkpt>
      <trkpt lat="43.39933" lon="2.72034">
        <ele>347</ele>
        <time>2016-12-27T13:46:50.000Z</time>
      </trkpt>
      <trkpt lat="43.39893" lon="2.72033">
        <ele>349</ele>
        <time>2016-12-27T13:47:02.000Z</time>
      </trkpt>
      <trkpt lat="43.39869" lon="2.72033">
        <ele>349</ele>
        <time>2016-12-27T13:47:04.000Z</time>
      </trkpt>
      <trkpt lat="43.39853" lon="2.72033">
        <ele>350</ele>
        <time>2016-12-27T13:47:06.000Z</time>
      </trkpt>
      <trkpt lat="43.39841" lon="2.72033">
        <ele>350</ele>
        <time>2016-12-27T13:47:08.000Z</time>
      </trkpt>
      <trkpt lat="43.39831" lon="2.72034">
        <ele>350</ele>
        <time>2016-12-27T13:47:10.000Z</time>
      </trkpt>
      <trkpt lat="43.39812" lon="2.72035">
        <ele>351</ele>
        <time>2016-12-27T13:47:12.000Z</time>
      </trkpt>
      <trkpt lat="43.39812" lon="2.72035">
        <ele>351</ele>
        <time>2016-12-27T13:47:14.000Z</time>
      </trkpt>
      <trkpt lat="43.39812" lon="2.72035">
        <ele>351</ele>
        <time>2016-12-27T13:47:16.000Z</time>
      </trkpt>
      <trkpt lat="43.39812" lon="2.72035">
        <ele>351</ele>
        <time>2016-12-27T13:47:22.000Z</time>
      </trkpt>
      <trkpt lat="43.39812" lon="2.72035">
        <ele>351</ele>
        <time>2016-12-27T13:47:24.000Z</time>
      </trkpt>
      <trkpt lat="43.39747" lon="2.7206">
        <ele>354</ele>
        <time>2016-12-27T13:47:28.000Z</time>
      </trkpt>
      <trkpt lat="43.39747" lon="2.7206">
        <ele>354</ele>
        <time>2016-12-27T13:47:32.000Z</time>
      </trkpt>
      <trkpt lat="43.39747" lon="2.7206">
        <ele>354</ele>
        <time>2016-12-27T13:47:34.000Z</time>
      </trkpt>
      <trkpt lat="43.39711" lon="2.72085">
        <ele>356</ele>
        <time>2016-12-27T13:47:38.000Z</time>
      </trkpt>
      <trkpt lat="43.39704" lon="2.72092">
        <ele>357</ele>
        <time>2016-12-27T13:47:40.000Z</time>
      </trkpt>
      <trkpt lat="43.39691" lon="2.72104">
        <ele>358</ele>
        <time>2016-12-27T13:47:44.000Z</time>
      </trkpt>
      <trkpt lat="43.39691" lon="2.72104">
        <ele>358</ele>
        <time>2016-12-27T13:47:46.000Z</time>
      </trkpt>
      <trkpt lat="43.39691" lon="2.72104">
        <ele>358</ele>
        <time>2016-12-27T13:47:48.000Z</time>
      </trkpt>
      <trkpt lat="43.39691" lon="2.72104">
        <ele>358</ele>
        <time>2016-12-27T13:47:50.000Z</time>
      </trkpt>
      <trkpt lat="43.39657" lon="2.72134">
        <ele>363</ele>
        <time>2016-12-27T13:47:54.000Z</time>
      </trkpt>
      <trkpt lat="43.3964" lon="2.72144">
        <ele>364</ele>
        <time>2016-12-27T13:47:58.000Z</time>
      </trkpt>
      <trkpt lat="43.39632" lon="2.72149">
        <ele>365</ele>
        <time>2016-12-27T13:48:00.000Z</time>
      </trkpt>
      <trkpt lat="43.39623" lon="2.72153">
        <ele>366</ele>
        <time>2016-12-27T13:48:02.000Z</time>
      </trkpt>
      <trkpt lat="43.39623" lon="2.72153">
        <ele>366</ele>
        <time>2016-12-27T13:48:04.000Z</time>
      </trkpt>
      <trkpt lat="43.39623" lon="2.72153">
        <ele>366</ele>
        <time>2016-12-27T13:48:06.000Z</time>
      </trkpt>
      <trkpt lat="43.39623" lon="2.72153">
        <ele>366</ele>
        <time>2016-12-27T13:48:08.000Z</time>
      </trkpt>
      <trkpt lat="43.3958" lon="2.7217">
        <ele>371</ele>
        <time>2016-12-27T13:48:12.000Z</time>
      </trkpt>
      <trkpt lat="43.39565" lon="2.72173">
        <ele>372</ele>
        <time>2016-12-27T13:48:16.000Z</time>
      </trkpt>
      <trkpt lat="43.39565" lon="2.72173">
        <ele>372</ele>
        <time>2016-12-27T13:48:18.000Z</time>
      </trkpt>
      <trkpt lat="43.39565" lon="2.72173">
        <ele>372</ele>
        <time>2016-12-27T13:48:20.000Z</time>
      </trkpt>
      <trkpt lat="43.39565" lon="2.72173">
        <ele>372</ele>
        <time>2016-12-27T13:48:22.000Z</time>
      </trkpt>
      <trkpt lat="43.39565" lon="2.72173">
        <ele>372</ele>
        <time>2016-12-27T13:48:24.000Z</time>
      </trkpt>
      <trkpt lat="43.39565" lon="2.72173">
        <ele>372</ele>
        <time>2016-12-27T13:48:26.000Z</time>
      </trkpt>
      <trkpt lat="43.39565" lon="2.72173">
        <ele>372</ele>
        <time>2016-12-27T13:48:28.000Z</time>
      </trkpt>
      <trkpt lat="43.39565" lon="2.72173">
        <ele>372</ele>
        <time>2016-12-27T13:48:30.000Z</time>
      </trkpt>
      <trkpt lat="43.39541" lon="2.72191">
        <ele>376</ele>
        <time>2016-12-27T13:48:34.000Z</time>
      </trkpt>
      <trkpt lat="43.39529" lon="2.72206">
        <ele>376</ele>
        <time>2016-12-27T13:48:36.000Z</time>
      </trkpt>
      <trkpt lat="43.39524" lon="2.72218">
        <ele>377</ele>
        <time>2016-12-27T13:48:38.000Z</time>
      </trkpt>
      <trkpt lat="43.39523" lon="2.72229">
        <ele>377</ele>
        <time>2016-12-27T13:48:40.000Z</time>
      </trkpt>
      <trkpt lat="43.39523" lon="2.72241">
        <ele>378</ele>
        <time>2016-12-27T13:48:42.000Z</time>
      </trkpt>
      <trkpt lat="43.39524" lon="2.72264">
        <ele>378</ele>
        <time>2016-12-27T13:48:44.000Z</time>
      </trkpt>
      <trkpt lat="43.39529" lon="2.72286">
        <ele>379</ele>
        <time>2016-12-27T13:48:48.000Z</time>
      </trkpt>
      <trkpt lat="43.39529" lon="2.72286">
        <ele>379</ele>
        <time>2016-12-27T13:48:50.000Z</time>
      </trkpt>
      <trkpt lat="43.39529" lon="2.72286">
        <ele>379</ele>
        <time>2016-12-27T13:48:52.000Z</time>
      </trkpt>
      <trkpt lat="43.39529" lon="2.72286">
        <ele>379</ele>
        <time>2016-12-27T13:48:54.000Z</time>
      </trkpt>
      <trkpt lat="43.39529" lon="2.72286">
        <ele>379</ele>
        <time>2016-12-27T13:48:56.000Z</time>
      </trkpt>
      <trkpt lat="43.39529" lon="2.72286">
        <ele>379</ele>
        <time>2016-12-27T13:48:58.000Z</time>
      </trkpt>
      <trkpt lat="43.3959" lon="2.72306">
        <ele>383</ele>
        <time>2016-12-27T13:49:06.000Z</time>
      </trkpt>
      <trkpt lat="43.39606" lon="2.72305">
        <ele>385</ele>
        <time>2016-12-27T13:49:10.000Z</time>
      </trkpt>
      <trkpt lat="43.39622" lon="2.7231">
        <ele>388</ele>
        <time>2016-12-27T13:49:14.000Z</time>
      </trkpt>
      <trkpt lat="43.39622" lon="2.7231">
        <ele>388</ele>
        <time>2016-12-27T13:49:16.000Z</time>
      </trkpt>
      <trkpt lat="43.39637" lon="2.72315">
        <ele>390</ele>
        <time>2016-12-27T13:49:18.000Z</time>
      </trkpt>
      <trkpt lat="43.39637" lon="2.72315">
        <ele>390</ele>
        <time>2016-12-27T13:49:20.000Z</time>
      </trkpt>
      <trkpt lat="43.39637" lon="2.72315">
        <ele>390</ele>
        <time>2016-12-27T13:49:22.000Z</time>
      </trkpt>
      <trkpt lat="43.39637" lon="2.72315">
        <ele>390</ele>
        <time>2016-12-27T13:49:24.000Z</time>
      </trkpt>
      <trkpt lat="43.39676" lon="2.72345">
        <ele>392</ele>
        <time>2016-12-27T13:49:28.000Z</time>
      </trkpt>
      <trkpt lat="43.39683" lon="2.72354">
        <ele>392</ele>
        <time>2016-12-27T13:49:30.000Z</time>
      </trkpt>
      <trkpt lat="43.39688" lon="2.72364">
        <ele>393</ele>
        <time>2016-12-27T13:49:32.000Z</time>
      </trkpt>
      <trkpt lat="43.39695" lon="2.72373">
        <ele>394</ele>
        <time>2016-12-27T13:49:34.000Z</time>
      </trkpt>
      <trkpt lat="43.39701" lon="2.72386">
        <ele>395</ele>
        <time>2016-12-27T13:49:36.000Z</time>
      </trkpt>
      <trkpt lat="43.39704" lon="2.72398">
        <ele>396</ele>
        <time>2016-12-27T13:49:38.000Z</time>
      </trkpt>
      <trkpt lat="43.39711" lon="2.72421">
        <ele>397</ele>
        <time>2016-12-27T13:49:42.000Z</time>
      </trkpt>
      <trkpt lat="43.39711" lon="2.72421">
        <ele>397</ele>
        <time>2016-12-27T13:49:44.000Z</time>
      </trkpt>
      <trkpt lat="43.39711" lon="2.72421">
        <ele>397</ele>
        <time>2016-12-27T13:49:46.000Z</time>
      </trkpt>
      <trkpt lat="43.39725" lon="2.72466">
        <ele>399</ele>
        <time>2016-12-27T13:49:50.000Z</time>
      </trkpt>
      <trkpt lat="43.39728" lon="2.72478">
        <ele>400</ele>
        <time>2016-12-27T13:49:52.000Z</time>
      </trkpt>
      <trkpt lat="43.39729" lon="2.72491">
        <ele>401</ele>
        <time>2016-12-27T13:49:54.000Z</time>
      </trkpt>
      <trkpt lat="43.39729" lon="2.72491">
        <ele>401</ele>
        <time>2016-12-27T13:49:56.000Z</time>
      </trkpt>
      <trkpt lat="43.39729" lon="2.72491">
        <ele>401</ele>
        <time>2016-12-27T13:49:58.000Z</time>
      </trkpt>
      <trkpt lat="43.39729" lon="2.72491">
        <ele>401</ele>
        <time>2016-12-27T13:50:00.000Z</time>
      </trkpt>
      <trkpt lat="43.39729" lon="2.72491">
        <ele>401</ele>
        <time>2016-12-27T13:50:02.000Z</time>
      </trkpt>
      <trkpt lat="43.39729" lon="2.72491">
        <ele>401</ele>
        <time>2016-12-27T13:50:04.000Z</time>
      </trkpt>
      <trkpt lat="43.39729" lon="2.72491">
        <ele>401</ele>
        <time>2016-12-27T13:50:06.000Z</time>
      </trkpt>
      <trkpt lat="43.39729" lon="2.72491">
        <ele>401</ele>
        <time>2016-12-27T13:50:08.000Z</time>
      </trkpt>
      <trkpt lat="43.39729" lon="2.72491">
        <ele>401</ele>
        <time>2016-12-27T13:50:10.000Z</time>
      </trkpt>
      <trkpt lat="43.39729" lon="2.72491">
        <ele>401</ele>
        <time>2016-12-27T13:50:12.000Z</time>
      </trkpt>
      <trkpt lat="43.39729" lon="2.72491">
        <ele>401</ele>
        <time>2016-12-27T13:50:16.000Z</time>
      </trkpt>
      <trkpt lat="43.39729" lon="2.72491">
        <ele>401</ele>
        <time>2016-12-27T13:50:18.000Z</time>
      </trkpt>
      <trkpt lat="43.39729" lon="2.72491">
        <ele>401</ele>
        <time>2016-12-27T13:50:20.000Z</time>
      </trkpt>
      <trkpt lat="43.39729" lon="2.72491">
        <ele>401</ele>
        <time>2016-12-27T13:50:22.000Z</time>
      </trkpt>
      <trkpt lat="43.39729" lon="2.72491">
        <ele>401</ele>
        <time>2016-12-27T13:50:24.000Z</time>
      </trkpt>
      <trkpt lat="43.39729" lon="2.72491">
        <ele>401</ele>
        <time>2016-12-27T13:50:26.000Z</time>
      </trkpt>
      <trkpt lat="43.39729" lon="2.72491">
        <ele>401</ele>
        <time>2016-12-27T13:50:28.000Z</time>
      </trkpt>
      <trkpt lat="43.39729" lon="2.72491">
        <ele>401</ele>
        <time>2016-12-27T13:50:30.000Z</time>
      </trkpt>
      <trkpt lat="43.39729" lon="2.72491">
        <ele>401</ele>
        <time>2016-12-27T13:50:32.000Z</time>
      </trkpt>
      <trkpt lat="43.39729" lon="2.72491">
        <ele>401</ele>
        <time>2016-12-27T13:50:34.000Z</time>
      </trkpt>
      <trkpt lat="43.39729" lon="2.72491">
        <ele>401</ele>
        <time>2016-12-27T13:50:36.000Z</time>
      </trkpt>
      <trkpt lat="43.39724" lon="2.72599">
        <ele>414</ele>
        <time>2016-12-27T13:50:42.000Z</time>
      </trkpt>
      <trkpt lat="43.39723" lon="2.72653">
        <ele>414</ele>
        <time>2016-12-27T13:50:44.000Z</time>
      </trkpt>
      <trkpt lat="43.39726" lon="2.7268">
        <ele>414</ele>
        <time>2016-12-27T13:50:46.000Z</time>
      </trkpt>
      <trkpt lat="43.39732" lon="2.72694">
        <ele>414</ele>
        <time>2016-12-27T13:50:48.000Z</time>
      </trkpt>
      <trkpt lat="43.39738" lon="2.72702">
        <ele>415</ele>
        <time>2016-12-27T13:50:50.000Z</time>
      </trkpt>
      <trkpt lat="43.39753" lon="2.72712">
        <ele>414</ele>
        <time>2016-12-27T13:50:52.000Z</time>
      </trkpt>
      <trkpt lat="43.39768" lon="2.72717">
        <ele>414</ele>
        <time>2016-12-27T13:50:56.000Z</time>
      </trkpt>
      <trkpt lat="43.39768" lon="2.72717">
        <ele>414</ele>
        <time>2016-12-27T13:50:58.000Z</time>
      </trkpt>
      <trkpt lat="43.39784" lon="2.72723">
        <ele>414</ele>
        <time>2016-12-27T13:51:00.000Z</time>
      </trkpt>
      <trkpt lat="43.39794" lon="2.72725">
        <ele>413</ele>
        <time>2016-12-27T13:51:02.000Z</time>
      </trkpt>
      <trkpt lat="43.39803" lon="2.72727">
        <ele>413</ele>
        <time>2016-12-27T13:51:04.000Z</time>
      </trkpt>
      <trkpt lat="43.39822" lon="2.72733">
        <ele>411</ele>
        <time>2016-12-27T13:51:08.000Z</time>
      </trkpt>
      <trkpt lat="43.39833" lon="2.7274">
        <ele>409</ele>
        <time>2016-12-27T13:51:10.000Z</time>
      </trkpt>
      <trkpt lat="43.39844" lon="2.72742">
        <ele>408</ele>
        <time>2016-12-27T13:51:12.000Z</time>
      </trkpt>
      <trkpt lat="43.39856" lon="2.72745">
        <ele>406</ele>
        <time>2016-12-27T13:51:14.000Z</time>
      </trkpt>
      <trkpt lat="43.39868" lon="2.72747">
        <ele>405</ele>
        <time>2016-12-27T13:51:16.000Z</time>
      </trkpt>
      <trkpt lat="43.3988" lon="2.7275">
        <ele>404</ele>
        <time>2016-12-27T13:51:18.000Z</time>
      </trkpt>
      <trkpt lat="43.39893" lon="2.72757">
        <ele>401</ele>
        <time>2016-12-27T13:51:20.000Z</time>
      </trkpt>
      <trkpt lat="43.39904" lon="2.72765">
        <ele>400</ele>
        <time>2016-12-27T13:51:22.000Z</time>
      </trkpt>
      <trkpt lat="43.39915" lon="2.72774">
        <ele>399</ele>
        <time>2016-12-27T13:51:24.000Z</time>
      </trkpt>
      <trkpt lat="43.39926" lon="2.7278">
        <ele>397</ele>
        <time>2016-12-27T13:51:26.000Z</time>
      </trkpt>
      <trkpt lat="43.39926" lon="2.7278">
        <ele>397</ele>
        <time>2016-12-27T13:51:28.000Z</time>
      </trkpt>
      <trkpt lat="43.39926" lon="2.7278">
        <ele>397</ele>
        <time>2016-12-27T13:51:30.000Z</time>
      </trkpt>
      <trkpt lat="43.39926" lon="2.7278">
        <ele>397</ele>
        <time>2016-12-27T13:51:32.000Z</time>
      </trkpt>
      <trkpt lat="43.39926" lon="2.7278">
        <ele>397</ele>
        <time>2016-12-27T13:51:34.000Z</time>
      </trkpt>
      <trkpt lat="43.39926" lon="2.7278">
        <ele>397</ele>
        <time>2016-12-27T13:51:36.000Z</time>
      </trkpt>
      <trkpt lat="43.39926" lon="2.7278">
        <ele>397</ele>
        <time>2016-12-27T13:51:38.000Z</time>
      </trkpt>
      <trkpt lat="43.39938" lon="2.72819">
        <ele>392</ele>
        <time>2016-12-27T13:51:42.000Z</time>
      </trkpt>
      <trkpt lat="43.3992" lon="2.72821">
        <ele>392</ele>
        <time>2016-12-27T13:51:46.000Z</time>
      </trkpt>
      <trkpt lat="43.3992" lon="2.72821">
        <ele>392</ele>
        <time>2016-12-27T13:51:48.000Z</time>
      </trkpt>
      <trkpt lat="43.39902" lon="2.72826">
        <ele>391</ele>
        <time>2016-12-27T13:51:50.000Z</time>
      </trkpt>
      <trkpt lat="43.39893" lon="2.72828">
        <ele>392</ele>
        <time>2016-12-27T13:51:52.000Z</time>
      </trkpt>
      <trkpt lat="43.39877" lon="2.72835">
        <ele>392</ele>
        <time>2016-12-27T13:51:56.000Z</time>
      </trkpt>
      <trkpt lat="43.39869" lon="2.72841">
        <ele>392</ele>
        <time>2016-12-27T13:51:58.000Z</time>
      </trkpt>
      <trkpt lat="43.39861" lon="2.72847">
        <ele>392</ele>
        <time>2016-12-27T13:52:00.000Z</time>
      </trkpt>
      <trkpt lat="43.39861" lon="2.72847">
        <ele>392</ele>
        <time>2016-12-27T13:52:04.000Z</time>
      </trkpt>
      <trkpt lat="43.39861" lon="2.72847">
        <ele>392</ele>
        <time>2016-12-27T13:52:06.000Z</time>
      </trkpt>
      <trkpt lat="43.39829" lon="2.72876">
        <ele>392</ele>
        <time>2016-12-27T13:52:08.000Z</time>
      </trkpt>
      <trkpt lat="43.39823" lon="2.72887">
        <ele>392</ele>
        <time>2016-12-27T13:52:10.000Z</time>
      </trkpt>
      <trkpt lat="43.39817" lon="2.72901">
        <ele>392</ele>
        <time>2016-12-27T13:52:12.000Z</time>
      </trkpt>
      <trkpt lat="43.3981" lon="2.72914">
        <ele>393</ele>
        <time>2016-12-27T13:52:14.000Z</time>
      </trkpt>
      <trkpt lat="43.39803" lon="2.72925">
        <ele>393</ele>
        <time>2016-12-27T13:52:16.000Z</time>
      </trkpt>
      <trkpt lat="43.398" lon="2.72938">
        <ele>393</ele>
        <time>2016-12-27T13:52:18.000Z</time>
      </trkpt>
      <trkpt lat="43.39797" lon="2.72951">
        <ele>393</ele>
        <time>2016-12-27T13:52:20.000Z</time>
      </trkpt>
      <trkpt lat="43.39797" lon="2.72951">
        <ele>393</ele>
        <time>2016-12-27T13:52:22.000Z</time>
      </trkpt>
      <trkpt lat="43.39797" lon="2.72951">
        <ele>393</ele>
        <time>2016-12-27T13:52:24.000Z</time>
      </trkpt>
      <trkpt lat="43.39765" lon="2.7299">
        <ele>392</ele>
        <time>2016-12-27T13:52:30.000Z</time>
      </trkpt>
      <trkpt lat="43.39756" lon="2.72992">
        <ele>392</ele>
        <time>2016-12-27T13:52:32.000Z</time>
      </trkpt>
      <trkpt lat="43.39756" lon="2.72992">
        <ele>392</ele>
        <time>2016-12-27T13:52:34.000Z</time>
      </trkpt>
      <trkpt lat="43.39756" lon="2.72992">
        <ele>392</ele>
        <time>2016-12-27T13:52:36.000Z</time>
      </trkpt>
      <trkpt lat="43.39756" lon="2.72992">
        <ele>392</ele>
        <time>2016-12-27T13:52:38.000Z</time>
      </trkpt>
      <trkpt lat="43.39756" lon="2.72992">
        <ele>392</ele>
        <time>2016-12-27T13:52:40.000Z</time>
      </trkpt>
      <trkpt lat="43.3971" lon="2.73039">
        <ele>393</ele>
        <time>2016-12-27T13:52:44.000Z</time>
      </trkpt>
      <trkpt lat="43.39708" lon="2.73055">
        <ele>393</ele>
        <time>2016-12-27T13:52:46.000Z</time>
      </trkpt>
      <trkpt lat="43.39709" lon="2.73067">
        <ele>393</ele>
        <time>2016-12-27T13:52:48.000Z</time>
      </trkpt>
      <trkpt lat="43.39709" lon="2.73067">
        <ele>393</ele>
        <time>2016-12-27T13:52:50.000Z</time>
      </trkpt>
      <trkpt lat="43.39709" lon="2.73067">
        <ele>393</ele>
        <time>2016-12-27T13:52:52.000Z</time>
      </trkpt>
      <trkpt lat="43.39709" lon="2.73067">
        <ele>393</ele>
        <time>2016-12-27T13:52:54.000Z</time>
      </trkpt>
      <trkpt lat="43.39709" lon="2.73067">
        <ele>393</ele>
        <time>2016-12-27T13:52:56.000Z</time>
      </trkpt>
      <trkpt lat="43.39709" lon="2.73067">
        <ele>393</ele>
        <time>2016-12-27T13:52:58.000Z</time>
      </trkpt>
      <trkpt lat="43.39709" lon="2.73067">
        <ele>393</ele>
        <time>2016-12-27T13:53:00.000Z</time>
      </trkpt>
      <trkpt lat="43.39709" lon="2.73067">
        <ele>393</ele>
        <time>2016-12-27T13:53:02.000Z</time>
      </trkpt>
      <trkpt lat="43.39718" lon="2.73109">
        <ele>389</ele>
        <time>2016-12-27T13:53:06.000Z</time>
      </trkpt>
      <trkpt lat="43.39723" lon="2.73136">
        <ele>388</ele>
        <time>2016-12-27T13:53:08.000Z</time>
      </trkpt>
      <trkpt lat="43.39728" lon="2.73155">
        <ele>387</ele>
        <time>2016-12-27T13:53:10.000Z</time>
      </trkpt>
      <trkpt lat="43.3973" lon="2.73171">
        <ele>386</ele>
        <time>2016-12-27T13:53:12.000Z</time>
      </trkpt>
      <trkpt lat="43.39731" lon="2.73184">
        <ele>385</ele>
        <time>2016-12-27T13:53:14.000Z</time>
      </trkpt>
      <trkpt lat="43.39731" lon="2.73209">
        <ele>385</ele>
        <time>2016-12-27T13:53:16.000Z</time>
      </trkpt>
      <trkpt lat="43.39731" lon="2.73209">
        <ele>385</ele>
        <time>2016-12-27T13:53:18.000Z</time>
      </trkpt>
      <trkpt lat="43.39731" lon="2.73209">
        <ele>385</ele>
        <time>2016-12-27T13:53:20.000Z</time>
      </trkpt>
      <trkpt lat="43.39731" lon="2.73209">
        <ele>385</ele>
        <time>2016-12-27T13:53:22.000Z</time>
      </trkpt>
      <trkpt lat="43.39731" lon="2.73209">
        <ele>385</ele>
        <time>2016-12-27T13:53:28.000Z</time>
      </trkpt>
      <trkpt lat="43.39731" lon="2.73209">
        <ele>385</ele>
        <time>2016-12-27T13:53:30.000Z</time>
      </trkpt>
      <trkpt lat="43.39731" lon="2.73209">
        <ele>385</ele>
        <time>2016-12-27T13:53:32.000Z</time>
      </trkpt>
      <trkpt lat="43.39731" lon="2.73209">
        <ele>385</ele>
        <time>2016-12-27T13:53:34.000Z</time>
      </trkpt>
      <trkpt lat="43.39731" lon="2.73209">
        <ele>385</ele>
        <time>2016-12-27T13:53:36.000Z</time>
      </trkpt>
      <trkpt lat="43.39707" lon="2.73272">
        <ele>378</ele>
        <time>2016-12-27T13:54:23.000Z</time>
      </trkpt>
      <trkpt lat="43.39713" lon="2.73285">
        <ele>377</ele>
        <time>2016-12-27T13:54:29.000Z</time>
      </trkpt>
      <trkpt lat="43.39717" lon="2.73301">
        <ele>377</ele>
        <time>2016-12-27T13:54:35.000Z</time>
      </trkpt>
      <trkpt lat="43.39717" lon="2.73301">
        <ele>377</ele>
        <time>2016-12-27T13:54:37.000Z</time>
      </trkpt>
      <trkpt lat="43.39717" lon="2.73301">
        <ele>377</ele>
        <time>2016-12-27T13:54:39.000Z</time>
      </trkpt>
      <trkpt lat="43.39717" lon="2.73301">
        <ele>377</ele>
        <time>2016-12-27T13:54:41.000Z</time>
      </trkpt>
      <trkpt lat="43.39717" lon="2.73301">
        <ele>377</ele>
        <time>2016-12-27T13:54:43.000Z</time>
      </trkpt>
      <trkpt lat="43.39717" lon="2.73301">
        <ele>377</ele>
        <time>2016-12-27T13:54:45.000Z</time>
      </trkpt>
      <trkpt lat="43.39717" lon="2.73301">
        <ele>377</ele>
        <time>2016-12-27T13:54:47.000Z</time>
      </trkpt>
      <trkpt lat="43.39717" lon="2.73301">
        <ele>377</ele>
        <time>2016-12-27T13:54:49.000Z</time>
      </trkpt>
      <trkpt lat="43.39712" lon="2.73306">
        <ele>376</ele>
        <time>2016-12-27T13:55:16.000Z</time>
      </trkpt>
      <trkpt lat="43.39708" lon="2.73309">
        <ele>375</ele>
        <time>2016-12-27T13:55:20.000Z</time>
      </trkpt>
      <trkpt lat="43.39703" lon="2.73311">
        <ele>374</ele>
        <time>2016-12-27T13:55:24.000Z</time>
      </trkpt>
      <trkpt lat="43.39703" lon="2.73311">
        <ele>374</ele>
        <time>2016-12-27T13:55:26.000Z</time>
      </trkpt>
      <trkpt lat="43.39703" lon="2.73311">
        <ele>374</ele>
        <time>2016-12-27T13:55:28.000Z</time>
      </trkpt>
      <trkpt lat="43.39698" lon="2.73309">
        <ele>374</ele>
        <time>2016-12-27T13:55:42.000Z</time>
      </trkpt>
      <trkpt lat="43.39693" lon="2.73307">
        <ele>373</ele>
        <time>2016-12-27T13:55:44.000Z</time>
      </trkpt>
      <trkpt lat="43.39693" lon="2.73307">
        <ele>373</ele>
        <time>2016-12-27T13:55:46.000Z</time>
      </trkpt>
      <trkpt lat="43.39688" lon="2.73306">
        <ele>373</ele>
        <time>2016-12-27T13:55:48.000Z</time>
      </trkpt>
      <trkpt lat="43.39688" lon="2.73306">
        <ele>373</ele>
        <time>2016-12-27T13:55:50.000Z</time>
      </trkpt>
      <trkpt lat="43.39688" lon="2.73306">
        <ele>373</ele>
        <time>2016-12-27T13:55:52.000Z</time>
      </trkpt>
      <trkpt lat="43.39688" lon="2.73306">
        <ele>373</ele>
        <time>2016-12-27T13:55:54.000Z</time>
      </trkpt>
      <trkpt lat="43.39688" lon="2.73306">
        <ele>373</ele>
        <time>2016-12-27T13:55:56.000Z</time>
      </trkpt>
      <trkpt lat="43.39676" lon="2.73299">
        <ele>375</ele>
        <time>2016-12-27T13:56:00.000Z</time>
      </trkpt>
      <trkpt lat="43.39668" lon="2.73294">
        <ele>375</ele>
        <time>2016-12-27T13:56:02.000Z</time>
      </trkpt>
      <trkpt lat="43.39661" lon="2.7329">
        <ele>375</ele>
        <time>2016-12-27T13:56:04.000Z</time>
      </trkpt>
      <trkpt lat="43.39656" lon="2.73286">
        <ele>375</ele>
        <time>2016-12-27T13:56:06.000Z</time>
      </trkpt>
      <trkpt lat="43.39656" lon="2.73286">
        <ele>375</ele>
        <time>2016-12-27T13:56:08.000Z</time>
      </trkpt>
      <trkpt lat="43.39656" lon="2.73286">
        <ele>375</ele>
        <time>2016-12-27T13:56:10.000Z</time>
      </trkpt>
      <trkpt lat="43.39649" lon="2.73274">
        <ele>376</ele>
        <time>2016-12-27T13:56:14.000Z</time>
      </trkpt>
      <trkpt lat="43.39644" lon="2.73265">
        <ele>376</ele>
        <time>2016-12-27T13:56:16.000Z</time>
      </trkpt>
      <trkpt lat="43.39644" lon="2.73265">
        <ele>376</ele>
        <time>2016-12-27T13:56:18.000Z</time>
      </trkpt>
      <trkpt lat="43.39643" lon="2.73255">
        <ele>377</ele>
        <time>2016-12-27T13:56:20.000Z</time>
      </trkpt>
      <trkpt lat="43.39644" lon="2.73246">
        <ele>378</ele>
        <time>2016-12-27T13:56:22.000Z</time>
      </trkpt>
      <trkpt lat="43.39645" lon="2.73239">
        <ele>379</ele>
        <time>2016-12-27T13:56:24.000Z</time>
      </trkpt>
      <trkpt lat="43.39647" lon="2.73232">
        <ele>379</ele>
        <time>2016-12-27T13:56:26.000Z</time>
      </trkpt>
      <trkpt lat="43.39647" lon="2.73226">
        <ele>380</ele>
        <time>2016-12-27T13:56:28.000Z</time>
      </trkpt>
      <trkpt lat="43.39647" lon="2.73226">
        <ele>380</ele>
        <time>2016-12-27T13:56:30.000Z</time>
      </trkpt>
      <trkpt lat="43.39644" lon="2.73196">
        <ele>382</ele>
        <time>2016-12-27T13:56:36.000Z</time>
      </trkpt>
      <trkpt lat="43.39639" lon="2.73184">
        <ele>383</ele>
        <time>2016-12-27T13:56:40.000Z</time>
      </trkpt>
      <trkpt lat="43.39639" lon="2.73184">
        <ele>383</ele>
        <time>2016-12-27T13:56:42.000Z</time>
      </trkpt>
      <trkpt lat="43.39639" lon="2.73184">
        <ele>383</ele>
        <time>2016-12-27T13:56:44.000Z</time>
      </trkpt>
      <trkpt lat="43.39639" lon="2.73184">
        <ele>383</ele>
        <time>2016-12-27T13:56:46.000Z</time>
      </trkpt>
      <trkpt lat="43.39639" lon="2.73184">
        <ele>383</ele>
        <time>2016-12-27T13:56:50.000Z</time>
      </trkpt>
      <trkpt lat="43.39639" lon="2.73184">
        <ele>383</ele>
        <time>2016-12-27T13:56:52.000Z</time>
      </trkpt>
      <trkpt lat="43.39639" lon="2.73184">
        <ele>383</ele>
        <time>2016-12-27T13:56:54.000Z</time>
      </trkpt>
      <trkpt lat="43.39627" lon="2.73177">
        <ele>390</ele>
        <time>2016-12-27T13:56:56.000Z</time>
      </trkpt>
      <trkpt lat="43.39628" lon="2.73189">
        <ele>391</ele>
        <time>2016-12-27T13:57:00.000Z</time>
      </trkpt>
      <trkpt lat="43.39627" lon="2.73202">
        <ele>393</ele>
        <time>2016-12-27T13:57:04.000Z</time>
      </trkpt>
      <trkpt lat="43.39627" lon="2.73202">
        <ele>393</ele>
        <time>2016-12-27T13:57:08.000Z</time>
      </trkpt>
      <trkpt lat="43.39627" lon="2.73202">
        <ele>393</ele>
        <time>2016-12-27T13:57:10.000Z</time>
      </trkpt>
      <trkpt lat="43.39627" lon="2.73202">
        <ele>393</ele>
        <time>2016-12-27T13:57:12.000Z</time>
      </trkpt>
      <trkpt lat="43.39627" lon="2.73202">
        <ele>393</ele>
        <time>2016-12-27T13:57:14.000Z</time>
      </trkpt>
      <trkpt lat="43.39616" lon="2.73236">
        <ele>397</ele>
        <time>2016-12-27T13:57:18.000Z</time>
      </trkpt>
      <trkpt lat="43.39616" lon="2.73236">
        <ele>397</ele>
        <time>2016-12-27T13:57:20.000Z</time>
      </trkpt>
      <trkpt lat="43.39616" lon="2.73236">
        <ele>397</ele>
        <time>2016-12-27T13:57:22.000Z</time>
      </trkpt>
      <trkpt lat="43.39616" lon="2.73236">
        <ele>397</ele>
        <time>2016-12-27T13:57:24.000Z</time>
      </trkpt>
      <trkpt lat="43.39608" lon="2.73261">
        <ele>400</ele>
        <time>2016-12-27T13:57:28.000Z</time>
      </trkpt>
      <trkpt lat="43.39605" lon="2.73274">
        <ele>402</ele>
        <time>2016-12-27T13:57:32.000Z</time>
      </trkpt>
      <trkpt lat="43.39605" lon="2.73292">
        <ele>403</ele>
        <time>2016-12-27T13:57:38.000Z</time>
      </trkpt>
      <trkpt lat="43.39605" lon="2.73292">
        <ele>403</ele>
        <time>2016-12-27T13:57:40.000Z</time>
      </trkpt>
      <trkpt lat="43.39605" lon="2.73292">
        <ele>403</ele>
        <time>2016-12-27T13:57:43.000Z</time>
      </trkpt>
      <trkpt lat="43.39609" lon="2.73314">
        <ele>406</ele>
        <time>2016-12-27T13:57:46.000Z</time>
      </trkpt>
      <trkpt lat="43.39612" lon="2.73321">
        <ele>407</ele>
        <time>2016-12-27T13:57:50.000Z</time>
      </trkpt>
      <trkpt lat="43.39614" lon="2.73327">
        <ele>407</ele>
        <time>2016-12-27T13:57:52.000Z</time>
      </trkpt>
      <trkpt lat="43.39614" lon="2.73327">
        <ele>407</ele>
        <time>2016-12-27T13:57:54.000Z</time>
      </trkpt>
      <trkpt lat="43.39614" lon="2.73327">
        <ele>407</ele>
        <time>2016-12-27T13:57:56.000Z</time>
      </trkpt>
      <trkpt lat="43.39614" lon="2.73327">
        <ele>407</ele>
        <time>2016-12-27T13:57:58.000Z</time>
      </trkpt>
      <trkpt lat="43.39614" lon="2.73327">
        <ele>407</ele>
        <time>2016-12-27T13:58:00.000Z</time>
      </trkpt>
      <trkpt lat="43.39614" lon="2.73327">
        <ele>407</ele>
        <time>2016-12-27T13:58:02.000Z</time>
      </trkpt>
      <trkpt lat="43.39614" lon="2.73327">
        <ele>407</ele>
        <time>2016-12-27T13:58:04.000Z</time>
      </trkpt>
      <trkpt lat="43.39612" lon="2.73353">
        <ele>412</ele>
        <time>2016-12-27T13:58:10.000Z</time>
      </trkpt>
      <trkpt lat="43.3961" lon="2.73368">
        <ele>413</ele>
        <time>2016-12-27T13:58:12.000Z</time>
      </trkpt>
      <trkpt lat="43.3961" lon="2.73368">
        <ele>413</ele>
        <time>2016-12-27T13:58:14.000Z</time>
      </trkpt>
      <trkpt lat="43.39607" lon="2.73388">
        <ele>416</ele>
        <time>2016-12-27T13:58:22.000Z</time>
      </trkpt>
      <trkpt lat="43.39605" lon="2.734">
        <ele>417</ele>
        <time>2016-12-27T13:58:24.000Z</time>
      </trkpt>
      <trkpt lat="43.39604" lon="2.73409">
        <ele>418</ele>
        <time>2016-12-27T13:58:26.000Z</time>
      </trkpt>
      <trkpt lat="43.39604" lon="2.73409">
        <ele>418</ele>
        <time>2016-12-27T13:58:28.000Z</time>
      </trkpt>
      <trkpt lat="43.39604" lon="2.73409">
        <ele>418</ele>
        <time>2016-12-27T13:58:30.000Z</time>
      </trkpt>
      <trkpt lat="43.39602" lon="2.73421">
        <ele>419</ele>
        <time>2016-12-27T13:58:32.000Z</time>
      </trkpt>
      <trkpt lat="43.39601" lon="2.73431">
        <ele>420</ele>
        <time>2016-12-27T13:58:34.000Z</time>
      </trkpt>
      <trkpt lat="43.39601" lon="2.73439">
        <ele>420</ele>
        <time>2016-12-27T13:58:36.000Z</time>
      </trkpt>
      <trkpt lat="43.396" lon="2.73446">
        <ele>421</ele>
        <time>2016-12-27T13:58:38.000Z</time>
      </trkpt>
      <trkpt lat="43.396" lon="2.73446">
        <ele>421</ele>
        <time>2016-12-27T13:58:40.000Z</time>
      </trkpt>
      <trkpt lat="43.39597" lon="2.73453">
        <ele>423</ele>
        <time>2016-12-27T13:58:42.000Z</time>
      </trkpt>
      <trkpt lat="43.39593" lon="2.73457">
        <ele>423</ele>
        <time>2016-12-27T13:58:44.000Z</time>
      </trkpt>
      <trkpt lat="43.39589" lon="2.7346">
        <ele>424</ele>
        <time>2016-12-27T13:58:46.000Z</time>
      </trkpt>
      <trkpt lat="43.39589" lon="2.7346">
        <ele>424</ele>
        <time>2016-12-27T13:58:48.000Z</time>
      </trkpt>
      <trkpt lat="43.39589" lon="2.7346">
        <ele>424</ele>
        <time>2016-12-27T13:58:50.000Z</time>
      </trkpt>
      <trkpt lat="43.39589" lon="2.7346">
        <ele>424</ele>
        <time>2016-12-27T13:58:52.000Z</time>
      </trkpt>
      <trkpt lat="43.39589" lon="2.7346">
        <ele>424</ele>
        <time>2016-12-27T13:58:54.000Z</time>
      </trkpt>
      <trkpt lat="43.39589" lon="2.7346">
        <ele>424</ele>
        <time>2016-12-27T13:58:56.000Z</time>
      </trkpt>
      <trkpt lat="43.39589" lon="2.7346">
        <ele>424</ele>
        <time>2016-12-27T13:58:58.000Z</time>
      </trkpt>
      <trkpt lat="43.39589" lon="2.7346">
        <ele>424</ele>
        <time>2016-12-27T13:59:00.000Z</time>
      </trkpt>
      <trkpt lat="43.39573" lon="2.73461">
        <ele>429</ele>
        <time>2016-12-27T13:59:04.000Z</time>
      </trkpt>
      <trkpt lat="43.39562" lon="2.73462">
        <ele>430</ele>
        <time>2016-12-27T13:59:06.000Z</time>
      </trkpt>
      <trkpt lat="43.39555" lon="2.73462">
        <ele>431</ele>
        <time>2016-12-27T13:59:08.000Z</time>
      </trkpt>
      <trkpt lat="43.39549" lon="2.73464">
        <ele>432</ele>
        <time>2016-12-27T13:59:10.000Z</time>
      </trkpt>
      <trkpt lat="43.39544" lon="2.73465">
        <ele>433</ele>
        <time>2016-12-27T13:59:12.000Z</time>
      </trkpt>
      <trkpt lat="43.39535" lon="2.73467">
        <ele>434</ele>
        <time>2016-12-27T13:59:14.000Z</time>
      </trkpt>
      <trkpt lat="43.39535" lon="2.73467">
        <ele>434</ele>
        <time>2016-12-27T13:59:20.000Z</time>
      </trkpt>
      <trkpt lat="43.39535" lon="2.73467">
        <ele>434</ele>
        <time>2016-12-27T13:59:22.000Z</time>
      </trkpt>
      <trkpt lat="43.39535" lon="2.73467">
        <ele>434</ele>
        <time>2016-12-27T13:59:24.000Z</time>
      </trkpt>
      <trkpt lat="43.39535" lon="2.73467">
        <ele>434</ele>
        <time>2016-12-27T13:59:26.000Z</time>
      </trkpt>
      <trkpt lat="43.39535" lon="2.73467">
        <ele>434</ele>
        <time>2016-12-27T13:59:28.000Z</time>
      </trkpt>
      <trkpt lat="43.39535" lon="2.73467">
        <ele>434</ele>
        <time>2016-12-27T13:59:30.000Z</time>
      </trkpt>
      <trkpt lat="43.39535" lon="2.73467">
        <ele>434</ele>
        <time>2016-12-27T13:59:34.000Z</time>
      </trkpt>
      <trkpt lat="43.39535" lon="2.73467">
        <ele>434</ele>
        <time>2016-12-27T13:59:36.000Z</time>
      </trkpt>
      <trkpt lat="43.39483" lon="2.73464">
        <ele>442</ele>
        <time>2016-12-27T13:59:40.000Z</time>
      </trkpt>
      <trkpt lat="43.39483" lon="2.73464">
        <ele>442</ele>
        <time>2016-12-27T13:59:42.000Z</time>
      </trkpt>
      <trkpt lat="43.39473" lon="2.73475">
        <ele>444</ele>
        <time>2016-12-27T13:59:46.000Z</time>
      </trkpt>
      <trkpt lat="43.39462" lon="2.73479">
        <ele>445</ele>
        <time>2016-12-27T13:59:50.000Z</time>
      </trkpt>
      <trkpt lat="43.39462" lon="2.73479">
        <ele>445</ele>
        <time>2016-12-27T13:59:56.000Z</time>
      </trkpt>
      <trkpt lat="43.39462" lon="2.73479">
        <ele>445</ele>
        <time>2016-12-27T13:59:58.000Z</time>
      </trkpt>
      <trkpt lat="43.39462" lon="2.73479">
        <ele>445</ele>
        <time>2016-12-27T14:00:00.000Z</time>
      </trkpt>
      <trkpt lat="43.39462" lon="2.73479">
        <ele>445</ele>
        <time>2016-12-27T14:00:02.000Z</time>
      </trkpt>
      <trkpt lat="43.39462" lon="2.73479">
        <ele>445</ele>
        <time>2016-12-27T14:00:04.000Z</time>
      </trkpt>
      <trkpt lat="43.39462" lon="2.73479">
        <ele>445</ele>
        <time>2016-12-27T14:00:06.000Z</time>
      </trkpt>
      <trkpt lat="43.39462" lon="2.73479">
        <ele>445</ele>
        <time>2016-12-27T14:00:08.000Z</time>
      </trkpt>
      <trkpt lat="43.39462" lon="2.73479">
        <ele>445</ele>
        <time>2016-12-27T14:00:10.000Z</time>
      </trkpt>
      <trkpt lat="43.3942" lon="2.73494">
        <ele>451</ele>
        <time>2016-12-27T14:00:12.000Z</time>
      </trkpt>
      <trkpt lat="43.39408" lon="2.73495">
        <ele>453</ele>
        <time>2016-12-27T14:00:18.000Z</time>
      </trkpt>
      <trkpt lat="43.39408" lon="2.73495">
        <ele>453</ele>
        <time>2016-12-27T14:00:20.000Z</time>
      </trkpt>
      <trkpt lat="43.39408" lon="2.73495">
        <ele>453</ele>
        <time>2016-12-27T14:00:22.000Z</time>
      </trkpt>
      <trkpt lat="43.39399" lon="2.73496">
        <ele>456</ele>
        <time>2016-12-27T14:00:26.000Z</time>
      </trkpt>
      <trkpt lat="43.39392" lon="2.73496">
        <ele>457</ele>
        <time>2016-12-27T14:00:29.000Z</time>
      </trkpt>
      <trkpt lat="43.39386" lon="2.73495">
        <ele>458</ele>
        <time>2016-12-27T14:00:30.000Z</time>
      </trkpt>
      <trkpt lat="43.3938" lon="2.73494">
        <ele>459</ele>
        <time>2016-12-27T14:00:32.000Z</time>
      </trkpt>
      <trkpt lat="43.3938" lon="2.73494">
        <ele>459</ele>
        <time>2016-12-27T14:00:34.000Z</time>
      </trkpt>
      <trkpt lat="43.3938" lon="2.73494">
        <ele>459</ele>
        <time>2016-12-27T14:00:36.000Z</time>
      </trkpt>
      <trkpt lat="43.3938" lon="2.73494">
        <ele>459</ele>
        <time>2016-12-27T14:00:38.000Z</time>
      </trkpt>
      <trkpt lat="43.3938" lon="2.73494">
        <ele>459</ele>
        <time>2016-12-27T14:00:40.000Z</time>
      </trkpt>
      <trkpt lat="43.3938" lon="2.73494">
        <ele>459</ele>
        <time>2016-12-27T14:00:42.000Z</time>
      </trkpt>
      <trkpt lat="43.3938" lon="2.73494">
        <ele>459</ele>
        <time>2016-12-27T14:00:44.000Z</time>
      </trkpt>
      <trkpt lat="43.3938" lon="2.73494">
        <ele>459</ele>
        <time>2016-12-27T14:00:48.000Z</time>
      </trkpt>
      <trkpt lat="43.3938" lon="2.73494">
        <ele>459</ele>
        <time>2016-12-27T14:00:50.000Z</time>
      </trkpt>
      <trkpt lat="43.3938" lon="2.73494">
        <ele>459</ele>
        <time>2016-12-27T14:00:52.000Z</time>
      </trkpt>
      <trkpt lat="43.39362" lon="2.73513">
        <ele>469</ele>
        <time>2016-12-27T14:00:56.000Z</time>
      </trkpt>
      <trkpt lat="43.39354" lon="2.73525">
        <ele>470</ele>
        <time>2016-12-27T14:00:58.000Z</time>
      </trkpt>
      <trkpt lat="43.3935" lon="2.73533">
        <ele>471</ele>
        <time>2016-12-27T14:01:00.000Z</time>
      </trkpt>
      <trkpt lat="43.3935" lon="2.73533">
        <ele>471</ele>
        <time>2016-12-27T14:01:02.000Z</time>
      </trkpt>
      <trkpt lat="43.3935" lon="2.73533">
        <ele>471</ele>
        <time>2016-12-27T14:01:04.000Z</time>
      </trkpt>
      <trkpt lat="43.39347" lon="2.73544">
        <ele>473</ele>
        <time>2016-12-27T14:01:08.000Z</time>
      </trkpt>
      <trkpt lat="43.39344" lon="2.73551">
        <ele>473</ele>
        <time>2016-12-27T14:01:10.000Z</time>
      </trkpt>
      <trkpt lat="43.39344" lon="2.73551">
        <ele>473</ele>
        <time>2016-12-27T14:01:12.000Z</time>
      </trkpt>
      <trkpt lat="43.39344" lon="2.73551">
        <ele>473</ele>
        <time>2016-12-27T14:01:14.000Z</time>
      </trkpt>
      <trkpt lat="43.39344" lon="2.73551">
        <ele>473</ele>
        <time>2016-12-27T14:01:16.000Z</time>
      </trkpt>
      <trkpt lat="43.39344" lon="2.73551">
        <ele>473</ele>
        <time>2016-12-27T14:01:18.000Z</time>
      </trkpt>
      <trkpt lat="43.39331" lon="2.73564">
        <ele>480</ele>
        <time>2016-12-27T14:01:48.000Z</time>
      </trkpt>
      <trkpt lat="43.39324" lon="2.7357">
        <ele>480</ele>
        <time>2016-12-27T14:01:50.000Z</time>
      </trkpt>
      <trkpt lat="43.39324" lon="2.7357">
        <ele>480</ele>
        <time>2016-12-27T14:01:52.000Z</time>
      </trkpt>
      <trkpt lat="43.39324" lon="2.7357">
        <ele>480</ele>
        <time>2016-12-27T14:01:54.000Z</time>
      </trkpt>
      <trkpt lat="43.39324" lon="2.7357">
        <ele>480</ele>
        <time>2016-12-27T14:01:56.000Z</time>
      </trkpt>
      <trkpt lat="43.39324" lon="2.7357">
        <ele>480</ele>
        <time>2016-12-27T14:01:58.000Z</time>
      </trkpt>
      <trkpt lat="43.39313" lon="2.73572">
        <ele>483</ele>
        <time>2016-12-27T14:02:11.000Z</time>
      </trkpt>
      <trkpt lat="43.39306" lon="2.73573">
        <ele>483</ele>
        <time>2016-12-27T14:02:13.000Z</time>
      </trkpt>
      <trkpt lat="43.39301" lon="2.73575">
        <ele>483</ele>
        <time>2016-12-27T14:02:15.000Z</time>
      </trkpt>
      <trkpt lat="43.39295" lon="2.73579">
        <ele>484</ele>
        <time>2016-12-27T14:02:17.000Z</time>
      </trkpt>
      <trkpt lat="43.3929" lon="2.73583">
        <ele>484</ele>
        <time>2016-12-27T14:02:19.000Z</time>
      </trkpt>
      <trkpt lat="43.39283" lon="2.73593">
        <ele>484</ele>
        <time>2016-12-27T14:02:21.000Z</time>
      </trkpt>
      <trkpt lat="43.39283" lon="2.73593">
        <ele>484</ele>
        <time>2016-12-27T14:02:25.000Z</time>
      </trkpt>
      <trkpt lat="43.39283" lon="2.73593">
        <ele>484</ele>
        <time>2016-12-27T14:02:27.000Z</time>
      </trkpt>
      <trkpt lat="43.39283" lon="2.73593">
        <ele>484</ele>
        <time>2016-12-27T14:02:29.000Z</time>
      </trkpt>
      <trkpt lat="43.39283" lon="2.73593">
        <ele>484</ele>
        <time>2016-12-27T14:02:31.000Z</time>
      </trkpt>
      <trkpt lat="43.39283" lon="2.73593">
        <ele>484</ele>
        <time>2016-12-27T14:02:33.000Z</time>
      </trkpt>
      <trkpt lat="43.39283" lon="2.73593">
        <ele>484</ele>
        <time>2016-12-27T14:02:35.000Z</time>
      </trkpt>
      <trkpt lat="43.39291" lon="2.73637">
        <ele>484</ele>
        <time>2016-12-27T14:02:52.000Z</time>
      </trkpt>
      <trkpt lat="43.39297" lon="2.73651">
        <ele>484</ele>
        <time>2016-12-27T14:03:00.000Z</time>
      </trkpt>
      <trkpt lat="43.39297" lon="2.73651">
        <ele>484</ele>
        <time>2016-12-27T14:03:02.000Z</time>
      </trkpt>
      <trkpt lat="43.39297" lon="2.73651">
        <ele>484</ele>
        <time>2016-12-27T14:03:04.000Z</time>
      </trkpt>
      <trkpt lat="43.39297" lon="2.73651">
        <ele>484</ele>
        <time>2016-12-27T14:03:06.000Z</time>
      </trkpt>
      <trkpt lat="43.39297" lon="2.73651">
        <ele>484</ele>
        <time>2016-12-27T14:03:08.000Z</time>
      </trkpt>
      <trkpt lat="43.39297" lon="2.73651">
        <ele>484</ele>
        <time>2016-12-27T14:03:10.000Z</time>
      </trkpt>
      <trkpt lat="43.39283" lon="2.73657">
        <ele>486</ele>
        <time>2016-12-27T14:03:14.000Z</time>
      </trkpt>
      <trkpt lat="43.39283" lon="2.73657">
        <ele>486</ele>
        <time>2016-12-27T14:03:20.000Z</time>
      </trkpt>
      <trkpt lat="43.39283" lon="2.73657">
        <ele>486</ele>
        <time>2016-12-27T14:03:22.000Z</time>
      </trkpt>
      <trkpt lat="43.39263" lon="2.73645">
        <ele>488</ele>
        <time>2016-12-27T14:03:26.000Z</time>
      </trkpt>
      <trkpt lat="43.39255" lon="2.73638">
        <ele>488</ele>
        <time>2016-12-27T14:03:30.000Z</time>
      </trkpt>
      <trkpt lat="43.39255" lon="2.73638">
        <ele>488</ele>
        <time>2016-12-27T14:03:32.000Z</time>
      </trkpt>
      <trkpt lat="43.39249" lon="2.73634">
        <ele>489</ele>
        <time>2016-12-27T14:03:34.000Z</time>
      </trkpt>
      <trkpt lat="43.39249" lon="2.73634">
        <ele>489</ele>
        <time>2016-12-27T14:03:36.000Z</time>
      </trkpt>
      <trkpt lat="43.39249" lon="2.73634">
        <ele>489</ele>
        <time>2016-12-27T14:03:38.000Z</time>
      </trkpt>
      <trkpt lat="43.39238" lon="2.73627">
        <ele>491</ele>
        <time>2016-12-27T14:03:42.000Z</time>
      </trkpt>
      <trkpt lat="43.39229" lon="2.73623">
        <ele>491</ele>
        <time>2016-12-27T14:03:44.000Z</time>
      </trkpt>
      <trkpt lat="43.39223" lon="2.7362">
        <ele>491</ele>
        <time>2016-12-27T14:03:46.000Z</time>
      </trkpt>
      <trkpt lat="43.39223" lon="2.7362">
        <ele>491</ele>
        <time>2016-12-27T14:03:48.000Z</time>
      </trkpt>
      <trkpt lat="43.39223" lon="2.7362">
        <ele>491</ele>
        <time>2016-12-27T14:03:50.000Z</time>
      </trkpt>
      <trkpt lat="43.39223" lon="2.7362">
        <ele>491</ele>
        <time>2016-12-27T14:03:52.000Z</time>
      </trkpt>
      <trkpt lat="43.39223" lon="2.7362">
        <ele>491</ele>
        <time>2016-12-27T14:03:54.000Z</time>
      </trkpt>
      <trkpt lat="43.39223" lon="2.7362">
        <ele>491</ele>
        <time>2016-12-27T14:03:56.000Z</time>
      </trkpt>
      <trkpt lat="43.39223" lon="2.7362">
        <ele>491</ele>
        <time>2016-12-27T14:03:58.000Z</time>
      </trkpt>
      <trkpt lat="43.39223" lon="2.7362">
        <ele>491</ele>
        <time>2016-12-27T14:04:02.000Z</time>
      </trkpt>
      <trkpt lat="43.39199" lon="2.73612">
        <ele>497</ele>
        <time>2016-12-27T14:04:06.000Z</time>
      </trkpt>
      <trkpt lat="43.39185" lon="2.73608">
        <ele>497</ele>
        <time>2016-12-27T14:04:08.000Z</time>
      </trkpt>
      <trkpt lat="43.39175" lon="2.73605">
        <ele>498</ele>
        <time>2016-12-27T14:04:10.000Z</time>
      </trkpt>
      <trkpt lat="43.39167" lon="2.73602">
        <ele>498</ele>
        <time>2016-12-27T14:04:12.000Z</time>
      </trkpt>
      <trkpt lat="43.39161" lon="2.73599">
        <ele>499</ele>
        <time>2016-12-27T14:04:14.000Z</time>
      </trkpt>
      <trkpt lat="43.39161" lon="2.73599">
        <ele>499</ele>
        <time>2016-12-27T14:04:16.000Z</time>
      </trkpt>
      <trkpt lat="43.39161" lon="2.73599">
        <ele>499</ele>
        <time>2016-12-27T14:04:18.000Z</time>
      </trkpt>
      <trkpt lat="43.39135" lon="2.73588">
        <ele>501</ele>
        <time>2016-12-27T14:04:22.000Z</time>
      </trkpt>
      <trkpt lat="43.39135" lon="2.73588">
        <ele>501</ele>
        <time>2016-12-27T14:04:24.000Z</time>
      </trkpt>
      <trkpt lat="43.39135" lon="2.73588">
        <ele>501</ele>
        <time>2016-12-27T14:04:26.000Z</time>
      </trkpt>
      <trkpt lat="43.39135" lon="2.73588">
        <ele>501</ele>
        <time>2016-12-27T14:04:28.000Z</time>
      </trkpt>
      <trkpt lat="43.39135" lon="2.73588">
        <ele>501</ele>
        <time>2016-12-27T14:04:30.000Z</time>
      </trkpt>
      <trkpt lat="43.39135" lon="2.73588">
        <ele>501</ele>
        <time>2016-12-27T14:04:32.000Z</time>
      </trkpt>
      <trkpt lat="43.39135" lon="2.73588">
        <ele>501</ele>
        <time>2016-12-27T14:04:34.000Z</time>
      </trkpt>
      <trkpt lat="43.39103" lon="2.7357">
        <ele>508</ele>
        <time>2016-12-27T14:04:38.000Z</time>
      </trkpt>
      <trkpt lat="43.39095" lon="2.7356">
        <ele>509</ele>
        <time>2016-12-27T14:04:42.000Z</time>
      </trkpt>
      <trkpt lat="43.39095" lon="2.7356">
        <ele>509</ele>
        <time>2016-12-27T14:04:44.000Z</time>
      </trkpt>
      <trkpt lat="43.39088" lon="2.73552">
        <ele>509</ele>
        <time>2016-12-27T14:04:46.000Z</time>
      </trkpt>
      <trkpt lat="43.39088" lon="2.73552">
        <ele>509</ele>
        <time>2016-12-27T14:04:48.000Z</time>
      </trkpt>
      <trkpt lat="43.39088" lon="2.73552">
        <ele>509</ele>
        <time>2016-12-27T14:04:54.000Z</time>
      </trkpt>
      <trkpt lat="43.39088" lon="2.73552">
        <ele>509</ele>
        <time>2016-12-27T14:04:56.000Z</time>
      </trkpt>
      <trkpt lat="43.39068" lon="2.73562">
        <ele>512</ele>
        <time>2016-12-27T14:04:58.000Z</time>
      </trkpt>
      <trkpt lat="43.39068" lon="2.73574">
        <ele>513</ele>
        <time>2016-12-27T14:05:02.000Z</time>
      </trkpt>
      <trkpt lat="43.39067" lon="2.7359">
        <ele>514</ele>
        <time>2016-12-27T14:05:06.000Z</time>
      </trkpt>
      <trkpt lat="43.39067" lon="2.73606">
        <ele>515</ele>
        <time>2016-12-27T14:05:10.000Z</time>
      </trkpt>
      <trkpt lat="43.39069" lon="2.73624">
        <ele>516</ele>
        <time>2016-12-27T14:05:14.000Z</time>
      </trkpt>
      <trkpt lat="43.39071" lon="2.73643">
        <ele>517</ele>
        <time>2016-12-27T14:05:18.000Z</time>
      </trkpt>
      <trkpt lat="43.39076" lon="2.7366">
        <ele>518</ele>
        <time>2016-12-27T14:05:22.000Z</time>
      </trkpt>
      <trkpt lat="43.39084" lon="2.73679">
        <ele>518</ele>
        <time>2016-12-27T14:05:26.000Z</time>
      </trkpt>
      <trkpt lat="43.39095" lon="2.73698">
        <ele>519</ele>
        <time>2016-12-27T14:05:30.000Z</time>
      </trkpt>
      <trkpt lat="43.39095" lon="2.73698">
        <ele>519</ele>
        <time>2016-12-27T14:05:32.000Z</time>
      </trkpt>
      <trkpt lat="43.39095" lon="2.73698">
        <ele>519</ele>
        <time>2016-12-27T14:05:34.000Z</time>
      </trkpt>
      <trkpt lat="43.39095" lon="2.73698">
        <ele>519</ele>
        <time>2016-12-27T14:05:36.000Z</time>
      </trkpt>
      <trkpt lat="43.39095" lon="2.73698">
        <ele>519</ele>
        <time>2016-12-27T14:05:38.000Z</time>
      </trkpt>
      <trkpt lat="43.39095" lon="2.73698">
        <ele>519</ele>
        <time>2016-12-27T14:05:40.000Z</time>
      </trkpt>
      <trkpt lat="43.39095" lon="2.73698">
        <ele>519</ele>
        <time>2016-12-27T14:05:48.000Z</time>
      </trkpt>
      <trkpt lat="43.39095" lon="2.73698">
        <ele>519</ele>
        <time>2016-12-27T14:05:50.000Z</time>
      </trkpt>
      <trkpt lat="43.39095" lon="2.73698">
        <ele>519</ele>
        <time>2016-12-27T14:05:52.000Z</time>
      </trkpt>
      <trkpt lat="43.39118" lon="2.73747">
        <ele>526</ele>
        <time>2016-12-27T14:06:00.000Z</time>
      </trkpt>
      <trkpt lat="43.3913" lon="2.73776">
        <ele>526</ele>
        <time>2016-12-27T14:06:02.000Z</time>
      </trkpt>
      <trkpt lat="43.39137" lon="2.73795">
        <ele>527</ele>
        <time>2016-12-27T14:06:04.000Z</time>
      </trkpt>
      <trkpt lat="43.39141" lon="2.73809">
        <ele>527</ele>
        <time>2016-12-27T14:06:06.000Z</time>
      </trkpt>
      <trkpt lat="43.39144" lon="2.7382">
        <ele>528</ele>
        <time>2016-12-27T14:06:08.000Z</time>
      </trkpt>
      <trkpt lat="43.39147" lon="2.73841">
        <ele>529</ele>
        <time>2016-12-27T14:06:10.000Z</time>
      </trkpt>
      <trkpt lat="43.39148" lon="2.7386">
        <ele>530</ele>
        <time>2016-12-27T14:06:14.000Z</time>
      </trkpt>
      <trkpt lat="43.39148" lon="2.73878">
        <ele>531</ele>
        <time>2016-12-27T14:06:18.000Z</time>
      </trkpt>
      <trkpt lat="43.39148" lon="2.73878">
        <ele>531</ele>
        <time>2016-12-27T14:06:20.000Z</time>
      </trkpt>
      <trkpt lat="43.39148" lon="2.73878">
        <ele>531</ele>
        <time>2016-12-27T14:06:22.000Z</time>
      </trkpt>
      <trkpt lat="43.39152" lon="2.73915">
        <ele>532</ele>
        <time>2016-12-27T14:06:26.000Z</time>
      </trkpt>
      <trkpt lat="43.39153" lon="2.73934">
        <ele>533</ele>
        <time>2016-12-27T14:06:30.000Z</time>
      </trkpt>
      <trkpt lat="43.39154" lon="2.73955">
        <ele>533</ele>
        <time>2016-12-27T14:06:34.000Z</time>
      </trkpt>
      <trkpt lat="43.39154" lon="2.73978">
        <ele>534</ele>
        <time>2016-12-27T14:06:38.000Z</time>
      </trkpt>
      <trkpt lat="43.39155" lon="2.74003">
        <ele>533</ele>
        <time>2016-12-27T14:06:42.000Z</time>
      </trkpt>
      <trkpt lat="43.39152" lon="2.7402">
        <ele>533</ele>
        <time>2016-12-27T14:06:44.000Z</time>
      </trkpt>
      <trkpt lat="43.3915" lon="2.74039">
        <ele>532</ele>
        <time>2016-12-27T14:06:46.000Z</time>
      </trkpt>
      <trkpt lat="43.3915" lon="2.74059">
        <ele>532</ele>
        <time>2016-12-27T14:06:48.000Z</time>
      </trkpt>
      <trkpt lat="43.39148" lon="2.74079">
        <ele>531</ele>
        <time>2016-12-27T14:06:50.000Z</time>
      </trkpt>
      <trkpt lat="43.39148" lon="2.74097">
        <ele>531</ele>
        <time>2016-12-27T14:06:52.000Z</time>
      </trkpt>
      <trkpt lat="43.3915" lon="2.74114">
        <ele>530</ele>
        <time>2016-12-27T14:06:54.000Z</time>
      </trkpt>
      <trkpt lat="43.3915" lon="2.7413">
        <ele>529</ele>
        <time>2016-12-27T14:06:56.000Z</time>
      </trkpt>
      <trkpt lat="43.39151" lon="2.74146">
        <ele>529</ele>
        <time>2016-12-27T14:06:58.000Z</time>
      </trkpt>
      <trkpt lat="43.39153" lon="2.74163">
        <ele>527</ele>
        <time>2016-12-27T14:07:00.000Z</time>
      </trkpt>
      <trkpt lat="43.39154" lon="2.7418">
        <ele>526</ele>
        <time>2016-12-27T14:07:02.000Z</time>
      </trkpt>
      <trkpt lat="43.39156" lon="2.74198">
        <ele>525</ele>
        <time>2016-12-27T14:07:04.000Z</time>
      </trkpt>
      <trkpt lat="43.39161" lon="2.74217">
        <ele>524</ele>
        <time>2016-12-27T14:07:06.000Z</time>
      </trkpt>
      <trkpt lat="43.39167" lon="2.74235">
        <ele>522</ele>
        <time>2016-12-27T14:07:08.000Z</time>
      </trkpt>
      <trkpt lat="43.39175" lon="2.74251">
        <ele>521</ele>
        <time>2016-12-27T14:07:10.000Z</time>
      </trkpt>
      <trkpt lat="43.39183" lon="2.74267">
        <ele>520</ele>
        <time>2016-12-27T14:07:12.000Z</time>
      </trkpt>
      <trkpt lat="43.3919" lon="2.74281">
        <ele>519</ele>
        <time>2016-12-27T14:07:14.000Z</time>
      </trkpt>
      <trkpt lat="43.39193" lon="2.74295">
        <ele>517</ele>
        <time>2016-12-27T14:07:16.000Z</time>
      </trkpt>
      <trkpt lat="43.39194" lon="2.74309">
        <ele>516</ele>
        <time>2016-12-27T14:07:18.000Z</time>
      </trkpt>
      <trkpt lat="43.39194" lon="2.74309">
        <ele>516</ele>
        <time>2016-12-27T14:07:20.000Z</time>
      </trkpt>
      <trkpt lat="43.39194" lon="2.74309">
        <ele>516</ele>
        <time>2016-12-27T14:07:22.000Z</time>
      </trkpt>
      <trkpt lat="43.39176" lon="2.74381">
        <ele>510</ele>
        <time>2016-12-27T14:07:28.000Z</time>
      </trkpt>
      <trkpt lat="43.39176" lon="2.74397">
        <ele>509</ele>
        <time>2016-12-27T14:07:30.000Z</time>
      </trkpt>
      <trkpt lat="43.39178" lon="2.74414">
        <ele>508</ele>
        <time>2016-12-27T14:07:32.000Z</time>
      </trkpt>
      <trkpt lat="43.39182" lon="2.74434">
        <ele>507</ele>
        <time>2016-12-27T14:07:34.000Z</time>
      </trkpt>
      <trkpt lat="43.39186" lon="2.74452">
        <ele>506</ele>
        <time>2016-12-27T14:07:36.000Z</time>
      </trkpt>
      <trkpt lat="43.39192" lon="2.7447">
        <ele>504</ele>
        <time>2016-12-27T14:07:38.000Z</time>
      </trkpt>
      <trkpt lat="43.39194" lon="2.7449">
        <ele>503</ele>
        <time>2016-12-27T14:07:40.000Z</time>
      </trkpt>
      <trkpt lat="43.39195" lon="2.74515">
        <ele>502</ele>
        <time>2016-12-27T14:07:42.000Z</time>
      </trkpt>
      <trkpt lat="43.39198" lon="2.74539">
        <ele>500</ele>
        <time>2016-12-27T14:07:44.000Z</time>
      </trkpt>
      <trkpt lat="43.392" lon="2.74564">
        <ele>499</ele>
        <time>2016-12-27T14:07:46.000Z</time>
      </trkpt>
      <trkpt lat="43.39202" lon="2.74587">
        <ele>498</ele>
        <time>2016-12-27T14:07:48.000Z</time>
      </trkpt>
      <trkpt lat="43.39204" lon="2.74606">
        <ele>497</ele>
        <time>2016-12-27T14:07:50.000Z</time>
      </trkpt>
      <trkpt lat="43.39205" lon="2.74621">
        <ele>495</ele>
        <time>2016-12-27T14:07:52.000Z</time>
      </trkpt>
      <trkpt lat="43.39207" lon="2.74634">
        <ele>494</ele>
        <time>2016-12-27T14:07:54.000Z</time>
      </trkpt>
      <trkpt lat="43.39207" lon="2.74634">
        <ele>494</ele>
        <time>2016-12-27T14:07:56.000Z</time>
      </trkpt>
      <trkpt lat="43.39207" lon="2.74634">
        <ele>494</ele>
        <time>2016-12-27T14:07:58.000Z</time>
      </trkpt>
      <trkpt lat="43.39207" lon="2.74634">
        <ele>494</ele>
        <time>2016-12-27T14:08:00.000Z</time>
      </trkpt>
      <trkpt lat="43.39207" lon="2.74634">
        <ele>494</ele>
        <time>2016-12-27T14:08:02.000Z</time>
      </trkpt>
      <trkpt lat="43.39207" lon="2.74634">
        <ele>494</ele>
        <time>2016-12-27T14:08:04.000Z</time>
      </trkpt>
      <trkpt lat="43.39211" lon="2.74675">
        <ele>493</ele>
        <time>2016-12-27T14:08:10.000Z</time>
      </trkpt>
      <trkpt lat="43.39215" lon="2.74692">
        <ele>493</ele>
        <time>2016-12-27T14:08:14.000Z</time>
      </trkpt>
      <trkpt lat="43.39221" lon="2.7471">
        <ele>493</ele>
        <time>2016-12-27T14:08:18.000Z</time>
      </trkpt>
      <trkpt lat="43.39229" lon="2.74731">
        <ele>493</ele>
        <time>2016-12-27T14:08:22.000Z</time>
      </trkpt>
      <trkpt lat="43.39235" lon="2.74741">
        <ele>492</ele>
        <time>2016-12-27T14:08:24.000Z</time>
      </trkpt>
      <trkpt lat="43.39242" lon="2.7475">
        <ele>492</ele>
        <time>2016-12-27T14:08:26.000Z</time>
      </trkpt>
      <trkpt lat="43.39249" lon="2.74758">
        <ele>491</ele>
        <time>2016-12-27T14:08:28.000Z</time>
      </trkpt>
      <trkpt lat="43.39249" lon="2.74758">
        <ele>491</ele>
        <time>2016-12-27T14:08:30.000Z</time>
      </trkpt>
      <trkpt lat="43.39249" lon="2.74758">
        <ele>491</ele>
        <time>2016-12-27T14:08:32.000Z</time>
      </trkpt>
      <trkpt lat="43.39249" lon="2.74758">
        <ele>491</ele>
        <time>2016-12-27T14:08:34.000Z</time>
      </trkpt>
      <trkpt lat="43.39249" lon="2.74758">
        <ele>491</ele>
        <time>2016-12-27T14:08:36.000Z</time>
      </trkpt>
      <trkpt lat="43.39295" lon="2.74792">
        <ele>489</ele>
        <time>2016-12-27T14:08:42.000Z</time>
      </trkpt>
      <trkpt lat="43.39295" lon="2.74792">
        <ele>489</ele>
        <time>2016-12-27T14:08:44.000Z</time>
      </trkpt>
      <trkpt lat="43.39303" lon="2.74793">
        <ele>491</ele>
        <time>2016-12-27T14:08:46.000Z</time>
      </trkpt>
      <trkpt lat="43.39303" lon="2.74793">
        <ele>491</ele>
        <time>2016-12-27T14:08:48.000Z</time>
      </trkpt>
      <trkpt lat="43.39303" lon="2.74793">
        <ele>491</ele>
        <time>2016-12-27T14:08:50.000Z</time>
      </trkpt>
      <trkpt lat="43.39303" lon="2.74793">
        <ele>491</ele>
        <time>2016-12-27T14:08:52.000Z</time>
      </trkpt>
      <trkpt lat="43.39303" lon="2.74793">
        <ele>491</ele>
        <time>2016-12-27T14:08:54.000Z</time>
      </trkpt>
      <trkpt lat="43.39303" lon="2.74793">
        <ele>491</ele>
        <time>2016-12-27T14:08:56.000Z</time>
      </trkpt>
      <trkpt lat="43.39303" lon="2.74793">
        <ele>491</ele>
        <time>2016-12-27T14:08:58.000Z</time>
      </trkpt>
      <trkpt lat="43.39303" lon="2.74793">
        <ele>491</ele>
        <time>2016-12-27T14:09:02.000Z</time>
      </trkpt>
      <trkpt lat="43.39303" lon="2.74793">
        <ele>491</ele>
        <time>2016-12-27T14:09:04.000Z</time>
      </trkpt>
      <trkpt lat="43.39303" lon="2.74793">
        <ele>491</ele>
        <time>2016-12-27T14:09:06.000Z</time>
      </trkpt>
      <trkpt lat="43.39344" lon="2.74799">
        <ele>501</ele>
        <time>2016-12-27T14:09:08.000Z</time>
      </trkpt>
      <trkpt lat="43.39367" lon="2.74805">
        <ele>501</ele>
        <time>2016-12-27T14:09:10.000Z</time>
      </trkpt>
      <trkpt lat="43.39367" lon="2.74805">
        <ele>501</ele>
        <time>2016-12-27T14:09:12.000Z</time>
      </trkpt>
      <trkpt lat="43.39367" lon="2.74805">
        <ele>501</ele>
        <time>2016-12-27T14:09:14.000Z</time>
      </trkpt>
      <trkpt lat="43.39392" lon="2.74817">
        <ele>503</ele>
        <time>2016-12-27T14:09:18.000Z</time>
      </trkpt>
      <trkpt lat="43.39407" lon="2.74827">
        <ele>503</ele>
        <time>2016-12-27T14:09:20.000Z</time>
      </trkpt>
      <trkpt lat="43.39418" lon="2.74835">
        <ele>503</ele>
        <time>2016-12-27T14:09:22.000Z</time>
      </trkpt>
      <trkpt lat="43.39425" lon="2.74843">
        <ele>503</ele>
        <time>2016-12-27T14:09:24.000Z</time>
      </trkpt>
      <trkpt lat="43.3943" lon="2.74852">
        <ele>503</ele>
        <time>2016-12-27T14:09:26.000Z</time>
      </trkpt>
      <trkpt lat="43.39437" lon="2.74872">
        <ele>502</ele>
        <time>2016-12-27T14:09:28.000Z</time>
      </trkpt>
      <trkpt lat="43.39439" lon="2.74884">
        <ele>502</ele>
        <time>2016-12-27T14:09:30.000Z</time>
      </trkpt>
      <trkpt lat="43.39442" lon="2.74897">
        <ele>501</ele>
        <time>2016-12-27T14:09:32.000Z</time>
      </trkpt>
      <trkpt lat="43.39443" lon="2.7491">
        <ele>500</ele>
        <time>2016-12-27T14:09:34.000Z</time>
      </trkpt>
      <trkpt lat="43.39445" lon="2.74924">
        <ele>500</ele>
        <time>2016-12-27T14:09:36.000Z</time>
      </trkpt>
      <trkpt lat="43.39447" lon="2.74937">
        <ele>499</ele>
        <time>2016-12-27T14:09:38.000Z</time>
      </trkpt>
      <trkpt lat="43.39449" lon="2.74949">
        <ele>498</ele>
        <time>2016-12-27T14:09:40.000Z</time>
      </trkpt>
      <trkpt lat="43.39449" lon="2.74949">
        <ele>498</ele>
        <time>2016-12-27T14:09:42.000Z</time>
      </trkpt>
      <trkpt lat="43.39449" lon="2.74949">
        <ele>498</ele>
        <time>2016-12-27T14:09:44.000Z</time>
      </trkpt>
      <trkpt lat="43.39449" lon="2.74949">
        <ele>498</ele>
        <time>2016-12-27T14:09:46.000Z</time>
      </trkpt>
      <trkpt lat="43.39449" lon="2.74949">
        <ele>498</ele>
        <time>2016-12-27T14:09:48.000Z</time>
      </trkpt>
      <trkpt lat="43.39449" lon="2.74949">
        <ele>498</ele>
        <time>2016-12-27T14:09:50.000Z</time>
      </trkpt>
      <trkpt lat="43.39449" lon="2.74949">
        <ele>498</ele>
        <time>2016-12-27T14:09:52.000Z</time>
      </trkpt>
      <trkpt lat="43.39449" lon="2.74949">
        <ele>498</ele>
        <time>2016-12-27T14:09:54.000Z</time>
      </trkpt>
      <trkpt lat="43.39449" lon="2.74949">
        <ele>498</ele>
        <time>2016-12-27T14:10:00.000Z</time>
      </trkpt>
      <trkpt lat="43.39449" lon="2.74949">
        <ele>498</ele>
        <time>2016-12-27T14:10:02.000Z</time>
      </trkpt>
      <trkpt lat="43.39449" lon="2.74949">
        <ele>498</ele>
        <time>2016-12-27T14:10:04.000Z</time>
      </trkpt>
      <trkpt lat="43.39449" lon="2.74949">
        <ele>498</ele>
        <time>2016-12-27T14:10:06.000Z</time>
      </trkpt>
      <trkpt lat="43.39449" lon="2.74949">
        <ele>498</ele>
        <time>2016-12-27T14:10:08.000Z</time>
      </trkpt>
      <trkpt lat="43.39449" lon="2.74949">
        <ele>498</ele>
        <time>2016-12-27T14:10:10.000Z</time>
      </trkpt>
      <trkpt lat="43.39449" lon="2.74949">
        <ele>498</ele>
        <time>2016-12-27T14:10:12.000Z</time>
      </trkpt>
      <trkpt lat="43.39449" lon="2.74949">
        <ele>498</ele>
        <time>2016-12-27T14:10:14.000Z</time>
      </trkpt>
      <trkpt lat="43.39562" lon="2.7509">
        <ele>489</ele>
        <time>2016-12-27T14:10:18.000Z</time>
      </trkpt>
      <trkpt lat="43.39575" lon="2.75109">
        <ele>489</ele>
        <time>2016-12-27T14:10:22.000Z</time>
      </trkpt>
      <trkpt lat="43.39581" lon="2.75122">
        <ele>489</ele>
        <time>2016-12-27T14:10:24.000Z</time>
      </trkpt>
      <trkpt lat="43.39586" lon="2.75137">
        <ele>488</ele>
        <time>2016-12-27T14:10:26.000Z</time>
      </trkpt>
      <trkpt lat="43.3959" lon="2.75152">
        <ele>487</ele>
        <time>2016-12-27T14:10:28.000Z</time>
      </trkpt>
      <trkpt lat="43.39594" lon="2.75167">
        <ele>487</ele>
        <time>2016-12-27T14:10:30.000Z</time>
      </trkpt>
      <trkpt lat="43.39597" lon="2.75184">
        <ele>486</ele>
        <time>2016-12-27T14:10:32.000Z</time>
      </trkpt>
      <trkpt lat="43.39601" lon="2.75203">
        <ele>485</ele>
        <time>2016-12-27T14:10:34.000Z</time>
      </trkpt>
      <trkpt lat="43.39602" lon="2.75221">
        <ele>485</ele>
        <time>2016-12-27T14:10:36.000Z</time>
      </trkpt>
      <trkpt lat="43.39601" lon="2.75239">
        <ele>485</ele>
        <time>2016-12-27T14:10:38.000Z</time>
      </trkpt>
      <trkpt lat="43.396" lon="2.75257">
        <ele>484</ele>
        <time>2016-12-27T14:10:40.000Z</time>
      </trkpt>
      <trkpt lat="43.39596" lon="2.75273">
        <ele>483</ele>
        <time>2016-12-27T14:10:42.000Z</time>
      </trkpt>
      <trkpt lat="43.39594" lon="2.75289">
        <ele>482</ele>
        <time>2016-12-27T14:10:44.000Z</time>
      </trkpt>
      <trkpt lat="43.39593" lon="2.75304">
        <ele>482</ele>
        <time>2016-12-27T14:10:46.000Z</time>
      </trkpt>
      <trkpt lat="43.39593" lon="2.7532">
        <ele>481</ele>
        <time>2016-12-27T14:10:48.000Z</time>
      </trkpt>
      <trkpt lat="43.39595" lon="2.75334">
        <ele>480</ele>
        <time>2016-12-27T14:10:50.000Z</time>
      </trkpt>
      <trkpt lat="43.39595" lon="2.75334">
        <ele>480</ele>
        <time>2016-12-27T14:10:52.000Z</time>
      </trkpt>
      <trkpt lat="43.39595" lon="2.75334">
        <ele>480</ele>
        <time>2016-12-27T14:10:54.000Z</time>
      </trkpt>
      <trkpt lat="43.39604" lon="2.75377">
        <ele>478</ele>
        <time>2016-12-27T14:10:56.000Z</time>
      </trkpt>
      <trkpt lat="43.3961" lon="2.75391">
        <ele>477</ele>
        <time>2016-12-27T14:10:58.000Z</time>
      </trkpt>
      <trkpt lat="43.3961" lon="2.75391">
        <ele>477</ele>
        <time>2016-12-27T14:11:00.000Z</time>
      </trkpt>
      <trkpt lat="43.3961" lon="2.75391">
        <ele>477</ele>
        <time>2016-12-27T14:11:02.000Z</time>
      </trkpt>
      <trkpt lat="43.3961" lon="2.75391">
        <ele>477</ele>
        <time>2016-12-27T14:11:04.000Z</time>
      </trkpt>
      <trkpt lat="43.3961" lon="2.75391">
        <ele>477</ele>
        <time>2016-12-27T14:11:12.000Z</time>
      </trkpt>
      <trkpt lat="43.39652" lon="2.75437">
        <ele>471</ele>
        <time>2016-12-27T14:11:18.000Z</time>
      </trkpt>
      <trkpt lat="43.39679" lon="2.75461">
        <ele>471</ele>
        <time>2016-12-27T14:11:20.000Z</time>
      </trkpt>
      <trkpt lat="43.39699" lon="2.75474">
        <ele>470</ele>
        <time>2016-12-27T14:11:22.000Z</time>
      </trkpt>
      <trkpt lat="43.39699" lon="2.75474">
        <ele>470</ele>
        <time>2016-12-27T14:11:24.000Z</time>
      </trkpt>
      <trkpt lat="43.39699" lon="2.75474">
        <ele>470</ele>
        <time>2016-12-27T14:11:26.000Z</time>
      </trkpt>
      <trkpt lat="43.39699" lon="2.75474">
        <ele>470</ele>
        <time>2016-12-27T14:11:28.000Z</time>
      </trkpt>
      <trkpt lat="43.39699" lon="2.75474">
        <ele>470</ele>
        <time>2016-12-27T14:11:30.000Z</time>
      </trkpt>
      <trkpt lat="43.39699" lon="2.75474">
        <ele>470</ele>
        <time>2016-12-27T14:11:32.000Z</time>
      </trkpt>
      <trkpt lat="43.39699" lon="2.75474">
        <ele>470</ele>
        <time>2016-12-27T14:11:34.000Z</time>
      </trkpt>
      <trkpt lat="43.39699" lon="2.75474">
        <ele>470</ele>
        <time>2016-12-27T14:11:36.000Z</time>
      </trkpt>
      <trkpt lat="43.39699" lon="2.75474">
        <ele>470</ele>
        <time>2016-12-27T14:11:38.000Z</time>
      </trkpt>
      <trkpt lat="43.39699" lon="2.75474">
        <ele>470</ele>
        <time>2016-12-27T14:11:40.000Z</time>
      </trkpt>
      <trkpt lat="43.39699" lon="2.75474">
        <ele>470</ele>
        <time>2016-12-27T14:11:42.000Z</time>
      </trkpt>
      <trkpt lat="43.39699" lon="2.75474">
        <ele>470</ele>
        <time>2016-12-27T14:11:44.000Z</time>
      </trkpt>
      <trkpt lat="43.39751" lon="2.75482">
        <ele>483</ele>
        <time>2016-12-27T14:11:48.000Z</time>
      </trkpt>
      <trkpt lat="43.39777" lon="2.75491">
        <ele>483</ele>
        <time>2016-12-27T14:11:50.000Z</time>
      </trkpt>
      <trkpt lat="43.3979" lon="2.755">
        <ele>484</ele>
        <time>2016-12-27T14:11:52.000Z</time>
      </trkpt>
      <trkpt lat="43.3979" lon="2.755">
        <ele>484</ele>
        <time>2016-12-27T14:11:54.000Z</time>
      </trkpt>
      <trkpt lat="43.3979" lon="2.755">
        <ele>484</ele>
        <time>2016-12-27T14:11:56.000Z</time>
      </trkpt>
      <trkpt lat="43.3979" lon="2.755">
        <ele>484</ele>
        <time>2016-12-27T14:11:58.000Z</time>
      </trkpt>
      <trkpt lat="43.3979" lon="2.755">
        <ele>484</ele>
        <time>2016-12-27T14:12:00.000Z</time>
      </trkpt>
      <trkpt lat="43.39803" lon="2.75523">
        <ele>486</ele>
        <time>2016-12-27T14:12:02.000Z</time>
      </trkpt>
      <trkpt lat="43.39811" lon="2.7554">
        <ele>486</ele>
        <time>2016-12-27T14:12:04.000Z</time>
      </trkpt>
      <trkpt lat="43.39817" lon="2.75554">
        <ele>486</ele>
        <time>2016-12-27T14:12:06.000Z</time>
      </trkpt>
      <trkpt lat="43.39823" lon="2.75566">
        <ele>485</ele>
        <time>2016-12-27T14:12:08.000Z</time>
      </trkpt>
      <trkpt lat="43.39828" lon="2.75578">
        <ele>485</ele>
        <time>2016-12-27T14:12:10.000Z</time>
      </trkpt>
      <trkpt lat="43.39837" lon="2.75603">
        <ele>485</ele>
        <time>2016-12-27T14:12:12.000Z</time>
      </trkpt>
      <trkpt lat="43.3984" lon="2.75617">
        <ele>485</ele>
        <time>2016-12-27T14:12:14.000Z</time>
      </trkpt>
      <trkpt lat="43.39843" lon="2.75631">
        <ele>486</ele>
        <time>2016-12-27T14:12:16.000Z</time>
      </trkpt>
      <trkpt lat="43.39847" lon="2.75646">
        <ele>486</ele>
        <time>2016-12-27T14:12:18.000Z</time>
      </trkpt>
      <trkpt lat="43.39851" lon="2.7566">
        <ele>486</ele>
        <time>2016-12-27T14:12:20.000Z</time>
      </trkpt>
      <trkpt lat="43.39856" lon="2.75673">
        <ele>486</ele>
        <time>2016-12-27T14:12:22.000Z</time>
      </trkpt>
      <trkpt lat="43.39861" lon="2.75686">
        <ele>486</ele>
        <time>2016-12-27T14:12:24.000Z</time>
      </trkpt>
      <trkpt lat="43.39861" lon="2.75686">
        <ele>486</ele>
        <time>2016-12-27T14:12:26.000Z</time>
      </trkpt>
      <trkpt lat="43.39883" lon="2.75721">
        <ele>486</ele>
        <time>2016-12-27T14:12:30.000Z</time>
      </trkpt>
      <trkpt lat="43.39893" lon="2.75732">
        <ele>486</ele>
        <time>2016-12-27T14:12:32.000Z</time>
      </trkpt>
      <trkpt lat="43.39903" lon="2.75744">
        <ele>486</ele>
        <time>2016-12-27T14:12:34.000Z</time>
      </trkpt>
      <trkpt lat="43.39913" lon="2.75757">
        <ele>485</ele>
        <time>2016-12-27T14:12:36.000Z</time>
      </trkpt>
      <trkpt lat="43.39923" lon="2.75768">
        <ele>485</ele>
        <time>2016-12-27T14:12:38.000Z</time>
      </trkpt>
      <trkpt lat="43.39933" lon="2.75779">
        <ele>485</ele>
        <time>2016-12-27T14:12:40.000Z</time>
      </trkpt>
      <trkpt lat="43.39941" lon="2.75791">
        <ele>485</ele>
        <time>2016-12-27T14:12:42.000Z</time>
      </trkpt>
      <trkpt lat="43.39949" lon="2.75804">
        <ele>485</ele>
        <time>2016-12-27T14:12:44.000Z</time>
      </trkpt>
      <trkpt lat="43.39956" lon="2.75819">
        <ele>485</ele>
        <time>2016-12-27T14:12:46.000Z</time>
      </trkpt>
      <trkpt lat="43.39963" lon="2.75835">
        <ele>484</ele>
        <time>2016-12-27T14:12:48.000Z</time>
      </trkpt>
      <trkpt lat="43.39971" lon="2.75852">
        <ele>484</ele>
        <time>2016-12-27T14:12:50.000Z</time>
      </trkpt>
      <trkpt lat="43.39977" lon="2.75869">
        <ele>484</ele>
        <time>2016-12-27T14:12:52.000Z</time>
      </trkpt>
      <trkpt lat="43.39984" lon="2.75886">
        <ele>484</ele>
        <time>2016-12-27T14:12:54.000Z</time>
      </trkpt>
      <trkpt lat="43.39991" lon="2.75904">
        <ele>484</ele>
        <time>2016-12-27T14:12:56.000Z</time>
      </trkpt>
      <trkpt lat="43.39998" lon="2.75922">
        <ele>483</ele>
        <time>2016-12-27T14:12:58.000Z</time>
      </trkpt>
      <trkpt lat="43.40005" lon="2.75939">
        <ele>483</ele>
        <time>2016-12-27T14:13:00.000Z</time>
      </trkpt>
      <trkpt lat="43.40014" lon="2.75957">
        <ele>482</ele>
        <time>2016-12-27T14:13:02.000Z</time>
      </trkpt>
      <trkpt lat="43.4002" lon="2.75974">
        <ele>482</ele>
        <time>2016-12-27T14:13:04.000Z</time>
      </trkpt>
      <trkpt lat="43.40025" lon="2.7599">
        <ele>483</ele>
        <time>2016-12-27T14:13:06.000Z</time>
      </trkpt>
      <trkpt lat="43.40029" lon="2.76005">
        <ele>483</ele>
        <time>2016-12-27T14:13:08.000Z</time>
      </trkpt>
      <trkpt lat="43.40033" lon="2.76021">
        <ele>482</ele>
        <time>2016-12-27T14:13:10.000Z</time>
      </trkpt>
      <trkpt lat="43.40036" lon="2.76039">
        <ele>482</ele>
        <time>2016-12-27T14:13:12.000Z</time>
      </trkpt>
      <trkpt lat="43.4004" lon="2.76057">
        <ele>481</ele>
        <time>2016-12-27T14:13:14.000Z</time>
      </trkpt>
      <trkpt lat="43.40046" lon="2.76074">
        <ele>481</ele>
        <time>2016-12-27T14:13:16.000Z</time>
      </trkpt>
      <trkpt lat="43.40052" lon="2.7609">
        <ele>480</ele>
        <time>2016-12-27T14:13:18.000Z</time>
      </trkpt>
      <trkpt lat="43.40059" lon="2.76106">
        <ele>479</ele>
        <time>2016-12-27T14:13:20.000Z</time>
      </trkpt>
      <trkpt lat="43.40065" lon="2.76121">
        <ele>478</ele>
        <time>2016-12-27T14:13:22.000Z</time>
      </trkpt>
      <trkpt lat="43.4007" lon="2.76139">
        <ele>478</ele>
        <time>2016-12-27T14:13:24.000Z</time>
      </trkpt>
      <trkpt lat="43.40073" lon="2.76159">
        <ele>477</ele>
        <time>2016-12-27T14:13:26.000Z</time>
      </trkpt>
      <trkpt lat="43.40075" lon="2.76182">
        <ele>475</ele>
        <time>2016-12-27T14:13:28.000Z</time>
      </trkpt>
      <trkpt lat="43.40075" lon="2.76205">
        <ele>474</ele>
        <time>2016-12-27T14:13:30.000Z</time>
      </trkpt>
      <trkpt lat="43.40073" lon="2.76227">
        <ele>473</ele>
        <time>2016-12-27T14:13:32.000Z</time>
      </trkpt>
      <trkpt lat="43.4007" lon="2.76249">
        <ele>472</ele>
        <time>2016-12-27T14:13:34.000Z</time>
      </trkpt>
      <trkpt lat="43.4007" lon="2.7627">
        <ele>471</ele>
        <time>2016-12-27T14:13:36.000Z</time>
      </trkpt>
      <trkpt lat="43.40072" lon="2.7629">
        <ele>469</ele>
        <time>2016-12-27T14:13:38.000Z</time>
      </trkpt>
      <trkpt lat="43.40075" lon="2.76306">
        <ele>468</ele>
        <time>2016-12-27T14:13:40.000Z</time>
      </trkpt>
      <trkpt lat="43.40075" lon="2.76306">
        <ele>468</ele>
        <time>2016-12-27T14:13:42.000Z</time>
      </trkpt>
      <trkpt lat="43.40075" lon="2.76306">
        <ele>468</ele>
        <time>2016-12-27T14:13:44.000Z</time>
      </trkpt>
      <trkpt lat="43.40075" lon="2.76306">
        <ele>468</ele>
        <time>2016-12-27T14:13:46.000Z</time>
      </trkpt>
      <trkpt lat="43.40075" lon="2.76306">
        <ele>468</ele>
        <time>2016-12-27T14:13:48.000Z</time>
      </trkpt>
      <trkpt lat="43.40076" lon="2.76327">
        <ele>461</ele>
        <time>2016-12-27T14:14:23.000Z</time>
      </trkpt>
      <trkpt lat="43.40076" lon="2.76327">
        <ele>461</ele>
        <time>2016-12-27T14:14:25.000Z</time>
      </trkpt>
      <trkpt lat="43.40076" lon="2.76327">
        <ele>461</ele>
        <time>2016-12-27T14:14:47.000Z</time>
      </trkpt>
      <trkpt lat="43.4008" lon="2.76343">
        <ele>464</ele>
        <time>2016-12-27T14:14:51.000Z</time>
      </trkpt>
      <trkpt lat="43.4008" lon="2.76365">
        <ele>464</ele>
        <time>2016-12-27T14:14:55.000Z</time>
      </trkpt>
      <trkpt lat="43.40079" lon="2.76386">
        <ele>464</ele>
        <time>2016-12-27T14:14:59.000Z</time>
      </trkpt>
      <trkpt lat="43.40079" lon="2.76386">
        <ele>464</ele>
        <time>2016-12-27T14:15:01.000Z</time>
      </trkpt>
      <trkpt lat="43.40079" lon="2.76386">
        <ele>464</ele>
        <time>2016-12-27T14:15:03.000Z</time>
      </trkpt>
      <trkpt lat="43.40072" lon="2.76422">
        <ele>464</ele>
        <time>2016-12-27T14:15:07.000Z</time>
      </trkpt>
      <trkpt lat="43.40066" lon="2.7644">
        <ele>465</ele>
        <time>2016-12-27T14:15:11.000Z</time>
      </trkpt>
      <trkpt lat="43.40066" lon="2.7644">
        <ele>465</ele>
        <time>2016-12-27T14:15:13.000Z</time>
      </trkpt>
      <trkpt lat="43.40066" lon="2.7644">
        <ele>465</ele>
        <time>2016-12-27T14:15:15.000Z</time>
      </trkpt>
      <trkpt lat="43.40066" lon="2.7644">
        <ele>465</ele>
        <time>2016-12-27T14:15:17.000Z</time>
      </trkpt>
      <trkpt lat="43.40044" lon="2.76488">
        <ele>466</ele>
        <time>2016-12-27T14:15:21.000Z</time>
      </trkpt>
      <trkpt lat="43.40037" lon="2.76497">
        <ele>466</ele>
        <time>2016-12-27T14:15:23.000Z</time>
      </trkpt>
      <trkpt lat="43.40028" lon="2.76505">
        <ele>466</ele>
        <time>2016-12-27T14:15:25.000Z</time>
      </trkpt>
      <trkpt lat="43.40028" lon="2.76505">
        <ele>466</ele>
        <time>2016-12-27T14:15:27.000Z</time>
      </trkpt>
      <trkpt lat="43.40028" lon="2.76505">
        <ele>466</ele>
        <time>2016-12-27T14:15:29.000Z</time>
      </trkpt>
      <trkpt lat="43.40028" lon="2.76505">
        <ele>466</ele>
        <time>2016-12-27T14:15:31.000Z</time>
      </trkpt>
      <trkpt lat="43.40028" lon="2.76505">
        <ele>466</ele>
        <time>2016-12-27T14:15:33.000Z</time>
      </trkpt>
      <trkpt lat="43.40028" lon="2.76505">
        <ele>466</ele>
        <time>2016-12-27T14:15:35.000Z</time>
      </trkpt>
      <trkpt lat="43.40028" lon="2.76505">
        <ele>466</ele>
        <time>2016-12-27T14:15:37.000Z</time>
      </trkpt>
      <trkpt lat="43.40013" lon="2.76516">
        <ele>466</ele>
        <time>2016-12-27T14:15:55.000Z</time>
      </trkpt>
      <trkpt lat="43.40005" lon="2.76521">
        <ele>466</ele>
        <time>2016-12-27T14:15:57.000Z</time>
      </trkpt>
      <trkpt lat="43.40005" lon="2.76521">
        <ele>466</ele>
        <time>2016-12-27T14:15:59.000Z</time>
      </trkpt>
      <trkpt lat="43.40005" lon="2.76521">
        <ele>466</ele>
        <time>2016-12-27T14:16:01.000Z</time>
      </trkpt>
      <trkpt lat="43.40005" lon="2.76521">
        <ele>466</ele>
        <time>2016-12-27T14:16:09.000Z</time>
      </trkpt>
      <trkpt lat="43.39995" lon="2.76528">
        <ele>465</ele>
        <time>2016-12-27T14:16:11.000Z</time>
      </trkpt>
      <trkpt lat="43.39989" lon="2.76532">
        <ele>465</ele>
        <time>2016-12-27T14:16:13.000Z</time>
      </trkpt>
      <trkpt lat="43.39989" lon="2.76532">
        <ele>465</ele>
        <time>2016-12-27T14:16:15.000Z</time>
      </trkpt>
      <trkpt lat="43.39983" lon="2.76537">
        <ele>465</ele>
        <time>2016-12-27T14:16:19.000Z</time>
      </trkpt>
      <trkpt lat="43.39979" lon="2.7654">
        <ele>465</ele>
        <time>2016-12-27T14:16:21.000Z</time>
      </trkpt>
      <trkpt lat="43.39974" lon="2.76543">
        <ele>465</ele>
        <time>2016-12-27T14:16:23.000Z</time>
      </trkpt>
      <trkpt lat="43.39969" lon="2.76546">
        <ele>465</ele>
        <time>2016-12-27T14:16:25.000Z</time>
      </trkpt>
      <trkpt lat="43.39964" lon="2.76549">
        <ele>465</ele>
        <time>2016-12-27T14:16:27.000Z</time>
      </trkpt>
      <trkpt lat="43.39955" lon="2.76556">
        <ele>464</ele>
        <time>2016-12-27T14:16:29.000Z</time>
      </trkpt>
      <trkpt lat="43.39955" lon="2.76556">
        <ele>464</ele>
        <time>2016-12-27T14:16:31.000Z</time>
      </trkpt>
      <trkpt lat="43.39955" lon="2.76556">
        <ele>464</ele>
        <time>2016-12-27T14:16:33.000Z</time>
      </trkpt>
      <trkpt lat="43.39955" lon="2.76556">
        <ele>464</ele>
        <time>2016-12-27T14:16:35.000Z</time>
      </trkpt>
      <trkpt lat="43.39955" lon="2.76556">
        <ele>464</ele>
        <time>2016-12-27T14:16:37.000Z</time>
      </trkpt>
      <trkpt lat="43.39955" lon="2.76556">
        <ele>464</ele>
        <time>2016-12-27T14:16:39.000Z</time>
      </trkpt>
      <trkpt lat="43.39955" lon="2.76556">
        <ele>464</ele>
        <time>2016-12-27T14:16:41.000Z</time>
      </trkpt>
      <trkpt lat="43.39955" lon="2.76556">
        <ele>464</ele>
        <time>2016-12-27T14:17:04.000Z</time>
      </trkpt>
    </trkseg>
  </trk>
</gpx>